[[{"header":{"parameterUnit":"m.s-1","parameterCategory":1,"la1":30.6,"la2":28.766,"lo1":-90.7593,"lo2":-88.6598,"dy":0.0162,"dx":0.0183,"nx":116,"ny":114,"refTime":"2024-04-17T06:00:00:Z","depth":0,"parameterNumber":2,"parameterNumberName":"U-component_of_WINDS"},"data":[0.0,0.0,0.0,0.0,0.0,0.0,0.0,0.0,0.0,0.0,0.0,0.0,0.0,0.0,0.0,0.0,0.0,0.0,0.0,0.0,0.0,0.0,0.0,0.0,0.0,0.0,0.0,0.0,0.0,0.0,0.0,0.0,0.0,0.0,0.0,0.0,0.0,0.0,0.0,0.0,0.0,0.0,0.0,0.0,0.0,0.0,0.0,0.0,0.0,0.0,0.0,0.0,0.0,0.0,0.0,0.0,0.0,0.0,0.0,0.0,0.0,0.0,0.0,0.0,0.0,0.0,0.0,0.0,0.0,0.0,0.0,0.0,0.0,0.0,0.0,0.0,0.0,0.0,0.0,0.0,0.0,0.0,0.0,0.0,0.0,0.0,0.0,0.0,0.0,0.0,0.0,0.0,0.0,0.0,0.0,0.0,0.0,0.0,0.0,0.0,0.0,0.0,0.0,0.0,0.0,0.0,0.0,0.0,0.0,0.0,0.0,0.0,0.0,0.0,0.0,0.0,0.0,0.0,0.0,0.0,0.0,0.0,0.0,0.0,0.0,0.0,0.0,0.0,0.0,0.0,0.0,0.0,0.0,0.0,0.0,0.0,0.0,0.0,0.0,0.0,0.0,0.0,0.0,0.0,0.0,0.0,0.0,0.0,0.0,0.0,0.0,0.0,0.0,0.0,0.0,0.0,0.0,0.0,0.0,0.0,0.0,0.0,0.0,0.0,0.0,0.0,0.0,0.0,0.0,0.0,0.0,0.0,0.0,0.0,0.0,0.0,0.0,0.0,0.0,0.0,0.0,0.0,0.0,0.0,0.0,0.0,0.0,0.0,0.0,0.0,0.0,0.0,0.0,0.0,0.0,0.0,0.0,0.0,0.0,0.0,0.0,0.0,0.0,0.0,0.0,0.0,0.0,0.0,0.0,0.0,0.0,0.0,0.0,0.0,0.0,0.0,0.0,0.0,0.0,0.0,0.0,0.0,0.0,0.0,0.0,0.0,0.0,0.0,0.0,0.0,0.0,0.0,0.0,0.0,0.0,0.0,0.0,0.0,0.0,0.0,0.0,0.0,0.0,0.0,0.0,0.0,0.0,0.0,0.0,0.0,0.0,0.0,0.0,0.0,0.0,0.0,0.0,0.0,0.0,0.0,0.0,0.0,0.0,0.0,0.0,0.0,0.0,0.0,0.0,0.0,0.0,0.0,0.0,0.0,0.0,0.0,0.0,0.0,0.0,0.0,0.0,0.0,0.0,0.0,0.0,0.0,0.0,0.0,0.0,0.0,0.0,0.0,0.0,0.0,0.0,0.0,0.0,0.0,0.0,0.0,0.0,0.0,0.0,0.0,0.0,0.0,0.0,0.0,0.0,0.0,0.0,0.0,0.0,0.0,0.0,0.0,0.0,0.0,0.0,0.0,0.0,0.0,0.0,0.0,0.0,0.0,0.0,0.0,0.0,0.0,0.0,0.0,0.0,0.0,0.0,0.0,0.0,0.0,0.0,0.0,0.0,0.0,0.0,0.0,0.0,0.0,0.0,0.0,0.0,0.0,0.0,0.0,0.0,0.0,0.0,0.0,0.0,0.0,0.0,0.0,0.0,0.0,0.0,0.0,0.0,0.0,0.0,0.0,0.0,0.0,0.0,0.0,0.0,0.0,0.0,0.0,0.0,0.0,0.0,0.0,0.0,0.0,0.0,0.0,0.0,0.0,0.0,0.0,0.0,0.0,0.0,0.0,0.0,0.0,0.0,0.0,0.0,0.0,0.0,0.0,0.0,0.0,0.0,0.0,0.0,0.0,0.0,0.0,0.0,0.0,0.0,0.0,0.0,0.0,0.0,0.0,0.0,0.0,0.0,0.0,0.0,0.0,0.0,0.0,0.0,0.0,0.0,0.0,0.0,0.0,0.0,0.0,0.0,0.0,0.0,0.0,0.0,0.0,0.0,0.0,0.0,0.0,0.0,0.0,0.0,0.0,0.0,0.0,0.0,0.0,0.0,0.0,0.0,0.0,0.0,0.0,0.0,0.0,0.0,0.0,0.0,0.0,0.0,0.0,0.0,0.0,0.0,0.0,0.0,0.0,0.0,0.0,0.0,0.0,0.0,0.0,0.0,0.0,0.0,0.0,0.0,0.0,0.0,0.0,0.0,0.0,0.0,0.0,0.0,0.0,0.0,0.0,0.0,0.0,0.0,0.0,0.0,0.0,0.0,0.0,0.0,0.0,0.0,0.0,0.0,0.0,0.0,0.0,0.0,0.0,0.0,0.0,0.0,0.0,0.0,0.0,0.0,0.0,0.0,0.0,0.0,0.0,0.0,0.0,0.0,0.0,0.0,0.0,0.0,0.0,0.0,0.0,0.0,0.0,0.0,0.0,0.0,0.0,0.0,0.0,0.0,0.0,0.0,0.0,0.0,0.0,0.0,0.0,0.0,0.0,0.0,0.0,0.0,0.0,0.0,0.0,0.0,0.0,0.0,0.0,0.0,0.0,0.0,0.0,0.0,0.0,0.0,0.0,0.0,0.0,0.0,0.0,0.0,0.0,0.0,0.0,0.0,0.0,0.0,0.0,0.0,0.0,0.0,0.0,0.0,0.0,0.0,0.0,0.0,0.0,0.0,0.0,0.0,0.0,0.0,0.0,0.0,0.0,0.0,0.0,0.0,0.0,0.0,0.0,0.0,0.0,0.0,0.0,0.0,0.0,0.0,0.0,0.0,0.0,0.0,0.0,0.0,0.0,0.0,0.0,0.0,0.0,0.0,0.0,0.0,0.0,0.0,0.0,0.0,0.0,0.0,0.0,0.0,0.0,0.0,0.0,0.0,0.0,0.0,0.0,0.0,0.0,0.0,0.0,0.0,0.0,0.0,0.0,0.0,0.0,0.0,0.0,0.0,0.0,0.0,0.0,0.0,0.0,0.0,0.0,0.0,0.0,0.0,0.0,0.0,0.0,0.0,0.0,0.0,0.0,0.0,0.0,0.0,0.0,0.0,0.0,0.0,0.0,0.0,0.0,0.0,0.0,0.0,0.0,0.0,0.0,0.0,0.0,0.0,0.0,0.0,0.0,0.0,0.0,0.0,0.0,0.0,0.0,0.0,0.0,0.0,0.0,0.0,0.0,0.0,0.0,0.0,0.0,0.0,0.0,0.0,0.0,0.0,0.0,0.0,0.0,0.0,0.0,0.0,0.0,0.0,0.0,0.0,0.0,0.0,0.0,0.0,0.0,0.0,0.0,0.0,0.0,0.0,0.0,0.0,0.0,0.0,0.0,0.0,0.0,0.0,0.0,0.0,0.0,0.0,0.0,0.0,0.0,0.0,0.0,0.0,0.0,0.0,0.0,0.0,0.0,0.0,0.0,0.0,0.0,0.0,0.0,0.0,0.0,0.0,0.0,0.0,0.0,0.0,0.0,0.0,0.0,0.0,0.0,0.0,0.0,0.0,0.0,0.0,0.0,0.0,0.0,0.0,0.0,0.0,0.0,0.0,0.0,0.0,0.0,0.0,0.0,0.0,0.0,0.0,0.0,0.0,0.0,0.0,0.0,0.0,0.0,0.0,0.0,0.0,0.0,0.0,0.0,0.0,0.0,0.0,0.0,0.0,0.0,0.0,0.0,0.0,0.0,0.0,0.0,0.0,0.0,0.0,0.0,0.0,0.0,0.0,0.0,0.0,0.0,0.0,0.0,0.0,0.0,0.0,0.0,0.0,0.0,0.0,0.0,0.0,0.0,0.0,0.0,0.0,0.0,0.0,0.0,0.0,0.0,0.0,0.0,0.0,0.0,0.0,0.0,0.0,0.0,0.0,0.0,0.0,0.0,0.0,0.0,0.0,0.0,0.0,0.0,0.0,0.0,0.0,0.0,0.0,0.0,0.0,0.0,0.0,0.0,0.0,0.0,0.0,0.0,0.0,0.0,0.0,0.0,0.0,0.0,0.0,0.0,0.0,0.0,0.0,0.0,0.0,0.0,0.0,0.0,0.0,0.0,0.0,0.0,0.0,0.0,0.0,0.0,0.0,0.0,0.0,0.0,0.0,0.0,0.0,0.0,0.0,0.0,0.0,0.0,0.0,0.0,0.0,0.0,0.0,0.0,0.0,0.0,0.0,0.0,0.0,0.0,0.0,0.0,0.0,0.0,0.0,0.0,0.0,0.0,0.0,0.0,0.0,0.0,0.0,0.0,0.0,0.0,0.0,0.0,0.0,0.0,0.0,0.0,0.0,0.0,0.0,0.0,0.0,0.0,0.0,0.0,0.0,0.0,0.0,0.0,0.0,0.0,0.0,0.0,0.0,0.0,0.0,0.0,0.0,0.0,0.0,0.0,0.0,0.0,0.0,0.0,0.0,0.0,0.0,0.0,0.0,0.0,0.0,0.0,0.0,0.0,0.0,0.0,0.0,0.0,0.0,0.0,0.0,0.0,0.0,0.0,0.0,0.0,0.0,0.0,0.0,0.0,0.0,0.0,0.0,0.0,0.0,0.0,0.0,0.0,0.0,0.0,0.0,0.0,0.0,0.0,0.0,0.0,0.0,0.0,0.0,0.0,0.0,0.0,0.0,0.0,0.0,0.0,0.0,0.0,0.0,0.0,0.0,0.0,0.0,0.0,0.0,0.0,0.0,0.0,0.0,0.0,0.0,0.0,0.0,0.0,0.0,0.0,0.0,0.0,0.0,0.0,0.0,0.0,0.0,0.0,0.0,0.0,0.0,0.0,0.0,0.0,0.0,0.0,0.0,0.0,0.0,0.0,0.0,0.0,0.0,0.0,0.0,0.0,0.0,0.0,0.0,0.0,0.0,0.0,0.0,0.0,0.0,0.0,0.0,0.0,0.0,0.0,0.0,0.0,0.0,0.0,0.0,0.0,0.0,0.0,0.0,0.0,0.0,0.0,0.0,0.0,0.0,0.0,0.0,0.0,0.0,0.0,0.0,0.0,0.0,0.0,0.0,0.0,0.0,0.0,0.0,0.0,0.0,0.0,0.0,0.0,0.0,0.0,0.0,0.0,0.0,0.0,0.0,0.0,0.0,0.0,0.0,0.0,0.0,0.0,0.0,0.0,0.0,0.0,0.0,0.0,0.0,0.0,0.0,0.0,0.0,0.0,0.0,0.0,0.0,0.0,0.0,0.0,0.0,0.0,0.0,0.0,0.0,0.0,0.0,0.0,0.0,0.0,0.0,0.0,0.0,0.0,0.0,0.0,0.0,0.0,0.0,0.0,0.0,0.0,0.0,0.0,0.0,0.0,0.0,0.0,0.0,0.0,0.0,0.0,0.0,0.0,0.0,0.0,0.0,0.0,0.0,0.0,0.0,0.0,0.0,0.0,0.0,0.0,0.0,0.0,0.0,0.0,0.0,0.0,0.0,0.0,0.0,0.0,0.0,0.0,0.0,0.0,0.0,0.0,0.0,0.0,0.0,0.0,0.0,0.0,0.0,0.0,0.0,0.0,0.0,0.0,0.0,0.0,0.0,0.0,0.0,0.0,0.0,0.0,0.0,0.0,0.0,0.0,0.0,0.0,0.0,0.0,0.0,0.0,0.0,0.0,0.0,0.0,0.0,0.0,0.0,0.0,0.0,0.0,0.0,0.0,0.0,0.0,0.0,0.0,0.0,0.0,0.0,0.0,0.0,0.0,0.0,0.0,0.0,0.0,0.0,0.0,0.0,0.0,0.0,0.0,0.0,0.0,0.0,0.0,0.0,0.0,0.0,0.0,0.0,0.0,0.0,0.0,0.0,0.0,0.0,0.0,0.0,0.0,0.0,0.0,0.0,0.0,0.0,0.0,0.0,0.0,0.0,0.0,0.0,0.0,0.0,0.0,0.0,0.0,0.0,0.0,0.0,0.0,0.0,0.0,0.0,0.0,0.0,0.0,0.0,0.0,0.0,0.0,0.0,0.0,0.0,0.0,0.0,0.0,0.0,0.0,0.0,0.0,0.0,0.0,0.0,0.0,0.0,0.0,0.0,0.0,0.0,0.0,0.0,0.0,0.0,0.0,0.0,0.0,0.0,0.0,0.0,0.0,0.0,0.0,0.0,0.0,0.0,0.0,0.0,0.0,0.0,0.0,0.0,0.0,0.0,0.0,0.0,0.0,0.0,0.0,0.0,0.0,-2.8568,0.0,0.0,0.0,0.0,0.0,0.0,0.0,0.0,0.0,0.0,0.0,0.0,0.0,0.0,0.0,0.0,0.0,0.0,0.0,0.0,0.0,0.0,0.0,0.0,-2.2673,-2.3192,-2.3223,-2.3608,-2.4039,-2.4493,0.0,0.0,0.0,0.0,0.0,-2.3897,-2.5141,-2.6019,-2.6498,-2.6784,-2.7676,-2.9109,-2.9564,-2.919,-2.8109,0.0,0.0,0.0,0.0,0.0,0.0,0.0,0.0,0.0,0.0,0.0,0.0,0.0,0.0,0.0,0.0,0.0,0.0,0.0,0.0,0.0,0.0,0.0,0.0,0.0,0.0,0.0,0.0,0.0,0.0,0.0,0.0,0.0,0.0,0.0,0.0,0.0,0.0,0.0,0.0,0.0,0.0,0.0,0.0,0.0,0.0,0.0,0.0,0.0,0.0,0.0,0.0,0.0,0.0,0.0,0.0,0.0,0.0,0.0,0.0,0.0,0.0,0.0,0.0,0.0,0.0,0.0,0.0,0.0,0.0,0.0,-3.104,0.0,0.0,0.0,0.0,0.0,0.0,0.0,0.0,0.0,0.0,0.0,0.0,0.0,0.0,0.0,0.0,0.0,0.0,0.0,0.0,0.0,-2.095,-2.2633,-2.3046,-2.3484,-2.4231,-2.4447,-2.4858,-2.5554,-2.4618,0.0,0.0,-2.4555,-2.4575,-2.4142,-2.5621,-2.6556,-2.6873,-2.7888,-2.9481,-3.162,-3.3213,-3.258,-3.0065,-2.9573,0.0,0.0,0.0,0.0,0.0,0.0,0.0,0.0,0.0,0.0,0.0,0.0,0.0,0.0,0.0,0.0,0.0,0.0,0.0,0.0,0.0,0.0,0.0,0.0,0.0,0.0,0.0,0.0,0.0,0.0,0.0,0.0,0.0,0.0,0.0,0.0,0.0,0.0,0.0,0.0,0.0,0.0,0.0,0.0,0.0,0.0,0.0,0.0,0.0,0.0,0.0,0.0,0.0,0.0,0.0,0.0,0.0,0.0,0.0,0.0,0.0,0.0,0.0,-3.9928,-4.052,-4.0791,-4.0791,-4.0526,-3.9919,-3.7081,-3.4177,-3.1531,-3.2809,0.0,0.0,0.0,0.0,0.0,0.0,0.0,0.0,0.0,0.0,0.0,0.0,0.0,0.0,0.0,0.0,0.0,0.0,0.0,-2.2598,-2.3616,-2.5018,-2.5888,-2.5904,-2.6642,-2.7143,-2.7191,-2.5774,-2.4952,-2.5019,-2.4343,-2.4299,-2.5013,-2.5876,-2.7008,-2.8422,-3.0996,-3.3096,-3.4742,-3.6278,-3.6796,-3.626,-3.3013,-3.1657,-3.167,0.0,0.0,0.0,0.0,0.0,0.0,0.0,0.0,0.0,0.0,0.0,0.0,0.0,0.0,0.0,0.0,0.0,0.0,0.0,0.0,0.0,0.0,0.0,0.0,0.0,0.0,0.0,0.0,0.0,0.0,0.0,0.0,0.0,0.0,0.0,0.0,0.0,0.0,0.0,0.0,0.0,-3.1517,-3.1121,0.0,0.0,0.0,0.0,0.0,0.0,0.0,0.0,0.0,0.0,0.0,0.0,0.0,-3.7387,-3.8351,-3.9893,-4.0198,-3.9258,-4.0833,-4.0864,-3.9541,-3.9541,-3.9876,-4.0394,-3.9827,0.0,-3.6528,-3.3231,0.0,0.0,0.0,0.0,0.0,0.0,0.0,0.0,0.0,0.0,0.0,0.0,0.0,0.0,0.0,0.0,0.0,0.0,0.0,0.0,0.0,-2.6765,-2.815,-2.9043,-3.1526,-3.2062,-2.9737,-2.9653,-2.8712,-2.6477,-2.6029,-2.6051,-2.6537,-2.7634,-2.9369,-3.1734,-3.4387,-3.6234,-3.727,-3.9295,-4.0241,-4.0165,-3.8533,-3.6403,-3.3955,-3.2369,0.0,0.0,0.0,0.0,0.0,0.0,0.0,0.0,0.0,0.0,0.0,0.0,0.0,0.0,0.0,0.0,0.0,0.0,0.0,0.0,0.0,0.0,0.0,0.0,0.0,0.0,0.0,0.0,0.0,0.0,0.0,0.0,0.0,0.0,0.0,0.0,0.0,0.0,0.0,-3.2653,-3.4186,-3.2866,-3.3702,-3.4319,0.0,0.0,0.0,0.0,0.0,0.0,0.0,0.0,0.0,-3.7439,-3.8971,-4.0067,-4.0657,-4.1818,-4.2307,-4.2124,-4.2854,-4.3085,-4.2843,-4.2843,-4.2766,-4.2624,-4.2565,-4.1598,-3.9824,-3.6945,-3.5254,-3.4339,0.0,0.0,0.0,0.0,-3.2081,-3.2467,0.0,0.0,0.0,0.0,0.0,0.0,0.0,0.0,0.0,0.0,0.0,0.0,-2.7509,-2.9417,-3.1322,-3.3455,-3.6084,-3.6253,-3.3006,-3.2882,-3.1438,-2.8116,-2.7773,-2.7869,-2.8229,-2.9988,-3.2361,-3.5321,-3.7563,-3.9187,-4.0286,-4.2286,-4.3222,-4.3222,-4.3222,-4.0901,-3.6872,-3.5076,-3.3336,-3.1647,0.0,0.0,0.0,0.0,0.0,0.0,0.0,0.0,0.0,0.0,0.0,0.0,0.0,0.0,0.0,0.0,0.0,0.0,0.0,0.0,0.0,0.0,0.0,0.0,0.0,0.0,0.0,0.0,0.0,0.0,0.0,0.0,0.0,0.0,0.0,0.0,0.0,-3.3655,-3.5692,-3.3788,-3.5309,-3.6388,0.0,0.0,0.0,0.0,0.0,0.0,-3.8298,-3.9681,-4.0559,-4.0767,-4.2151,-4.3041,-4.3404,-4.3855,-4.4374,-4.4951,-4.4739,-4.4979,-4.5594,-4.5594,-4.5248,-4.4624,-4.4624,-4.3797,-4.2269,-4.0019,-3.7584,-3.5232,-3.4836,-3.4726,-3.4784,-3.4711,-3.5048,-3.5578,0.0,0.0,0.0,0.0,0.0,0.0,0.0,0.0,0.0,0.0,0.0,-2.6635,-3.1809,-3.3756,-3.6062,-3.9469,-3.9021,-3.813,-3.7155,-3.3884,-3.1315,-2.9826,-2.8912,-2.8914,-2.9942,-3.2729,-3.5653,-3.8662,-4.0197,-4.2121,-4.4416,-4.5296,-4.5718,-4.5718,-4.5718,-4.3969,-4.0855,-3.8413,-3.6115,-3.3976,-3.231,0.0,0.0,0.0,0.0,0.0,0.0,0.0,0.0,0.0,0.0,0.0,0.0,0.0,0.0,0.0,0.0,0.0,0.0,0.0,0.0,0.0,0.0,0.0,0.0,0.0,0.0,0.0,0.0,0.0,0.0,0.0,0.0,0.0,0.0,0.0,0.0,0.0,0.0,-3.2943,-3.5764,0.0,0.0,0.0,0.0,-4.0667,-4.1624,-4.2567,-4.3559,-4.4487,-4.5074,-4.5269,-4.6154,-4.7,-4.7778,-4.7067,-4.6731,-4.675,-4.5932,-4.5556,-4.5594,-4.5594,-4.5575,-4.5537,-4.5537,-4.5017,-4.3912,-4.0642,-3.9173,-3.885,-3.6993,-3.6774,-3.7405,-3.6583,-3.6315,-3.6255,0.0,0.0,0.0,0.0,0.0,-1.9968,-2.0809,-2.1398,-2.2492,-2.4568,-2.6549,-2.9298,-3.3344,-3.7134,-4.0509,-4.3302,-4.458,-4.3989,-4.1065,-3.8637,-3.5956,-3.2924,-3.161,-3.177,-3.354,-3.5559,-3.8081,-4.1098,-4.2652,-4.3847,-4.4728,-4.6049,-4.6416,-4.5957,-4.6985,-4.6544,-4.4835,-4.1877,-3.9277,-3.6911,-3.4315,-3.2225,0.0,0.0,0.0,0.0,0.0,0.0,0.0,0.0,0.0,0.0,0.0,0.0,0.0,0.0,0.0,0.0,0.0,0.0,0.0,0.0,0.0,0.0,0.0,0.0,0.0,0.0,0.0,0.0,0.0,0.0,0.0,0.0,0.0,0.0,0.0,0.0,0.0,-3.8485,-4.0872,0.0,-4.2029,-4.1657,-4.2039,-4.3558,-4.4698,-4.5486,-4.5851,-4.7732,-4.8548,-4.8067,-4.8894,-4.9202,-4.8933,-4.8644,-4.7971,-4.6904,-4.6586,-4.6144,-4.5594,-4.5594,-4.5594,-4.5594,-4.5594,-4.5421,-4.496,-4.2681,-4.1085,-4.0008,-3.9319,-3.8565,-3.799,-3.8757,-3.87,-3.8305,0.0,0.0,0.0,0.0,0.0,-1.9948,-2.0802,-2.1606,-2.2933,-2.5275,-2.8269,-3.189,-3.6449,-4.0809,-4.4564,-4.7384,-4.8189,-4.692,-4.3131,-4.0723,-3.7809,-3.4162,-3.3657,-3.4483,-3.6638,-3.8479,-4.076,-4.3516,-4.4856,-4.5645,-4.5938,-4.7003,-4.7204,-4.6764,-4.7829,-4.8177,-4.7774,-4.5057,-4.2196,-3.9276,-3.6703,-3.4572,-3.2669,0.0,0.0,0.0,0.0,0.0,0.0,0.0,0.0,0.0,0.0,0.0,0.0,0.0,0.0,0.0,0.0,0.0,0.0,0.0,0.0,0.0,0.0,0.0,0.0,0.0,0.0,0.0,0.0,0.0,0.0,0.0,0.0,0.0,0.0,-3.9464,-4.2683,-4.203,-4.4451,-4.605,-4.5742,-4.5246,-4.5524,-4.6882,-4.7981,-4.8712,-4.9009,-5.0356,-5.0837,-5.026,-5.0529,-5.0289,-4.9413,-4.9106,-4.8279,-4.6904,-4.6605,-4.6163,-4.5594,-4.5594,-4.5594,-4.5594,-4.5594,-4.5594,-4.5518,-4.4393,-4.3085,-4.1728,-4.1162,-4.0258,-3.945,-4.0854,-4.1035,-4.0623,0.0,0.0,0.0,0.0,0.0,-2.0051,-2.0838,-2.1608,-2.3303,-2.6611,-2.98,-3.4357,-4.114,-4.4718,-4.8056,-5.1612,-4.9324,-4.6365,-4.3226,-3.9658,-3.6348,-3.3432,-3.4944,-3.6888,-3.9058,-4.1462,-4.3738,-4.5938,-4.6709,-4.7498,-4.8269,-4.8269,-4.8288,-4.8306,-4.8306,-4.8783,-4.95,-4.7847,-4.4874,-4.1132,-3.946,-3.739,-3.5177,0.0,0.0,0.0,0.0,0.0,0.0,0.0,0.0,0.0,0.0,0.0,0.0,0.0,0.0,0.0,0.0,0.0,0.0,0.0,0.0,0.0,0.0,0.0,0.0,0.0,0.0,0.0,0.0,0.0,0.0,0.0,0.0,0.0,-3.5522,-4.0243,-4.368,-4.3082,-4.609,-4.7932,-4.7173,-4.8567,-4.9875,-5.0712,-5.1529,-5.2327,-5.3164,-5.2423,-5.1962,-5.1904,-5.1125,-5.0289,-4.9413,-4.8548,-4.7702,-4.6885,-4.6028,-4.5633,-4.5594,-4.5594,-4.5594,-4.5594,-4.5594,-4.5594,-4.5594,-4.5575,-4.5056,-4.4143,-4.2547,-4.1885,-4.1942,-4.2797,-4.3066,-4.2893,0.0,0.0,0.0,-1.9745,-1.9738,-1.982,-2.0089,-2.1328,-2.3184,-2.5801,-3.0451,-3.5539,-4.0885,-4.4744,-4.7849,-5.0065,-4.7367,-4.4967,-4.3601,-3.9355,-3.6601,-3.5909,-3.6764,-3.8613,-4.1554,-4.3262,-4.5001,-4.6764,-4.6984,-4.7204,-4.7424,-4.7424,-4.7736,-4.8306,-4.8306,-4.8783,-4.9537,-4.8434,-4.6984,-4.5168,-4.1792,-3.973,-3.8317,0.0,0.0,0.0,0.0,0.0,0.0,0.0,0.0,0.0,0.0,0.0,0.0,0.0,0.0,0.0,0.0,0.0,0.0,0.0,0.0,0.0,0.0,0.0,0.0,0.0,0.0,0.0,0.0,0.0,0.0,0.0,-3.8903,-4.1203,-4.0664,-4.4062,-4.6878,-4.7511,-4.9519,-5.1019,-5.1433,-5.1875,-5.226,-5.2491,-5.3299,-5.3606,-5.3222,-5.3568,-5.3222,-5.1942,-5.1125,-5.0289,-4.9413,-4.8548,-4.7702,-4.6904,-4.6663,-4.6201,-4.5594,-4.5594,-4.5594,-4.5594,-4.5594,-4.5594,-4.5556,-4.4921,-4.4509,-4.4316,-4.4489,-4.3816,-4.2777,-4.3008,-4.2297,-4.1189,0.0,0.0,0.0,-1.9751,-1.9732,-1.9757,-1.9825,-2.1242,-2.313,-2.5451,-3.0987,-3.6234,-4.028,-4.423,-4.6856,-4.748,-4.5186,-4.2978,-4.1301,-3.8308,-3.7082,-3.8194,-3.9235,-4.1249,-4.4404,-4.5295,-4.6507,-4.8159,-4.8159,-4.7976,-4.7608,-4.8323,-4.8728,-4.8838,-4.8838,-4.9499,-5.051,-4.8967,-4.8453,-4.836,-4.4966,-4.293,-4.1552,-3.8235,-3.693,-3.6597,-3.4491,-3.438,-3.4666,-3.1084,0.0,0.0,0.0,0.0,0.0,0.0,0.0,0.0,0.0,0.0,0.0,0.0,0.0,0.0,0.0,0.0,0.0,0.0,0.0,0.0,0.0,0.0,0.0,0.0,-4.206,-4.5126,-4.6387,-4.7642,-4.8795,-4.9827,-5.1414,-5.2799,-5.3664,-5.4049,-5.4241,-5.4241,-5.4722,-5.478,-5.428,-5.4068,-5.3491,-5.2481,-5.0952,-4.974,-4.8856,-4.8029,-4.7182,-4.6355,-4.6355,-4.6086,-4.5594,-4.5594,-4.5594,-4.5594,-4.5594,-4.5594,-4.5556,-4.5056,-4.4836,0.0,0.0,0.0,0.0,0.0,-4.3066,-4.1593,0.0,0.0,0.0,-1.983,-1.9813,-1.9813,-1.9884,-2.1287,-2.31,-2.5286,-3.1076,-3.6078,-3.8903,-4.2727,-4.4837,-4.4196,-4.2633,-4.0491,-3.7747,-3.7044,-3.7808,-4.0265,-4.1894,-4.4114,-4.7039,-4.7278,-4.8104,-4.961,-4.9702,-4.9334,-4.8618,-5.0105,-5.0472,-4.9867,-4.9776,-5.0583,-5.1848,-4.9554,-4.9444,-5.0618,-4.8397,-4.6452,-4.462,-4.2362,-4.1309,-4.081,-3.9256,-3.8247,-3.7267,-3.473,0.0,0.0,0.0,0.0,0.0,0.0,0.0,0.0,0.0,0.0,0.0,0.0,0.0,0.0,0.0,0.0,0.0,0.0,0.0,0.0,0.0,0.0,0.0,0.0,-4.5586,-4.89,-5.1672,-5.0683,-5.001,-5.0885,-5.2299,-5.3549,-5.4414,-5.5222,-5.5703,-5.5703,-5.5703,-5.5665,-5.5568,0.0,0.0,0.0,0.0,-4.8875,-4.8105,-4.7201,-4.6374,-4.5594,-4.5594,-4.5594,-4.5594,-4.5594,-4.5594,-4.5594,-4.5594,-4.5594,-4.5594,-4.5594,-4.5594,-4.5518,-4.4739,-4.4393,-4.4393,-4.5171,-4.4393,-4.2951,0.0,0.0,0.0,-1.9884,-1.983,-1.9824,-1.9883,-2.1359,-2.2998,-2.4534,-2.9311,-3.3189,-3.4802,-3.8046,-4.0286,-4.0781,-3.885,-3.7396,-3.6848,-3.7244,-3.8851,-4.1891,-4.3471,-4.5167,-4.7058,-4.8416,-4.928,-4.961,-5.0251,-5.049,-5.0325,-5.0655,-5.1059,-5.1499,-5.0857,-5.1096,-5.1922,-5.0802,-5.0508,-5.0765,-5.0288,-4.869,-4.6434,-4.4673,-4.3573,-4.2749,-4.1154,-4.1302,-4.1728,-3.8441,-3.8154,-3.8664,-3.5794,-3.4004,0.0,0.0,0.0,0.0,0.0,0.0,0.0,0.0,0.0,0.0,0.0,0.0,0.0,0.0,0.0,0.0,0.0,0.0,0.0,-4.4187,-4.767,-5.0768,-5.2673,-5.2058,-5.1731,-5.2606,-5.301,-5.3549,-5.4414,-5.5222,-5.5703,-5.5703,-5.5703,-5.5415,-5.4761,-5.376,-5.2876,-5.2173,-4.9683,-4.8279,-4.8105,-4.6605,-4.5768,-4.5594,0.0,0.0,-4.5594,-4.5594,-4.5594,-4.5594,-4.5594,-4.5594,-4.5594,-4.5594,-4.5594,-4.5575,-4.5421,-4.4921,-4.4316,-4.4489,-4.3489,-4.2038,0.0,0.0,0.0,-1.9958,-1.993,-1.9913,-1.9941,-2.1394,-2.2849,-2.3866,-2.7941,-3.1134,-3.2154,-3.4755,-3.6459,-3.6486,-3.5827,-3.589,-3.7081,-3.8629,-4.0917,-4.406,-4.5681,-4.7076,-4.8269,-4.9554,-5.0196,-5.0196,-5.1004,-5.1187,-5.082,-5.1628,-5.1995,-5.1977,-5.1573,-5.1848,-5.2527,-5.1316,-5.1041,-5.1371,-5.0967,-4.9829,-4.8214,-4.6985,-4.5755,-4.4544,-4.3332,-4.291,-4.2563,-4.0412,-3.9993,-3.9959,-3.7788,-3.6397,-3.5085,0.0,0.0,0.0,0.0,0.0,0.0,0.0,0.0,0.0,0.0,0.0,0.0,0.0,0.0,-3.8597,-3.8934,0.0,-4.5698,-4.7346,-5.0406,-5.3029,-5.428,-5.3356,-5.2876,-5.376,-5.3472,-5.3703,-5.4972,-5.5453,-5.5703,-5.5703,-5.5318,-5.4914,-5.4511,-5.326,-5.2346,-5.1904,-4.9423,-4.8105,-4.8105,-4.6432,-4.5825,-4.624,-4.5806,-4.5825,-4.624,-4.5806,-4.5594,-4.5594,-4.5594,-4.5594,-4.5594,-4.5594,-4.5594,-4.5594,-4.5594,-4.5325,-4.496,-4.496,-4.4143,-4.3047,0.0,0.0,0.0,-1.9988,-1.998,-1.9982,-1.9982,-2.1273,-2.2501,-2.3171,-2.6567,-2.9129,-2.9688,-3.1708,-3.2869,-3.2452,-3.3531,-3.5305,-3.7799,-4.0191,-4.2954,-4.6214,-4.7774,-4.8857,-4.9499,-5.0508,-5.0967,-5.0802,-5.1756,-5.1903,-5.1298,-5.2601,-5.2858,-5.2234,-5.2234,-5.2601,-5.3112,-5.183,-5.1646,-5.216,-5.1353,-5.0545,-4.9721,-4.8691,-4.7297,-4.5755,-4.4635,-4.3261,-4.1853,-4.1115,-4.051,-3.9818,-3.8582,-3.8018,-3.7335,-3.4739,-3.4388,0.0,0.0,0.0,0.0,0.0,0.0,0.0,0.0,-3.6679,-3.8355,-3.882,-4.0457,-4.2052,-4.2943,-4.5902,-4.868,-5.0094,-5.2532,-5.453,-5.5338,-5.4164,-5.3453,-5.4164,-5.3491,-5.3549,-5.5068,-5.5203,-5.5338,-5.5684,-5.4799,-5.4241,-5.4241,-5.2606,-5.1577,-5.1423,-4.9106,-4.7952,-4.8105,-4.6605,-4.6278,-4.7115,-4.6259,-4.622,-4.6865,-4.599,-4.5594,-4.5594,-4.5594,-4.5594,-4.5594,-4.5594,-4.5594,-4.5594,-4.5594,-4.5594,-4.5594,-4.5594,-4.5056,-4.4297,0.0,0.0,0.0,0.0,0.0,-1.9906,-1.9906,-2.0779,-2.1677,-2.2342,-2.4801,-2.6459,-2.6364,-2.7867,-2.9175,-2.9926,-3.2474,-3.5425,-3.872,-4.099,-4.3937,-4.7865,-4.8948,-4.95,-4.9592,-5.1098,-5.1518,-5.0802,-5.2325,-5.3023,-5.2949,-5.3112,-5.3148,-5.3078,-5.3078,-5.3133,-5.3185,-5.3002,-5.2965,-5.3004,-5.2197,-5.1371,-5.049,-4.8912,-4.7297,-4.5608,-4.3369,-4.1805,-4.0703,-4.0205,-4.0251,-4.0557,-4.0663,-4.0592,-3.9838,-3.6583,-3.5638,-3.5261,-3.333,-3.4037,-3.5726,-3.7514,-3.7797,-3.8592,0.0,-4.2628,-4.2656,-4.4048,-4.4858,-4.5255,-4.495,-4.6753,-4.8921,-5.0837,-5.2387,-5.3645,-5.4511,-5.3818,-5.3241,-5.3337,-5.2577,-5.2423,-5.3395,-5.3491,-5.4107,-5.5588,-5.4241,-5.3356,-5.3356,-5.1741,-5.0471,-4.9702,-4.7971,-4.7394,-4.8086,-4.7221,-4.7163,-4.7971,-4.7144,-4.6817,-4.6865,-4.599,-4.5594,-4.5594,-4.5594,-4.5594,-4.5594,-4.5594,-4.5594,-4.5594,-4.5594,-4.5594,-4.5594,-4.5594,-4.5056,-4.4297,0.0,0.0,0.0,0.0,0.0,-1.9966,-1.9966,-2.0722,-2.1403,-2.1675,-2.3486,-2.473,-2.4641,-2.6514,-2.8137,-2.9005,-3.1763,-3.4878,-3.8194,-4.1285,-4.4378,-4.7461,-4.9774,-5.0565,-4.9629,-5.1628,-5.2307,-5.1499,-5.2637,-5.3185,-5.3185,-5.3185,-5.3185,-5.3185,-5.3185,-5.3185,-5.3185,-5.3185,-5.3185,-5.3133,-5.2307,-5.1224,-4.9866,-4.7719,-4.5333,-4.3004,-4.2174,-4.0907,0.0,-3.8436,-3.846,-3.8918,-3.8985,-3.8825,-3.8374,-3.7038,-3.6202,-3.5517,-3.4773,-3.5671,-3.7146,-3.8481,-3.9611,-4.0986,-4.3322,-4.3699,-4.3905,-4.5034,-4.5979,-4.6616,-4.6655,-4.8146,-4.9984,-5.1764,-5.2937,-5.3825,-5.4413,-5.3318,-5.2279,-5.1798,-5.0529,-5.0596,-5.2972,-5.3203,-5.3491,-5.4184,-5.3126,-5.2442,-5.2442,-5.0856,-4.9779,-4.9413,-4.824,-4.7759,-4.8105,-4.7778,-4.7778,-4.8086,-4.7269,-4.6904,-4.6865,-4.599,-4.5594,-4.5594,-4.5594,-4.5594,-4.5594,-4.5594,-4.5594,-4.5594,-4.5594,-4.5594,-4.5594,-4.5594,-4.5364,-4.503,0.0,0.0,0.0,0.0,0.0,-2.0259,-2.0026,-2.0538,-2.1111,-2.1569,-2.2707,-2.3643,-2.4112,-2.576,-2.7253,-2.8298,-3.0706,-3.3601,-3.705,-4.0621,-4.3842,-4.6636,-4.9701,-5.0914,-4.9939,-5.2087,-5.2821,-5.1995,-5.2821,-5.3185,-5.3185,-5.3185,-5.3185,-5.3185,-5.3185,-5.3185,-5.3206,-5.2968,-5.2876,-5.2766,-5.1481,-5.0141,-4.8581,-4.5681,-4.2879,-4.0443,-4.0131,-3.8852,-3.7149,-3.6005,-3.606,-3.6649,-3.6977,-3.71,-3.7077,-3.6739,-3.5937,-3.5271,-3.5746,-3.6895,-3.8337,-3.9867,-4.1607,-4.3322,-4.4666,-4.4942,-4.511,-4.5811,-4.6386,-4.6856,-4.7154,-4.8352,-4.9859,-5.1513,-5.2469,-5.3204,-5.371,-5.251,-5.126,-5.0433,-4.9009,-4.9067,-5.1548,-5.201,-5.2433,-5.3145,-5.2202,-5.1673,-5.1885,-5.0317,-4.9394,-4.9394,-4.8548,-4.8221,-4.8471,-4.8471,-4.8586,-4.8817,-4.799,-4.7471,-4.7201,-4.6105,-4.5729,-4.5951,-4.571,-4.5594,-4.5594,-4.5594,-4.5594,-4.5594,-4.5594,-4.5594,-4.5586,-4.5495,-4.5457,-4.5419,0.0,0.0,0.0,0.0,0.0,-2.0901,-2.0126,-2.0022,-2.0627,-2.2242,-2.2559,-2.3271,-2.4873,-2.5139,-2.5837,-2.7492,-2.8966,-3.1468,-3.5413,-3.8586,-4.1997,-4.5773,-4.8343,-5.0033,-5.0747,-5.2341,-5.2821,-5.1995,-5.2821,-5.3185,-5.3185,-5.3185,-5.3185,-5.3185,-5.3185,-5.3185,-5.3148,-5.2362,-5.2032,-5.1811,-4.9389,-4.7921,-4.6746,-4.2765,-4.0301,-3.8708,-3.6756,-3.4907,-3.3299,-3.2794,-3.316,-3.4086,-3.5575,-3.6702,-3.7184,-3.57,-3.4701,-3.4383,-3.5878,-3.7438,-3.9467,-4.281,-4.4387,-4.5723,-4.8097,-4.7745,-4.7038,-4.754,-4.6719,-4.5938,-4.5957,-4.6576,-4.7655,-4.9405,-5.0321,-5.1058,-5.1865,-5.126,-5.0423,-4.9529,-4.8644,-4.8144,-4.824,-4.9029,-5.0548,-5.301,-5.1664,-5.1087,-5.1865,-5.0317,-4.9394,-4.9394,-4.8548,-4.8509,-4.9356,-4.9356,-4.9779,-5.0616,-4.974,-4.8875,-4.8009,-4.6355,-4.6067,-4.6817,-4.597,-4.5594,-4.5594,-4.5594,-4.5594,-4.5594,-4.5594,-4.5594,-4.5568,-4.5232,-4.5126,-4.5074,0.0,0.0,0.0,0.0,0.0,0.0,-2.1762,-2.1722,-2.1937,-2.249,-2.3048,0.0,0.0,0.0,0.0,0.0,-2.8925,-3.1026,-3.4016,-3.7465,-4.0222,-4.2052,-4.5863,-4.8086,-4.8323,-4.9976,-5.093,-5.1206,-5.1481,-5.161,-5.161,-5.161,-5.161,-5.161,-5.161,-5.161,-5.1591,-5.1316,-5.0894,-5.0198,-4.77,-4.5699,-4.3758,-3.9914,-3.6791,-3.4212,0.0,-3.1846,-3.1688,-3.0068,-3.0404,-3.1574,-3.1899,-3.2962,-3.4039,-3.3957,-3.4661,-3.5807,-3.7453,-3.9944,-4.2693,-4.5227,-4.6925,-4.8192,-4.9016,-4.8682,-4.7871,-4.669,-4.6217,-4.5621,-4.4291,-4.4759,-4.6027,-4.8127,-4.9356,-5.0481,-5.1709,-5.2164,-5.1414,-4.8836,-4.8279,-4.7894,-4.7355,-4.8048,-4.9125,-5.0567,-5.0683,-5.1048,-5.1865,-5.1365,-5.0818,-5.0289,-4.9971,-4.9683,-4.9394,-4.9971,-5.0106,-4.9817,-4.8952,-4.8375,-4.8067,-4.6971,-4.6624,-4.6846,-4.597,-4.5594,-4.5594,-4.5594,-4.5594,-4.5594,-4.5594,-4.5457,-4.5232,-4.4896,-4.46,-4.4341,0.0,0.0,0.0,0.0,0.0,0.0,0.0,0.0,0.0,0.0,0.0,0.0,0.0,0.0,0.0,0.0,0.0,-3.0045,-3.2439,-3.5394,-3.7478,-3.852,-4.2242,-4.4581,-4.5154,-4.6501,-4.7591,-4.8366,-4.8624,-4.888,-4.9136,-4.9372,-4.9646,-4.9921,-4.9921,-4.9921,-4.9866,-4.9297,-4.8745,-4.7992,-4.5114,-4.285,-4.0811,-3.6891,-3.3923,0.0,-2.9396,-2.9177,-2.9762,-2.848,-2.8965,-3.0194,-3.0386,-3.1565,-3.3014,-3.3951,-3.5678,-3.7761,-3.987,-4.268,-4.5464,-4.7329,-4.8606,-4.9394,-4.9394,-4.8313,-4.691,-4.5523,-4.4683,-4.3805,-4.2486,-4.3066,-4.4345,-4.6248,-4.7621,-4.9118,-5.0988,-5.1334,-5.0798,-4.9221,-4.8759,-4.824,-4.7413,-4.8086,-4.8798,-4.9356,-5.0471,-5.1356,-5.1865,-5.2192,-5.1991,-5.1144,-5.1125,-5.0856,-5.0298,-5.0548,-5.0423,-4.9856,-4.8971,-4.874,-4.899,-4.7855,-4.7509,-4.774,-4.6567,-4.6067,-4.6028,-4.5729,-4.5594,-4.5594,-4.5594,-4.54,-4.5063,-4.472,-4.435,-4.3986,0.0,0.0,0.0,0.0,0.0,0.0,0.0,0.0,0.0,0.0,0.0,0.0,0.0,0.0,0.0,0.0,0.0,0.0,-3.0817,-3.2515,-3.4021,-3.5364,-3.7792,-3.9872,-4.1478,-4.2291,-4.3106,-4.3874,-4.4605,-4.5255,-4.5876,-4.6507,-4.7223,-4.7939,-4.7884,-4.7902,-4.781,-4.6214,-4.548,-4.5114,-4.1542,-3.9355,-3.7805,-3.3774,-3.1665,-3.0473,-2.7682,-2.7025,-2.7515,-2.7911,-2.8825,-2.9994,-3.1147,-3.2631,-3.4241,-3.5702,-3.7754,-4.012,-4.2998,-4.551,-4.7647,-4.9047,-4.9385,-4.9337,-4.9202,-4.6805,-4.4466,-4.4078,-4.2292,-4.0753,-4.0577,-4.148,-4.2643,-4.3841,-4.5242,-4.7129,-4.9759,-4.9149,-4.9009,-5.0577,-5.0106,-4.9279,-4.8336,-4.9067,-4.9586,-4.9529,0.0,-5.1942,-5.2019,-5.2856,-5.2933,-5.2058,-5.2019,-5.2,-5.1962,-5.1164,-5.077,-5.075,-4.9875,-4.9913,-5.0712,-4.8952,-4.8625,-4.9317,-4.7625,-4.6904,-4.6827,-4.5951,-4.5594,-4.5594,-4.5577,-4.5362,-4.5041,-4.4695,-4.4323,-4.3924,0.0,0.0,0.0,0.0,0.0,0.0,0.0,0.0,0.0,0.0,0.0,0.0,0.0,0.0,0.0,0.0,0.0,0.0,-3.0261,-3.1764,-3.276,-3.3118,-3.5338,-3.733,-3.8976,-3.9805,-4.0913,-4.2357,-4.2552,-4.266,-4.2687,-4.286,-4.2955,-4.2978,-4.2388,-4.2393,-4.275,-4.1088,-4.0363,-4.0025,-3.7104,-3.4918,-3.3135,-3.0804,-2.8963,-2.7498,-2.6695,-2.6678,-2.7052,-2.7111,-2.8908,-3.1483,-3.3547,-3.5139,-3.666,-3.8725,-4.0752,-4.2894,-4.5378,-4.7424,-4.8921,-4.9317,-4.9217,-4.8531,-4.663,-4.5245,-4.3748,-4.1581,-4.0966,-4.0349,-3.8884,-3.9454,-4.0832,-4.287,-4.4851,-4.7162,-5.0129,-5.1893,-5.2549,-5.1702,-5.2549,-5.2375,-5.024,-5.1375,-5.1972,-5.1308,-5.1654,-5.2462,-5.378,-5.4626,-5.4684,-5.3857,-5.3837,-5.353,-5.2876,-5.2029,-5.1587,-5.1587,-5.076,-5.0798,-5.1548,-4.9837,-4.9183,-4.9317,-4.7625,-4.6904,-4.6827,-4.5951,-4.5594,-4.5577,-4.5322,-4.5011,-4.4682,-4.429,-4.3927,-4.3631,0.0,0.0,0.0,0.0,0.0,0.0,0.0,0.0,0.0,0.0,0.0,0.0,0.0,0.0,0.0,0.0,0.0,0.0,0.0,-3.0812,-3.1314,-3.139,-3.2561,-3.3846,-3.5129,-3.5629,-3.6664,-3.829,-3.8221,-3.8489,-3.9037,-3.8918,-3.8985,-3.9194,-3.8649,-3.8663,-3.8915,-3.7546,-3.6909,0.0,0.0,-3.2207,-3.0683,-2.8714,-2.7257,-2.6189,-2.5635,-2.6344,-2.7759,-2.898,-3.0858,-3.3212,-3.6108,-3.7824,-3.9179,-4.1587,-4.38,-4.5918,-4.8009,-4.9798,-5.0846,-4.9937,-4.9308,-4.8174,-4.539,-4.3836,-4.2379,-4.0236,-3.9609,-3.8932,-3.7212,-3.7893,-3.9228,-4.0796,-4.3208,-4.6107,-4.9706,-5.1732,-5.301,-5.351,-5.4126,-5.3933,-5.251,-5.3222,-5.3568,-5.3087,-5.3049,-5.3472,-5.4453,-5.5261,-5.5318,-5.453,-5.4491,-5.4087,-5.3222,-5.2712,-5.2462,-5.2462,-5.126,-5.1125,-5.1865,-5.0567,-4.9971,-4.9894,0.0,-4.7778,-4.7355,-4.6528,-4.5951,-4.5568,-4.5232,-4.5112,-4.5036,-4.4281,-4.401,-4.3975,0.0,0.0,0.0,0.0,0.0,0.0,0.0,0.0,0.0,0.0,-2.4866,-2.4738,0.0,0.0,0.0,0.0,0.0,0.0,0.0,0.0,-3.0061,-3.019,-3.0204,-3.0586,-3.1381,-3.1458,-3.221,-3.3644,-3.3532,-3.415,-3.5426,-3.5195,-3.544,-3.605,-3.5771,-3.571,-3.5774,-3.4664,-3.4169,-3.3963,-3.1803,-3.0348,-2.9272,0.0,-2.613,-2.5668,-2.4789,-2.605,-2.8662,-3.196,-3.3677,-3.5056,-3.858,-4.0402,-4.1742,-4.4398,-4.6685,-4.8751,-5.054,-5.2037,-5.2606,-5.0466,-4.9172,-4.7643,-4.4587,-4.2331,-4.0548,-3.9431,-3.8397,-3.7273,-3.5863,-3.6801,-3.8017,-3.8655,-4.1301,-4.4762,-4.9067,-5.0348,-5.2106,-5.5472,-5.5357,-5.4991,-5.4991,-5.5107,-5.5058,-5.4765,-5.4746,-5.4718,-5.4664,-5.5318,-5.5376,-5.4684,-5.4664,-5.4241,-5.3376,-5.3376,-5.3376,-5.3356,-5.1664,-5.1298,-5.2038,-5.1125,-5.0712,-5.0654,-4.9779,-4.8971,-4.8221,-4.7394,-4.6587,-4.5821,-4.5475,-4.5571,-4.5731,-4.4543,-4.4352,-4.4617,0.0,0.0,0.0,0.0,0.0,0.0,0.0,0.0,0.0,0.0,-2.5239,-2.4798,0.0,0.0,0.0,0.0,0.0,0.0,0.0,0.0,0.0,-3.0117,-3.0176,-3.0586,-3.1381,-3.1416,-3.1905,-3.2886,-3.28,-3.2843,-3.3005,-3.2902,-3.2809,-3.2706,-3.1939,-3.1922,-3.2347,-3.0734,-3.0332,-3.0612,-2.9115,-2.7804,-2.6712,-2.6094,0.0,0.0,-2.5016,-2.5961,-2.7683,-3.3162,-3.5528,-3.6767,-4.0148,-4.2244,-4.408,-4.722,-4.8914,-5.0175,-5.2206,-5.2751,-5.2138,-4.9709,-4.7502,-4.5196,-4.2441,-4.0178,-3.8563,-3.8235,-3.7864,-3.7202,-3.5846,-3.6854,-3.8136,-3.8909,-4.1349,-4.4739,-4.9352,-5.0977,-5.2953,-5.6368,-5.728,-5.7646,-5.7646,-5.8242,-5.7908,-5.6212,-5.6071,-5.5899,-5.55,-5.5607,-5.5645,-5.5491,-5.5491,-5.5107,-5.428,-5.426,-5.426,-5.4241,-5.2529,-5.2135,-5.2933,-5.1395,-5.0712,-5.0654,-4.9779,0.0,-4.9106,-4.8259,-4.7606,-4.714,-4.679,-4.652,-4.6156,-4.5004,-4.4615,-4.4673,0.0,0.0,0.0,0.0,0.0,0.0,0.0,-2.5835,-2.6219,-2.6676,-2.6362,-2.5951,-2.5514,-2.6545,-2.7244,0.0,0.0,0.0,0.0,0.0,0.0,0.0,0.0,0.0,-3.0722,-3.0726,-3.1161,-3.2012,0.0,-3.1531,-3.1871,-3.1307,-3.0977,-3.0828,-3.0288,-3.0458,-3.1086,-2.971,-2.945,-2.9891,-2.851,-2.7167,-2.5936,0.0,0.0,0.0,-2.4531,-2.5868,-2.7806,-3.2156,-3.4492,-3.6449,-4.1601,-4.3849,-4.4916,-4.6431,-4.855,-5.0535,-5.104,-5.2349,-5.284,-4.9731,-4.7462,-4.5103,-4.1707,-3.9462,-3.8017,-3.7793,-3.7613,-3.7095,-3.583,-3.6428,-3.7446,-3.8478,-3.9185,-4.1811,-4.8115,-4.9087,-5.1113,-5.6376,-5.7357,-5.7973,-5.8838,-5.8896,-5.8364,-5.7118,-5.6646,-5.6017,-5.5132,-5.5262,-5.5489,-5.5684,-5.5703,-5.5511,-5.5126,-5.4703,-5.4703,-5.5107,-5.2933,-5.2577,-5.3799,-5.1664,-5.0933,-5.1279,-5.0433,-4.9817,-4.9375,-4.8952,-4.8394,-4.7761,-4.7213,-4.7132,-4.7161,-4.5818,-4.559,-4.5883,0.0,0.0,0.0,0.0,0.0,0.0,-2.5986,-2.6192,-2.6591,-2.7463,-2.7694,-2.7497,-2.669,-2.7115,-2.7467,0.0,0.0,0.0,0.0,0.0,0.0,0.0,0.0,0.0,0.0,0.0,0.0,-3.1111,-3.0481,0.0,0.0,0.0,0.0,0.0,-2.9645,-2.9926,-3.0507,-2.959,-2.9443,0.0,0.0,-2.7132,0.0,0.0,0.0,0.0,0.0,-2.5503,-2.776,-3.0755,-3.292,-3.5421,-4.1324,-4.3604,-4.4249,-4.5016,-4.7619,-5.0243,-5.0262,-5.2268,-5.3482,-4.9905,-4.746,-4.5002,-4.1412,-3.9042,-3.7548,-3.7381,-3.7397,-3.7041,-3.5612,-3.609,-3.7058,-3.8079,-3.7632,-3.9644,-4.6769,-4.7388,-4.9503,-5.5942,-5.706,-5.7934,-5.9627,-5.9204,-5.852,-5.7791,-5.6645,-5.5545,-5.4557,-5.4876,-5.5237,-5.5566,-5.5651,-5.5703,-5.5703,-5.5068,-5.5068,-5.5665,-5.351,-5.3164,-5.4414,-5.2029,-5.1298,-5.1865,-5.1048,-5.0308,-4.9683,-4.9856,-4.9471,-4.8718,-4.808,-4.8258,-4.866,-4.6831,-4.6673,-4.7241,0.0,0.0,0.0,0.0,0.0,0.0,-2.5986,-2.6717,-2.7479,-2.8366,-2.9014,-2.9111,-2.8363,-2.8301,-2.8294,0.0,0.0,0.0,0.0,0.0,0.0,0.0,0.0,0.0,0.0,0.0,0.0,-3.0224,-3.0084,0.0,0.0,0.0,0.0,0.0,0.0,-2.9728,-2.9775,-2.9443,0.0,0.0,0.0,0.0,0.0,0.0,0.0,0.0,0.0,-2.4422,-2.6514,-3.0065,-3.2352,-3.4235,-3.7292,-3.9283,-4.1215,-4.4917,-4.7333,-4.9469,-5.2551,-5.3619,-5.3068,-4.9803,-4.6376,-4.3223,-4.1087,-3.8174,-3.6033,-3.6434,-3.7131,-3.7004,-3.4889,-3.6296,-3.7896,-3.8303,-3.9118,-4.1392,-4.6304,-4.7991,-5.0473,-5.5239,-5.7223,-5.8838,-6.0512,-6.0608,-5.9901,-5.8275,-5.5938,-5.4555,-5.4509,-5.4876,-5.5121,-5.516,-5.5512,-5.5703,-5.5703,-5.5626,-5.5626,-5.5684,-5.4722,-5.4337,-5.4434,-5.2626,-5.1827,-5.1865,-5.1048,-5.0654,0.0,-5.1375,-5.1423,-5.0975,-5.0596,-5.0704,-5.0758,-4.8016,-4.7498,-4.8086,0.0,0.0,0.0,0.0,0.0,0.0,-2.6041,-2.6836,-2.7662,-2.8493,-2.923,-2.9523,-2.9195,-2.9092,-2.8886,-2.8427,-2.8661,0.0,0.0,0.0,0.0,0.0,0.0,0.0,0.0,0.0,-3.003,-3.0095,-3.0076,0.0,0.0,0.0,0.0,0.0,0.0,-2.9982,-3.0321,-2.959,0.0,0.0,0.0,0.0,0.0,0.0,0.0,0.0,0.0,0.0,-2.6015,-2.8689,-3.0376,-3.1677,-3.3433,-3.4936,-3.6613,-3.953,-4.3603,-4.7281,-4.7863,-5.0676,-5.2668,-4.94,-4.6008,-4.286,-4.0434,-3.7341,-3.513,-3.5679,-3.6468,-3.6771,-3.5938,-3.6841,-3.7954,-3.8738,-3.7614,-3.832,-4.3154,-4.3596,-4.5903,-5.2623,-5.4953,-5.7261,-6.0492,-6.08,-6.0176,-5.8741,-5.7405,-5.6272,-5.5276,-5.492,-5.4833,-5.5088,-5.5489,-5.5703,-5.5703,-5.5703,-5.5703,-5.5684,-5.4876,-5.4741,-5.5164,-5.3472,-5.2673,-5.2654,-5.2337,-5.1914,0.0,-5.2077,-5.2231,-5.2031,-5.1362,-5.1213,-5.1173,-4.9821,-4.9536,-4.9774,0.0,0.0,0.0,0.0,0.0,-2.5217,-2.6029,-2.6613,-2.7331,-2.8363,-2.8942,-2.9307,-2.9483,-2.9247,-2.8873,-2.8324,-2.8531,0.0,0.0,0.0,0.0,0.0,0.0,0.0,0.0,0.0,-2.9975,-3.0038,-3.0042,-3.0026,0.0,0.0,-2.9899,-2.9893,0.0,0.0,0.0,0.0,0.0,0.0,0.0,0.0,0.0,0.0,0.0,0.0,0.0,0.0,0.0,0.0,0.0,-3.0234,-3.1452,-3.2403,-3.3547,-3.6033,-4.0224,-4.4135,-4.4522,-4.7737,-5.045,-4.8292,-4.522,-4.2149,-3.9925,-3.6819,-3.4542,-3.4927,-3.5679,-3.6286,-3.632,-3.6931,-3.7828,-3.9102,-3.7201,-3.711,-4.1478,-4.16,-4.3646,-5.0106,-5.2538,-5.5204,-5.9137,-6.0181,-6.022,-5.9326,-5.8254,-5.7124,-5.5939,-5.4985,-5.4671,-5.5075,-5.5489,-5.5703,-5.5703,-5.5703,-5.5703,-5.5684,-5.5126,-5.5145,-5.5645,-5.4222,-5.3587,-5.3568,-5.3318,-5.2856,0.0,-5.2759,-5.2946,-5.288,-5.2034,-5.184,-5.1936,-5.111,-5.0949,-5.1114,0.0,0.0,0.0,0.0,0.0,-2.5103,-2.5978,-2.6,-2.6499,-2.809,-2.8191,-2.8425,-2.9219,-2.8584,-2.8077,-2.8017,-2.8856,0.0,0.0,0.0,0.0,0.0,0.0,0.0,0.0,0.0,-2.9832,-2.9897,-2.9897,-2.994,-3.0007,-2.994,-2.9897,-2.9888,0.0,0.0,0.0,0.0,0.0,0.0,0.0,0.0,0.0,0.0,0.0,0.0,0.0,0.0,0.0,0.0,0.0,0.0,0.0,-3.2352,-3.2945,-3.616,-3.8041,-4.002,-4.4408,-4.5683,-4.5883,-4.6298,-4.3644,-4.066,-3.9619,-3.6755,-3.4257,-3.4148,-3.4855,-3.5493,-3.5427,-3.6291,-3.7555,-3.9218,-3.8864,-3.9407,-4.2359,-4.3869,-4.5584,-4.8129,-5.0385,-5.3008,-5.6237,-5.871,-6.0099,-6.0084,-5.776,0.0,-5.6293,-5.5157,-5.4671,-5.5075,-5.5489,-5.5703,-5.5703,-5.5703,-5.5703,-5.5703,-5.5684,-5.5684,-5.5665,-5.4857,-5.4491,-5.4434,-5.3568,-5.3203,0.0,-5.3613,-5.3798,-5.3712,-5.2911,-5.3087,-5.3516,-5.1535,-5.1298,-5.1867,0.0,0.0,0.0,0.0,0.0,0.0,-2.5032,-2.5464,-2.616,-2.7261,-2.7817,-2.8404,-2.9222,-2.9021,-2.8619,-2.8044,-2.7844,0.0,0.0,0.0,0.0,0.0,0.0,0.0,0.0,-2.9782,-2.9885,-2.9897,-2.9984,-3.0026,-3.0007,-2.9972,-2.9888,-2.977,-2.9735,-2.9542,0.0,0.0,0.0,0.0,0.0,0.0,0.0,0.0,0.0,0.0,0.0,0.0,0.0,0.0,0.0,0.0,0.0,0.0,0.0,-3.3152,-3.5849,-3.875,-4.0111,-4.2254,-4.3887,-4.2889,-4.0899,-3.8769,-3.7232,-3.5232,-3.362,-3.345,-3.4159,-3.4945,-3.5385,-3.6222,-3.7222,-3.8304,-3.8403,-3.8567,-3.9221,-4.1918,-4.5053,-4.835,-5.4173,-5.8316,-5.9348,-6.013,-6.0578,-6.0578,-5.903,-5.7816,-5.7213,-5.631,-5.5455,-5.4705,-5.5343,-5.5703,-5.5703,-5.5703,-5.5703,-5.5703,-5.5703,-5.5703,-5.5684,-5.5434,-5.5011,-5.4511,-5.478,-5.4607,0.0,-5.4243,-5.4273,-5.4197,-5.333,-5.316,-5.3306,-5.2681,-5.2601,-5.2784,0.0,0.0,0.0,0.0,0.0,0.0,-2.4572,-2.4871,-2.5412,-2.6284,-2.675,-2.7324,-2.8138,-2.7943,-2.7535,-2.7038,-2.6346,0.0,0.0,0.0,0.0,0.0,0.0,0.0,-2.9111,-2.955,-2.9825,-2.9897,-2.998,-3.003,-3.0007,-2.9972,-2.9864,-2.9708,-2.9691,-2.9465,0.0,0.0,0.0,0.0,0.0,0.0,-2.4859,0.0,0.0,0.0,0.0,0.0,0.0,0.0,0.0,0.0,0.0,0.0,0.0,0.0,-3.4063,-3.6533,-3.7221,-3.896,-4.0505,-4.0246,-3.8771,-3.7094,-3.5955,-3.4413,-3.318,-3.3117,-3.361,-3.4359,-3.5407,-3.6162,-3.6946,-3.7957,-3.8287,-3.8402,-3.8409,-4.084,-4.4152,-4.8286,-5.4953,-5.9202,-5.9257,-6.02,-6.08,-6.08,-5.9166,-5.7946,-5.7399,-5.6297,-5.531,-5.4538,-5.5282,-5.5703,-5.5703,-5.5703,-5.5703,-5.5703,-5.5703,-5.5703,-5.5703,-5.5703,-5.5434,-5.4972,-5.5313,-5.519,0.0,-5.4367,-5.4238,-5.4153,-5.3462,-5.3185,-5.3185,-5.3185,-5.3185,-5.3185,0.0,0.0,0.0,0.0,0.0,0.0,0.0,-2.4257,-2.441,-2.5267,-2.5275,-2.552,-2.6406,-2.5824,-2.5358,-2.5293,-2.4674,0.0,0.0,0.0,0.0,0.0,0.0,0.0,-2.8288,-2.9101,-2.9644,-2.988,-2.9901,-2.9926,-2.9972,-2.9924,-2.9813,-2.9662,-2.9541,-2.9358,-2.9029,-2.7985,-2.6933,-2.5921,-2.5837,-2.5681,0.0,0.0,0.0,0.0,0.0,0.0,0.0,0.0,0.0,0.0,0.0,0.0,0.0,0.0,0.0,0.0,0.0,-3.5915,-3.6191,-3.8122,-3.7069,-3.5525,-3.551,-3.4181,0.0,-3.307,-3.3234,-3.3867,-3.5462,-3.6087,-3.678,-3.8067,-3.8444,-3.8808,-3.9453,-4.0883,-4.359,-4.8198,-5.3485,-5.676,-5.6766,-5.9218,-6.0762,-6.0704,-5.843,-5.7033,-5.6957,-5.5416,-5.455,-5.455,-5.5237,-5.5607,-5.5607,-5.5607,-5.5607,-5.5607,-5.5607,-5.5645,-5.5703,-5.5703,-5.5703,0.0,-5.5306,0.0,0.0,-5.4202,-5.3833,-5.3758,-5.3359,-5.3185,-5.3185,-5.3185,-5.3185,-5.3185,0.0,0.0,0.0,0.0,0.0,0.0,0.0,0.0,0.0,0.0,-2.522,-2.5509,-2.6334,-2.6304,-2.5949,0.0,0.0,0.0,0.0,0.0,0.0,0.0,0.0,0.0,-2.8202,-2.8521,-2.9024,-2.9753,-2.9839,-2.9883,-2.9851,-2.9823,-2.97,-2.9464,-2.9492,-2.8596,-2.7039,-2.6441,-2.5875,-2.54,-2.5685,-2.6042,0.0,0.0,0.0,0.0,-2.6808,-2.7085,0.0,0.0,0.0,0.0,0.0,0.0,0.0,0.0,-3.2313,-3.3568,-3.3971,0.0,-3.416,-3.4612,-3.4331,-3.3894,0.0,-3.3453,-3.3168,-3.3042,-3.3573,-3.4357,-3.5313,-3.6315,-3.7231,-3.7958,-3.8364,-3.8689,-3.8955,-4.3865,-4.8142,-5.0048,-5.5584,-5.8786,-5.7575,-5.9496,-6.0512,-5.9858,-5.8347,-5.7201,-5.6573,-5.555,-5.4966,-5.4966,-5.484,-5.478,-5.478,-5.478,-5.478,-5.478,-5.478,-5.5107,-5.5703,-5.5703,-5.5703,-5.5684,-5.5599,0.0,-5.5061,-5.4547,-5.4118,-5.3758,-5.3359,-5.3185,-5.3185,-5.3185,-5.3185,-5.3185,0.0,0.0,0.0,0.0,0.0,0.0,0.0,0.0,0.0,0.0,-2.4505,-2.4657,-2.5193,-2.523,-2.5066,0.0,0.0,0.0,0.0,0.0,0.0,0.0,0.0,-2.7062,-2.7681,-2.8493,-2.9176,-2.9754,-3.0194,-3.0364,-3.0319,-3.0706,-3.0555,-2.9911,-2.9126,-2.7875,-2.6363,-2.5832,-2.5302,-2.4888,-2.5604,0.0,0.0,0.0,0.0,0.0,-2.7304,-2.737,0.0,-2.7727,-2.8025,-2.8191,0.0,0.0,0.0,0.0,-3.1886,-3.2966,-3.3196,-3.3375,-3.3495,-3.3408,-3.3334,-3.3226,-3.3117,-3.3104,-3.3106,-3.3057,-3.3429,-3.4123,-3.5359,-3.6217,-3.7043,-3.799,-3.8725,-3.9536,-4.0675,-4.5289,-4.9345,-5.1405,-5.6019,-5.8854,0.0,-5.9701,-6.0118,-5.9243,-5.8001,-5.7019,-5.6437,-5.5578,-5.5088,-5.5088,-5.4703,-5.4491,-5.4491,-5.4107,-5.3812,-5.3633,-5.3633,-5.4074,-5.486,-5.4457,-5.4706,-5.5392,-5.4811,0.0,-5.4462,-5.4067,-5.3739,-5.3505,-5.3293,-5.3185,-5.3185,-5.3185,-5.3185,-5.3185,0.0,0.0,0.0,0.0,0.0,0.0,0.0,0.0,0.0,0.0,0.0,0.0,0.0,0.0,0.0,0.0,0.0,0.0,0.0,0.0,0.0,0.0,-2.5617,-2.654,-2.7028,-2.839,-2.9336,-2.9745,-3.0575,-3.0876,-3.0716,-3.1571,-3.1403,-3.0312,-2.8521,-2.7229,-2.637,-2.5608,-2.4985,-2.4617,-2.5642,0.0,0.0,0.0,0.0,0.0,0.0,0.0,0.0,-2.7873,-2.8264,-2.838,-2.8353,0.0,0.0,0.0,0.0,0.0,-3.282,-3.3211,-3.3466,-3.3422,-3.3286,-3.3147,-3.3147,-3.3057,-3.2979,-3.3024,-3.3163,-3.371,-3.5286,-3.6085,-3.693,-3.812,-3.9481,-4.1189,-4.3451,-4.6444,-4.9367,-5.2046,-5.5627,0.0,-5.8866,-5.946,-5.9492,-5.8678,-5.7491,-5.6675,-5.6313,-5.56,-5.5129,-5.5014,-5.4553,-5.4241,-5.4107,-5.3315,-5.2732,-5.2387,-5.2336,-5.2882,-5.3875,-5.306,-5.3575,-5.5037,0.0,0.0,-5.3777,-5.3424,-5.3251,-5.3185,-5.3185,-5.3185,-5.3185,-5.3185,-5.3185,-5.3185,0.0,0.0,0.0,0.0,0.0,0.0,0.0,0.0,0.0,0.0,0.0,0.0,0.0,0.0,0.0,0.0,0.0,0.0,0.0,0.0,0.0,-2.4917,-2.4711,-2.5261,-2.674,-2.7167,-2.8091,-2.9541,-3.0404,-3.046,-2.9737,-3.0538,-3.0387,-2.9351,-2.7651,-2.6767,-2.6465,-2.4952,-2.4614,-2.5158,-2.5991,0.0,0.0,0.0,0.0,0.0,0.0,0.0,0.0,-2.8071,-2.8367,-2.8406,-2.8523,0.0,0.0,0.0,0.0,0.0,-3.2231,-3.2769,-3.3352,-3.3466,-3.3448,-3.3419,-3.3364,-3.3289,-3.317,-3.2902,-3.3421,-3.4056,-3.4368,-3.6429,-3.8136,-3.8346,-4.1038,-4.3859,-4.6027,-4.9321,-5.1354,-5.0973,0.0,-5.809,-5.6893,-5.7818,-5.8293,-5.783,-5.6958,-5.6274,-5.5838,-5.5676,-5.5292,-5.4619,-5.3816,-5.3049,-5.2308,-5.1832,-5.1565,-5.1497,-5.1209,-5.2072,-5.3894,-5.3357,-5.3827,-5.5075,0.0,-5.4108,-5.3796,-5.3739,-5.3505,-5.3185,-5.3185,-5.3185,-5.3185,-5.3185,-5.3185,-5.3185,0.0,0.0,0.0,0.0,0.0,0.0,0.0,0.0,0.0,0.0,0.0,0.0,0.0,0.0,0.0,0.0,0.0,0.0,0.0,0.0,-2.3862,-2.4332,-2.4628,-2.5588,-2.73,-2.7964,-2.8697,-2.9502,-3.0344,-3.0548,-3.0151,-3.0429,-3.0305,-2.9806,-2.7672,-2.669,-2.6551,-2.4939,-2.4459,-2.4834,0.0,0.0,0.0,0.0,0.0,0.0,0.0,0.0,0.0,0.0,-2.8137,-2.851,-2.8574,0.0,0.0,0.0,0.0,0.0,-3.1688,-3.2265,-3.278,-3.3357,-3.3789,-3.3978,-3.3542,-3.4051,-3.4308,-3.3288,-3.4028,-3.4887,-3.4932,-3.7143,-3.9846,-4.261,-4.4873,-4.7077,-4.9347,-5.1061,-5.239,0.0,0.0,-5.6696,-5.6575,-5.6928,-5.6905,-5.6231,-5.6097,-5.5636,-5.4731,-5.4905,-5.4664,-5.3818,-5.2953,-5.2308,-5.1904,-5.1079,-5.0657,-5.0645,-5.0494,-5.1275,-5.2855,-5.216,-5.2774,-5.4363,0.0,-5.3441,-5.3484,-5.3484,-5.338,-5.3185,-5.3185,-5.3185,-5.3185,-5.3185,-5.3185,-5.3185,0.0,0.0,0.0,0.0,0.0,0.0,0.0,0.0,0.0,0.0,0.0,0.0,0.0,0.0,0.0,0.0,0.0,0.0,0.0,-2.3689,-2.3739,-2.3959,-2.4961,-2.6177,-2.7538,-2.8575,-2.9218,-2.9472,-3.0284,-3.0681,-3.0655,-3.0302,-3.0135,-3.0072,-2.7972,-2.7019,-2.6908,-2.5384,-2.4743,-2.479,0.0,0.0,0.0,0.0,0.0,0.0,0.0,0.0,0.0,0.0,0.0,0.0,0.0,0.0,0.0,-2.9197,-2.949,-2.9886,-3.0977,-3.1708,-3.2332,-3.3088,-3.3673,-3.4098,-3.4117,-3.4972,-3.5571,-3.4839,-3.562,-3.6432,-3.6514,-3.8458,-4.1594,-4.6248,-4.8159,-4.9925,-5.2493,-5.2821,-5.3592,-5.5629,-5.5482,-5.5566,-5.6426,-5.5944,-5.5412,-5.5025,-5.5066,-5.4731,-5.3847,-5.425,-5.401,-5.2933,-5.225,-5.1808,-5.1625,-5.0706,-5.0183,-5.0092,-4.9924,-5.0496,-5.1692,-5.1024,-5.175,-5.3479,-5.2921,-5.2873,-5.3185,-5.3185,-5.3185,-5.3185,-5.3185,-5.3185,-5.3167,-5.3004,-5.3041,-5.3167,0.0,0.0,0.0,0.0,0.0,0.0,0.0,0.0,0.0,0.0,0.0,0.0,0.0,0.0,0.0,0.0,0.0,0.0,0.0,-2.3596,-2.3877,-2.4698,-2.569,-2.6359,-2.6599,-2.7641,-2.859,-2.9412,-3.0209,-3.0575,-3.0513,-2.9676,-2.9259,-2.9167,-2.8367,-2.7953,-2.782,-2.6394,-2.5755,-2.5702,-2.5811,0.0,0.0,0.0,0.0,0.0,0.0,0.0,0.0,0.0,0.0,0.0,0.0,0.0,-2.8605,-2.8659,-2.9202,-2.983,-2.9992,-3.1125,-3.2328,-3.2515,-3.2575,-3.3135,-3.5407,-3.5948,-3.6518,-3.8465,-3.8989,-3.9147,-3.9214,-4.0783,-4.317,-4.6469,-4.9036,-5.1738,-5.4895,0.0,-5.5666,-5.6602,-5.604,-5.5603,-5.5688,-5.4314,-5.3863,-5.4912,-5.3977,-5.3497,-5.3771,-5.425,-5.3722,-5.2038,-5.1923,-5.1548,-5.0789,-5.0712,-5.0472,-5.0092,-4.9337,-4.9655,-5.0881,-5.0824,-5.1489,-5.2715,-5.2996,-5.3172,-5.3185,-5.3185,-5.3185,-5.3185,-5.3185,-5.3185,-5.3115,-5.2362,-5.2564,-5.3075,0.0,0.0,0.0,0.0,0.0,0.0,0.0,0.0,0.0,0.0,0.0,0.0,0.0,0.0,0.0,0.0,0.0,0.0,0.0,-2.3585,-2.3732,-2.4091,-2.5,-2.5808,-2.6486,-2.8044,-2.9031,-2.9409,-2.9704,-2.9821,-2.9757,-2.937,-2.9218,-2.9181,-2.8389,-2.8061,-2.799,-2.7046,-2.6624,-2.6614,-2.665,-2.6625,0.0,0.0,0.0,0.0,0.0,0.0,0.0,0.0,-2.7905,-2.8549,-2.8549,-2.89,-2.9355,-2.9355,-2.9554,-3.0007,-3.1048,-3.2173,-3.3065,-3.3163,-3.3911,-3.5038,-3.6611,-3.8068,-3.9195,-3.9549,-4.1174,-4.2577,-4.2665,-4.3685,-4.559,-4.8836,-5.102,-5.3078,-5.528,-5.5614,-5.5702,-5.6014,-5.5335,-5.4656,-5.4161,-5.3096,-5.2629,-5.311,-5.2699,-5.2489,-5.2622,-5.2793,-5.2106,-5.0394,-5.0875,-5.0741,-4.9894,-5.0442,-5.0624,-5.0472,-4.9905,-5.0024,-5.0738,-5.1001,-5.1527,-5.2261,-5.2923,-5.3185,-5.3185,-5.3185,-5.3185,-5.3185,-5.3185,-5.2894,-5.2417,-5.2105,-5.2179,-5.2417,0.0,0.0,0.0,0.0,0.0,0.0,0.0,0.0,0.0,0.0,0.0,0.0,0.0,0.0,0.0,0.0,0.0,0.0,-2.3573,-2.3528,-2.3533,-2.3623,-2.4399,-2.5321,-2.6403,-2.7941,-2.893,-2.9344,-2.9344,-2.9304,-2.9262,-2.924,-2.924,-2.9243,-2.8675,-2.8439,-2.8449,-2.7726,-2.7447,-2.7491,-2.7211,-2.71,0.0,0.0,0.0,0.0,0.0,0.0,0.0,0.0,-2.7731,-2.8492,-2.8518,-2.8949,-2.9515,-2.9821,-2.9888,-3.0197,-3.1601,-3.2589,-3.3291,-3.3588,-3.4881,-3.6625,-3.8563,-3.9603,-4.0454,-4.1473,-4.3632,-4.5242,-4.5022,-4.548,-4.6801,-4.9533,-5.1571,-5.339,-5.4987,-5.5207,-5.5115,-5.4858,-5.4124,-5.3335,-5.2527,-5.1701,-5.1334,-5.1591,-5.1502,-5.1459,-5.1514,-5.163,-5.113,-4.9856,-5.0276,-5.0296,-4.9817,-5.0276,-5.0565,-5.0702,-5.0283,-5.017,-5.0327,-5.0626,-5.1081,-5.1665,-5.2472,-5.2821,-5.2839,-5.3093,-5.3185,-5.3167,-5.2931,-5.2472,-5.194,-5.1426,-5.1389,-5.1573,0.0,0.0,0.0,0.0,0.0,0.0,0.0,0.0,-2.3736,-2.2998,-2.371,0.0,0.0,0.0,0.0,0.0,0.0,0.0,-2.3517,-2.3372,-2.336,-2.3494,-2.4075,-2.498,-2.627,-2.708,-2.8061,-2.92,-2.92,-2.92,-2.92,-2.9262,-2.9262,-2.92,-2.9262,-2.9347,-2.9346,-2.8486,-2.8221,-2.8351,-2.7472,-2.7127,-2.7219,0.0,0.0,0.0,0.0,0.0,0.0,0.0,-2.7338,-2.8505,-2.8587,-2.865,-2.8913,-2.9832,-3.0119,-3.0326,-3.1268,-3.204,-3.2803,-3.3623,-3.5092,-3.7386,-4.1387,-4.0236,-3.9739,-4.4748,-4.6488,-4.6837,-4.5937,-4.5865,-4.6434,-4.7971,-5.034,-5.2527,-5.4142,-5.4363,-5.4069,-5.328,-5.2472,-5.1665,-5.0875,-5.005,-4.9922,-5.0729,-5.0416,-5.0328,-5.067,-5.1063,-5.1086,-5.0673,-5.0294,-5.0264,-5.0664,-5.0294,-5.0294,-5.0702,-5.0283,-4.9898,-4.9498,-4.9583,-5.0051,-5.0839,-5.1646,-5.1995,-5.205,-5.2858,-5.3167,-5.3093,-5.2307,-5.1977,-5.1775,-5.0198,-5.0086,-5.0674,0.0,0.0,0.0,0.0,0.0,0.0,0.0,0.0,-2.32,-2.3477,-2.3454,0.0,0.0,0.0,0.0,0.0,0.0,0.0,-2.3573,-2.3395,-2.3313,-2.336,-2.3355,-2.3949,-2.5226,-2.691,-2.8268,-2.9262,-2.9315,-2.9334,-2.9262,-2.924,-2.9272,-2.9326,-2.9163,-2.9207,-2.938,-2.9066,-2.9037,-2.9139,-2.8886,-2.8475,-2.809,0.0,0.0,0.0,0.0,0.0,0.0,0.0,0.0,0.0,-2.8627,-2.9673,-3.0595,-3.0259,-3.0589,-3.125,-3.2052,-3.2443,-3.3078,-3.5055,-3.7176,-3.9218,-4.0993,-4.1217,-4.1735,-4.4236,-4.6449,-4.7295,-4.5205,-4.6341,-4.7939,-4.9002,-4.9829,-5.0877,-5.2491,-5.2215,-5.1793,-5.1555,-5.1298,-5.0839,-5.0013,-4.9187,-4.904,-4.9884,-4.9008,-4.8982,-5.0221,-4.9588,-4.8863,-4.8118,-4.8579,-4.8732,-4.8515,-4.9579,-5.0294,-5.0702,-5.0283,-4.9898,-4.9512,-4.9823,-5.0268,-5.0839,-5.1646,-5.1995,-5.1958,-5.1646,-5.1518,-5.1499,-5.1261,-5.0802,-5.0253,-4.9776,-4.9757,-4.9922,0.0,0.0,0.0,0.0,0.0,0.0,0.0,0.0,-2.2854,-2.3302,-2.3107,-2.317,0.0,0.0,0.0,0.0,0.0,0.0,-2.3494,-2.3289,-2.318,-2.318,-2.2863,-2.3322,-2.4646,-2.6816,-2.8236,-2.882,-2.9156,-2.9294,-2.9251,-2.9229,-2.924,-2.9272,-2.9119,-2.9156,-2.9359,-2.9294,-2.9349,-2.9492,-2.9472,-2.9212,-2.8886,0.0,0.0,0.0,0.0,0.0,0.0,0.0,0.0,0.0,-2.8649,-2.9635,-3.0471,-3.0258,-3.0356,-3.0821,-3.2248,-3.2627,-3.3261,-3.6064,-3.8328,-4.0223,-4.1637,-4.3064,-4.4419,-4.5585,-4.7145,-4.8011,-4.7109,-4.7423,-4.8214,-4.9352,-4.9592,-5.0051,-5.1334,-5.082,-5.0196,-4.9848,-4.9536,-4.9022,-4.8196,-4.7645,-4.7553,-4.8105,-4.7701,-4.7966,-4.9084,-4.8465,-4.7889,-4.7537,-4.7546,-4.7528,-4.7402,-4.8378,-4.907,-4.9466,-4.9718,-4.9529,-4.9003,-4.9433,-4.9879,-5.0343,-5.0841,-5.1224,-5.1463,-5.0655,-5.0508,-5.0765,-5.0453,-5.0013,-4.9555,-4.9225,-4.9077,-4.9077,0.0,0.0,-2.3657,-2.3853,0.0,0.0,0.0,0.0,-2.2699,-2.2699,-2.2751,-2.2855,0.0,0.0,0.0,0.0,0.0,0.0,0.0,-2.3132,-2.2977,-2.2982,-2.2659,-2.3093,-2.4385,-2.6688,-2.7917,-2.7958,-2.8796,-2.92,-2.92,-2.9189,-2.9182,-2.9207,-2.9115,-2.9197,-2.9373,-2.9251,-2.9299,-2.9482,-2.9423,-2.9443,-2.9492,-2.9433,0.0,0.0,0.0,0.0,0.0,0.0,0.0,0.0,-2.8672,-2.9019,-2.9267,-2.9898,-2.9622,-2.9634,-3.1955,-3.2597,-3.3421,-3.6776,-3.898,-4.0912,-4.3118,-4.5315,-4.7035,-4.7541,-4.8042,-4.8802,-4.9993,-4.8507,-4.7571,-4.904,-4.928,-4.9555,-5.0343,-4.9756,-4.8986,-4.8177,-4.7424,-4.6691,-4.5975,-4.5828,-4.581,-4.5883,-4.6507,-4.7058,-4.7508,-4.7469,-4.7588,-4.7947,-4.6909,-4.6532,-4.6979,-4.6989,-4.7226,-4.7662,-4.8729,-4.8823,-4.8117,-4.8677,-4.9191,-4.961,-4.961,-5.0014,-5.0637,-4.9831,-4.9903,-5.049,-4.9682,-4.9372,-4.928,-4.8398,-4.8141,-4.8196,0.0,0.0,-2.3062,-2.3788,0.0,0.0,0.0,0.0,0.0,-2.2699,0.0,0.0,0.0,0.0,0.0,0.0,0.0,0.0,0.0,-2.3205,-2.294,-2.2855,-2.2913,-2.3206,-2.3777,-2.5894,-2.6987,-2.7001,-2.8529,-2.9291,-2.9291,-2.9175,-2.9416,-2.9941,-2.9292,-2.9386,-2.9971,-2.9437,-2.9296,-2.9423,-2.9412,-2.9443,-2.9492,-2.9433,-2.9363,0.0,0.0,0.0,0.0,0.0,0.0,0.0,-2.8876,-2.9588,-2.9994,-2.9494,-2.9655,-3.0262,-3.1385,-3.2131,-3.3537,-3.7459,-4.1075,-4.3975,-4.5113,-4.5773,-4.5755,-4.4454,-4.6925,-4.8579,-4.6211,-4.6506,-4.7204,-4.7553,-4.7095,-4.6985,-4.7773,-4.7205,-4.6617,-4.6434,-4.6269,-4.6085,-4.592,-4.5333,-4.5223,-4.5847,-4.548,-4.5534,-4.6248,-4.5695,-4.538,-4.5482,-4.5231,-4.5417,-4.6065,-4.6687,-4.7327,0.0,-4.8003,-4.7722,-4.7301,-4.8723,-4.9446,-4.961,-4.961,-4.9702,-4.9794,-4.893,-4.8691,-4.8765,-4.7957,-4.7626,-4.7553,-4.6728,-4.6819,-4.7351,0.0,0.0,0.0,0.0,0.0,0.0,0.0,0.0,0.0,0.0,0.0,0.0,0.0,0.0,0.0,0.0,-2.3934,0.0,0.0,0.0,-2.3689,-2.3846,-2.3779,-2.401,-2.464,-2.6308,-2.7206,-2.7272,-2.8576,-2.9377,-2.9678,-2.9609,-2.9777,-3.0088,-2.9728,-2.9639,-2.9742,-2.9824,-2.9911,-2.9967,-2.9967,-2.9967,-2.994,-2.9549,-2.9349,-2.9146,-2.8301,0.0,0.0,0.0,0.0,0.0,0.0,0.0,-2.9623,-2.915,-2.9304,-2.9714,-3.01,-3.1378,-3.3665,-3.8157,-4.1717,-4.4342,-4.5149,-4.5333,-4.5168,-4.4565,-4.625,-4.7388,-4.5956,-4.614,-4.6544,-4.6544,-4.6177,-4.6049,-4.6471,-4.5828,-4.5333,-4.5333,-4.4984,-4.4745,-4.4745,-4.436,-4.4305,-4.4709,-4.4727,-4.4892,-4.5296,-4.4947,-4.4691,-4.4691,-4.4323,-4.4306,-4.4695,-4.5267,-4.5771,-4.6149,-4.6536,-4.6743,-4.678,-4.746,-4.7801,-4.7829,-4.7829,-4.8049,-4.8379,-4.7901,-4.7957,-4.8233,-4.7406,-4.7094,-4.7003,-4.6195,-4.6416,-4.7039,0.0,0.0,0.0,0.0,0.0,0.0,0.0,0.0,0.0,0.0,0.0,0.0,0.0,0.0,-2.4038,0.0,0.0,0.0,0.0,0.0,0.0,-2.502,-2.4743,-2.4961,-2.5777,-2.703,-2.7727,-2.7827,-2.8692,-2.9591,-3.0483,-3.0337,-3.033,-3.0394,-3.0508,-3.0289,-2.9843,-3.0491,-3.0713,-3.0593,-3.0593,-3.0457,-3.0209,-2.9596,-2.9294,-2.9104,-2.8434,-2.8191,-2.8164,-2.8164,0.0,0.0,0.0,0.0,-2.897,-2.8917,-2.8905,-2.8923,-2.9058,-3.101,-3.4069,-3.8395,-4.1201,-4.3075,-4.3901,-4.4067,-4.4323,-4.5112,-4.5498,-4.5902,-4.6562,-4.603,-4.548,-4.548,-4.548,-4.548,-4.548,-4.4911,-4.4488,-4.4488,-4.3901,-4.3515,-4.3515,-4.3515,-4.3515,-4.3515,-4.4121,-4.4488,-4.4488,-4.4488,-4.4488,-4.4488,-4.3846,-4.3531,-4.358,-4.3865,-4.4028,-4.4121,-4.505,-4.5659,-4.5969,-4.5638,-4.5645,-4.5902,-4.5902,-4.6287,-4.6892,-4.6892,-4.7297,-4.781,-4.7003,-4.6691,-4.6581,-4.5773,-4.5993,-4.6599,0.0,0.0,0.0,0.0,0.0,0.0,0.0,0.0,0.0,0.0,-2.434,-2.3911,0.0,0.0,0.0,-2.3287,-2.3973,-2.4055,-2.3125,0.0,0.0,-2.5216,-2.5256,-2.5429,-2.5781,-2.6935,-2.7548,-2.7554,-2.864,-3.0148,-3.1983,-3.1346,-3.1382,-3.1979,-3.2019,-3.2107,-3.2195,-3.1678,-3.1101,-3.0498,-3.0498,-3.0069,-2.9348,-2.9248,-2.9167,-2.9112,-2.8983,-2.892,-2.8851,-2.8787,-2.8775,0.0,0.0,0.0,-2.8834,-2.8893,-2.8905,-2.904,-2.9685,-3.2208,-3.52,-3.7294,-3.9108,-4.0579,-4.1389,-4.1572,-4.1811,-4.2616,-4.3901,-4.4874,-4.4984,-4.436,-4.3827,-4.3827,-4.3827,-4.3827,-4.3827,-4.3718,-4.3644,-4.3644,-4.357,-4.3515,-4.3515,-4.3515,-4.3515,-4.3515,-4.3606,-4.3644,-4.3644,-4.3644,-4.3644,-4.3644,-4.357,-4.3629,-4.3924,-4.3986,-4.4161,-4.4514,-4.4331,-4.4135,-4.3894,-4.3826,-4.458,-4.5902,-4.5902,-4.5957,-4.6067,-4.6067,-4.6122,-4.614,-4.5333,-4.5021,-4.4911,-4.4121,-4.4323,-4.5095,0.0,0.0,0.0,0.0,0.0,0.0,0.0,0.0,0.0,0.0,0.0,-2.4565,0.0,0.0,0.0,-2.394,-2.4492,-2.4967,-2.5103,-2.4342,-2.4712,-2.6556,-2.6279,-2.6372,-2.6956,-2.7682,-2.8124,-2.8221,-2.881,-2.9966,-3.1629,-3.2127,-3.2802,-3.3597,-3.359,-3.325,-3.2728,-3.3196,-3.2803,-3.1865,-3.2207,-3.19,-3.1166,-3.0711,-3.0492,-3.0562,-3.1434,-3.1115,-3.0357,-3.0721,-3.0251,-2.9442,-2.8992,0.0,0.0,0.0,-2.9132,-2.9745,-3.0998,-3.1793,-3.2865,-3.5402,-3.6967,-3.8212,-3.9478,-4.0102,-4.0671,-4.146,-4.2178,-4.2965,-4.3864,-4.3369,-4.2818,-4.2818,-4.2451,-4.2158,-4.2158,-4.2158,-4.2158,-4.2158,-4.2543,-4.2653,-4.2194,-4.2965,-4.3296,-4.2855,-4.324,-4.3515,-4.3515,-4.3515,-4.3515,-4.3515,-4.3515,-4.3563,-4.3726,-4.3726,-4.3804,-4.3992,-4.3804,-4.3646,-4.3515,-4.3515,-4.39,-4.4562,-4.4562,-4.48,-4.5241,-4.5241,-4.5498,-4.581,-4.5021,-4.4691,-4.4617,-4.3791,-4.4287,-4.5369,0.0,0.0,0.0,0.0,0.0,0.0,0.0,0.0,0.0,0.0,0.0,0.0,0.0,0.0,0.0,0.0,-2.5238,-2.5904,-2.6643,-2.5348,-2.5523,-2.766,-2.7218,-2.724,-2.7886,-2.8291,-2.8562,-2.8675,-2.887,-2.9801,-3.1424,-3.2548,-3.3857,-3.5266,-3.5168,-3.4583,-3.3734,-3.4859,-3.4532,-3.329,-3.4234,-3.3867,-3.2736,-3.2671,-3.2426,-3.2317,-3.3794,-3.3424,-3.2253,-3.2333,-3.1578,-3.0358,-2.9143,-2.8712,0.0,0.0,0.0,-2.9833,-3.0894,-3.0635,-3.0569,-3.282,-3.4358,-3.572,-3.7129,-3.8083,-3.8946,0.0,-4.0194,-4.0689,-4.2286,-4.2268,-4.2011,-4.2011,-4.148,-4.1095,-4.1095,-4.1095,-4.1095,-4.1095,-4.1627,-4.1772,-4.115,-4.2194,-4.2635,-4.2047,-4.2543,-4.2892,-4.2892,-4.3075,-4.3185,-4.3185,-4.3404,-4.3515,-4.3515,-4.3515,-4.3515,-4.3515,-4.3515,-4.3515,-4.3515,-4.3515,-4.3515,-4.3515,-4.3515,-4.3828,-4.4397,-4.4397,-4.4745,-4.5223,-4.4635,-4.4397,-4.436,-4.3956,-4.4562,-4.5571,0.0,0.0,0.0,0.0,0.0,0.0,0.0,0.0,0.0,0.0,0.0,0.0,-2.6476,-2.6497,-2.6212,-2.5419,-2.6027,-2.6482,-2.6588,-2.6447,-2.6812,-2.7839,-2.7853,0.0,-2.7903,-2.83,-2.844,-2.8327,-2.8706,-3.0051,-3.2237,-3.2384,-3.4105,-3.7057,-3.6736,-3.6456,-3.6233,-3.6684,-3.5791,-3.4194,-3.6085,-3.514,-3.2813,-3.4755,-3.4816,-3.4034,-3.5256,-3.5319,-3.4559,-3.2857,-3.226,-3.1756,-2.9368,-2.86,-2.8612,0.0,0.0,0.0,-2.802,-2.8852,-2.9804,-2.9326,-3.0967,-3.2933,-3.3848,-3.4674,-3.572,-3.7345,-3.7694,-3.819,-3.979,-4.0689,-4.115,-4.115,-4.1132,-4.1095,-4.1095,-4.1095,-4.1095,-4.1095,-4.1132,-4.115,-4.1095,-4.1168,-4.1205,-4.1168,-4.1187,-4.1224,-4.1224,-4.1956,-4.2359,-4.2359,-4.3094,-4.3515,-4.3515,-4.3515,-4.3515,-4.3515,-4.3515,-4.3515,-4.3515,-4.3515,-4.3515,-4.3515,-4.3515,-4.3533,-4.3552,-4.3552,-4.3588,-4.3608,-4.3588,-4.3552,-4.3662,-4.4378,-4.469,-4.4966,0.0,0.0,0.0,0.0,0.0,0.0,0.0,0.0,0.0,0.0,0.0,0.0,0.0,-2.7271,-2.6883,-2.5999,-2.6185,-2.658,-2.7081,-2.6894,-2.7091,-2.7855,-2.7968,-2.7971,-2.7839,-2.8187,-2.8367,-2.8353,-2.8687,-2.9496,-3.0784,-3.1801,-3.348,-3.5709,-3.7017,-3.7606,-3.7674,-3.8612,-3.7883,-3.6245,-3.7289,-3.6869,-3.5656,-3.6007,-3.5846,-3.5435,-3.5672,-3.4613,-3.2994,-3.199,-3.1963,-3.1892,-2.9128,-2.9344,-3.0323,-2.9026,-2.8675,-2.8748,-2.8972,-2.8662,-2.8487,-2.9275,-2.9742,-3.0355,-3.1687,-3.2684,-3.378,-3.5422,-3.5842,-3.6248,-3.7367,-3.8248,-3.8964,-3.9478,-3.8689,-3.8028,-3.8028,-3.8028,-3.8028,-3.8028,-3.8927,-3.9148,-3.812,-3.9884,-4.0673,-3.9643,-4.0508,-4.1095,-4.1095,-4.137,-4.1772,-4.2286,-4.2084,-4.1974,-4.1974,-4.2983,-4.3239,-4.2745,-4.324,-4.3515,-4.3515,-4.3515,-4.3515,-4.3515,-4.3515,-4.3515,-4.3515,-4.3515,-4.3515,-4.3515,-4.3515,-4.3515,-4.3606,-4.4415,-4.5039,-4.5626,0.0,0.0,0.0,-2.5641,0.0,-2.7275,-2.8533,-2.895,-2.9332,-2.9837,0.0,0.0,0.0,0.0,-2.79,-2.6951,-2.6807,-2.6979,-2.7437,-2.7292,-2.7398,-2.7886,-2.795,-2.7954,-2.7839,-2.8174,-2.8353,-2.8331,-2.8625,-2.9149,-2.993,-3.1225,-3.277,-3.4513,-3.6445,-3.7729,-3.8508,-3.9481,-3.8933,-3.7519,-3.904,-3.902,-3.8154,-3.8503,-3.8047,-3.7135,-3.6657,-3.5012,-3.2893,-3.17,-3.2155,-3.2647,-2.9438,-2.9619,-3.0682,-2.9065,-2.865,-2.8809,-2.9272,-2.863,-2.8015,-2.8819,-2.8811,-2.8846,-2.9947,-3.0706,-3.1636,-3.3254,-3.3492,-3.372,-3.4853,-3.5257,-3.5987,-3.7624,-3.7,-3.6303,-3.6303,-3.6303,-3.6395,-3.6684,-3.7643,-3.7881,-3.6813,-3.8634,-3.935,-3.7991,-3.8891,0.0,-3.9882,-4.0141,-4.0799,-4.1864,-4.137,-4.1095,-4.1095,-4.2158,-4.2433,-4.1919,-4.2708,-4.3094,-4.3112,-4.3386,-4.3515,-4.3515,-4.3515,-4.3515,-4.3515,-4.3515,-4.3515,-4.3515,-4.3515,-4.3663,-4.3993,-4.4819,-4.5608,-4.6416,-2.5243,-2.5382,-2.5603,-2.6394,-2.7091,-2.7795,-2.8559,-2.9324,-2.9862,-2.9943,0.0,0.0,0.0,0.0,0.0,-2.8287,-2.7898,-2.7674,-2.7597,-2.773,-2.7836,-2.7888,-2.7836,-2.7836,-2.7888,-2.8286,-2.8393,-2.8196,-2.8518,-2.9094,-2.9882,-3.0706,-3.2024,-3.3721,-3.5078,-3.6773,-3.8695,-3.9245,-3.8814,-3.8015,-4.1234,-4.1397,-3.9896,-4.2024,-4.1239,-3.8923,-3.8068,-3.6509,-3.4462,-3.1993,-3.2772,-3.4164,-3.0484,-2.948,-2.9498,-2.882,-2.8668,-2.8669,0.0,0.0,0.0,-2.7701,-2.8008,-2.8523,-2.8562,-2.8687,-2.9223,-3.0779,-3.0606,-3.0675,-3.2221,-3.1898,-3.243,-3.561,-3.6174,-3.6193,-3.6211,-3.6229,-3.6505,-3.7309,-3.7419,-3.7419,-3.7382,-3.7437,-3.7125,-3.6321,-3.6285,-3.6648,-3.7419,-3.8248,-3.9423,-4.0967,-4.1077,-4.1077,-4.1022,-4.1077,-4.1095,-4.1058,-4.1882,-4.2286,-4.2323,-4.3112,-4.3478,-4.3515,-4.3515,-4.3515,-4.3515,-4.3515,-4.3515,-4.3515,-4.3515,-4.3993,-4.48,-4.5608,-4.6416,-4.7223,-2.5248,-2.582,-2.6411,-2.7148,-2.7811,-2.8672,-2.9988,-3.0387,-3.0716,0.0,0.0,0.0,-3.0884,-2.992,-2.899,-2.8203,-2.8128,-2.7894,-2.7341,-2.7806,-2.8039,-2.7971,-2.8056,-2.8085,-2.806,-2.8209,-2.8291,-2.8273,-2.8453,-2.8677,-2.8982,-3.043,-3.1692,-3.2812,-3.4302,-3.6015,-3.7827,-3.8753,-3.9714,-4.0539,-3.9446,-3.8994,-3.8798,-3.7077,-3.5901,-3.4887,-3.2809,-3.1671,-3.0848,-2.8696,-3.0982,-3.4729,-3.4734,-3.2777,-3.0344,-2.9611,-2.9,-2.8531,-2.8471,0.0,0.0,0.0,0.0,0.0,-2.8059,-2.8282,-2.8606,-2.8963,-2.9582,-3.0135,-3.0389,-3.0958,-3.1633,-3.2288,-3.309,-3.3844,-3.4412,-3.4486,-3.4578,-3.4798,-3.5349,-3.5445,-3.4871,-3.5932,-3.6285,0.0,-3.5936,-3.6395,-3.6615,-3.7955,-3.8909,-3.935,-4.049,-4.0526,-3.9386,-4.0508,-4.0802,-4.023,-4.1056,-4.1754,-4.2304,-4.2525,-4.2947,-4.3515,-4.3515,-4.3515,-4.3515,-4.3515,-4.3515,-4.3515,-4.3515,-4.3993,-4.48,-4.5608,-4.6416,-4.7223,-2.6647,-2.7328,-2.7931,-2.835,-2.8983,-2.973,-3.0612,-3.1027,-3.1495,0.0,0.0,0.0,-3.1358,-3.0748,-2.9986,-2.9056,-2.8646,-2.8257,-2.7839,-2.7894,-2.7954,-2.8014,-2.7996,-2.7996,-2.8032,-2.8144,-2.8237,-2.83,-2.8427,-2.8518,-2.8636,-3.03,-3.1334,-3.1883,-3.3459,-3.495,-3.6379,-3.7303,-3.8304,-3.9277,-3.9662,-3.9425,-3.8669,-3.718,-3.5968,-3.4658,-3.1515,-3.0368,-2.9987,-2.7878,-2.9526,-3.3051,-3.6372,-3.4888,-3.1765,-3.0976,-3.0351,-2.9778,-2.9089,-2.8671,-2.8419,-2.8327,0.0,0.0,-2.8011,-2.7924,-2.7851,-2.7692,-2.8322,-2.8775,-2.8488,-2.9295,-3.0056,-3.014,-3.0822,-3.1689,-3.2656,-3.3091,-3.3421,-3.3752,-3.4509,-3.4821,-3.4344,-3.5169,-3.5422,-3.4564,-3.4981,-3.555,-3.6266,-3.7826,-3.8707,-3.8707,-3.9625,-3.9646,-3.8707,-3.9627,-3.9863,-3.9405,-4.0545,-4.1352,-4.1827,-4.2488,-4.3057,-4.3515,-4.3515,-4.3515,-4.3515,-4.3515,-4.3515,-4.3515,-4.3515,-4.4195,-4.5259,-4.5736,-4.6617,-4.7663,0.0,-2.9221,-2.9539,-2.9695,-3.0266,-3.0713,-3.0817,-3.1369,-3.2113,0.0,-3.2535,-3.2046,-3.1792,-3.1975,-3.1576,-3.0353,-2.9386,-2.8784,-2.8718,-2.8122,-2.7839,-2.8,-2.785,-2.7792,-2.7903,-2.8085,-2.8223,-2.83,-2.8401,-2.8559,-2.8763,-3.0283,-3.1025,-3.1202,-3.2709,-3.3941,-3.491,-3.5596,-3.5792,-3.6007,-4.0185,-4.0454,-3.8383,-3.883,-3.7792,-3.5601,-3.1983,-3.0801,-3.0717,-2.9277,-2.9173,-3.0644,-3.6339,-3.6055,-3.3407,-3.2295,-3.1938,-3.153,-2.9871,-2.8954,-2.844,-2.83,-2.8237,0.0,-2.8154,-2.771,-2.722,-2.6939,-2.7082,-2.7133,-2.6712,-2.7352,-2.8119,-2.8581,-2.9082,-2.9867,-3.1168,-3.1983,-3.2742,-3.344,-3.416,-3.4601,-3.4601,-3.4692,-3.4435,-3.3715,-3.3752,-3.4486,-3.6064,-3.7606,-3.8469,-3.856,-3.8652,-3.8707,-3.8707,-3.8707,-3.8707,-3.8726,-4.0249,-4.1003,-4.115,-4.2671,-4.3423,-4.3515,-4.3515,-4.3515,-4.3515,-4.3515,-4.3515,-4.3515,-4.3606,-4.4562,-4.5902,-4.5993,-4.7003,-4.8306,-2.9246,-2.9151,-2.9106,-3.0352,-3.0646,-3.0886,-3.1489,-3.1714,-3.2059,-3.2855,-3.3396,-3.3504,-3.2896,-3.2695,-3.2104,-3.0711,-3.0368,-2.9798,-2.8841,-2.8798,-2.8579,-2.8018,-2.8071,-2.8053,-2.7986,-2.8071,-2.8182,-2.83,-2.8277,-2.8703,-2.9572,-3.0445,-3.1211,-3.1931,-3.2889,-3.4086,-3.5371,-3.5698,-3.5588,-3.5218,-3.5419,-3.4924,-3.3814,-3.124,-2.9997,-2.945,-2.8081,-2.8383,-3.0008,-3.3783,-3.3349,-3.2071,-3.6839,-3.6525,-3.3881,-3.1264,-3.1128,-3.1321,-2.8959,-2.833,0.0,0.0,-2.8099,0.0,-2.785,-2.7901,-2.7754,-2.6916,-2.6868,-2.6685,-2.5686,-2.6364,-2.6804,-2.6006,-2.7211,-2.8876,-3.074,-3.1378,-3.1678,-3.1856,-3.2021,-3.21,-3.21,-3.2693,-3.3005,-3.2839,-3.344,-3.4229,-3.5206,-3.6229,-3.7055,-3.7713,-3.8358,-3.8707,-3.8707,-3.8707,-3.8707,-3.8707,-3.9662,-4.0469,-4.1132,-4.2103,-4.2892,-4.3515,-4.3515,-4.3515,-4.3515,-4.3515,-4.3515,-4.3552,-4.4213,-4.5057,-4.5975,-4.6636,-4.7461,-4.8306,-2.9951,-2.9851,-2.9816,-3.0988,-3.1449,-3.1771,-3.2149,-3.2565,-3.3102,-3.3859,-3.4717,-3.4829,-3.3725,-3.3874,-3.3477,-3.2067,-3.2163,-3.1668,-3.0144,-3.0372,-2.9945,-2.8605,-2.8578,-2.8372,-2.7911,-2.7971,-2.8042,-2.815,-2.8154,-2.8616,-2.9524,-3.0363,-3.1138,-3.1882,-3.2793,-3.4085,-3.5563,-3.4709,-3.4584,-3.4977,-3.542,-3.4659,-3.3051,-3.1089,-3.0136,-2.9726,-2.8743,-2.889,-3.0226,-3.4692,-3.4201,-3.2295,-3.5725,-3.6047,-3.4652,0.0,-3.1785,-3.1671,0.0,0.0,0.0,-2.7986,0.0,0.0,0.0,-2.7982,-2.7812,-2.6817,-2.6682,-2.6394,-2.5221,-2.5455,-2.5591,-2.4901,-2.5733,-2.6859,-2.8004,-2.9181,-3.0129,-3.073,-3.0797,-3.0962,-3.136,-3.2137,-3.2766,-3.3183,-3.394,-3.4564,-3.4986,-3.6211,-3.7088,-3.7492,-3.8285,-3.8707,-3.8707,-3.8707,-3.8909,-3.9313,-4.012,-4.0928,-4.1735,-4.2525,-4.3112,-4.3515,-4.3515,-4.3515,-4.3515,-4.3515,-4.3515,-4.3588,-4.4397,-4.5186,-4.5993,-4.6801,-4.7351,-4.7755,-3.0629,-3.0675,-3.0649,-3.144,-3.2173,-3.263,-3.261,-3.3359,-3.4215,-3.4954,-3.5755,-3.568,-3.4022,-3.4806,-3.4765,-3.3076,-3.382,-3.3636,-3.1933,-3.2074,-3.1463,-2.9724,-2.9402,-2.8873,-2.805,-2.8071,-2.8044,-2.7954,-2.8142,-2.8631,-2.9441,-3.0389,-3.1192,-3.1817,-3.2805,-3.3981,-3.5123,-3.3841,-3.3759,-3.4616,-3.5729,-3.5135,-3.3439,-3.234,-3.1849,-3.1608,-3.0343,-2.9897,-3.0477,-3.4011,-3.3533,-3.1878,-3.4415,-3.5284,0.0,0.0,0.0,0.0,0.0,0.0,0.0,0.0,0.0,-2.8243,0.0,0.0,0.0,-2.6943,0.0,0.0,0.0,0.0,0.0,0.0,0.0,0.0,0.0,-2.6587,0.0,-2.9284,-2.9399,-2.9722,-3.0577,-3.1702,-3.2779,-3.3733,-3.4399,-3.4766,-3.4766,-3.6358,-3.7272,-3.7272,-3.8193,-3.8707,-3.8707,-3.8707,-3.9038,-3.968,-4.0636,-4.1425,-4.2103,-4.3057,-4.3515,-4.3515,-4.3515,-4.3515,-4.3515,-4.3515,-4.3515,-4.3588,-4.4397,-4.5112,-4.5792,-4.6746,-4.7094,-4.7223,-3.1213,-3.098,-3.0627,-3.138,-3.2209,-3.2745,-3.261,-3.3439,-3.4352,-3.5073,-3.5835,-3.5435,-3.3186,-3.4778,-3.4919,-3.2198,-3.4237,-3.5128,-3.3775,-3.3247,-3.2592,-3.1707,-3.0699,-2.9766,-2.8881,-2.8757,-2.8406,-2.7818,-2.8421,-2.922,-3.0178,-3.1026,-3.1758,-3.2435,-3.3398,-3.3688,-3.3538,-3.4323,-3.4217,-3.3344,-3.2002,-3.2261,-3.3063,-2.9676,-2.959,-3.1082,-2.9638,-2.92,-2.977,0.0,-3.2332,-3.1004,0.0,-3.4704,-3.3854,-3.2561,0.0,0.0,0.0,0.0,0.0,0.0,-2.958,0.0,0.0,0.0,-2.795,-2.7783,0.0,0.0,0.0,0.0,0.0,0.0,0.0,0.0,-2.4392,-2.4571,-2.5232,-2.6494,-2.6549,-2.685,-2.7845,-3.0119,-3.2155,-3.3697,-3.388,-3.3935,-3.3935,-3.5532,-3.6431,-3.6431,-3.7918,-3.8707,-3.8707,-3.8707,-3.8762,-3.8854,-4.0361,-4.115,-4.1279,-4.28,-4.3515,-4.3515,-4.3515,-4.3515,-4.3515,-4.3515,-4.3515,-4.3588,-4.4397,-4.4746,-4.5021,-4.6544,-4.7094,-4.7223,-3.1378,-3.0902,-3.0613,-3.1862,-3.238,-3.2875,-3.3586,-3.4558,-3.5366,-3.578,-3.6111,-3.6069,-3.5483,-3.623,-3.5788,-3.3237,-3.4746,-3.4742,-3.2139,-3.2614,-3.2462,-3.1234,-3.0954,-3.0159,-2.8743,-2.8771,-2.8598,-2.8157,-2.8502,-2.9139,-3.0039,-3.0877,-3.1422,-3.1704,-3.2104,-3.2458,-3.2741,-3.2018,-3.2752,-3.4278,-3.2777,-3.3363,-3.4661,-2.9679,-2.8489,-2.9332,-2.8408,-2.8359,-2.8864,0.0,-3.0272,0.0,0.0,0.0,0.0,-3.2859,0.0,0.0,0.0,0.0,0.0,0.0,0.0,0.0,-2.9526,0.0,-2.7707,0.0,0.0,0.0,0.0,0.0,0.0,0.0,-2.3086,0.0,0.0,0.0,-2.4108,0.0,0.0,0.0,-2.8609,-2.9448,-3.0697,0.0,-3.3012,-3.3025,-3.3003,-3.5086,-3.6303,-3.6303,-3.7863,-3.8707,-3.8707,-3.8707,-3.8927,-3.9405,-4.0545,-4.1334,-4.1846,-4.2983,-4.3515,-4.3515,-4.3515,-4.3515,-4.3515,-4.3515,-4.3515,-4.3533,-4.3864,-4.4562,-4.5535,-4.6672,-4.7094,-4.7223,-3.1658,-3.123,-3.1094,-3.2278,-3.2825,-3.3522,-3.4776,-3.5591,-3.626,-3.6848,-3.6939,-3.693,-3.6939,-3.7644,-3.6949,-3.4028,-3.5382,-3.5018,0.0,-3.2711,-3.2612,-3.0878,-3.1323,-3.089,-2.93,-2.9244,-2.921,-2.9128,-2.8918,-2.9225,-3.0006,-3.0715,-3.1115,-3.1307,-3.1585,-3.1808,-3.1837,-3.0381,-3.1079,-3.3053,-3.19,-3.2378,-3.3422,-2.9866,-2.8248,-2.7822,-2.7296,-2.7538,-2.8014,-2.7508,-2.8558,0.0,-2.907,-3.0965,-3.3332,0.0,0.0,0.0,-3.2388,0.0,0.0,0.0,0.0,0.0,0.0,0.0,0.0,0.0,0.0,0.0,0.0,0.0,0.0,0.0,0.0,-2.2725,0.0,-2.2868,0.0,0.0,0.0,0.0,0.0,-2.8524,-2.9307,0.0,0.0,-3.2085,-3.2716,-3.4755,-3.6127,-3.6597,-3.7973,-3.8707,-3.8707,-3.8707,-3.9093,-3.9916,-4.0726,-4.1517,-4.2323,-4.313,-4.3515,-4.3515,-4.3515,-4.3515,-4.3515,-4.3515,-4.3515,-4.3515,-4.3515,-4.4342,-4.5681,-4.647,-4.6764,-4.6911,-3.2199,-3.2337,-3.23,-3.2471,-3.3679,-3.4968,-3.5989,-3.6187,-3.6762,-3.8318,-3.852,-3.7895,-3.6209,-3.8535,-3.8415,-3.3909,-3.6159,-3.6857,-3.4518,-3.449,-3.3566,-3.1378,-3.2154,-3.2209,-3.123,-3.0644,-3.0571,-3.1004,-2.9912,-2.9746,-3.0484,-3.0768,-3.122,-3.1837,-3.2857,-3.2261,-3.0478,-3.0591,-2.9641,-2.7958,-2.7198,-2.6945,-2.7248,0.0,-2.8993,-2.7059,-2.6525,0.0,0.0,-2.7442,-2.7549,0.0,0.0,0.0,0.0,0.0,0.0,0.0,0.0,0.0,0.0,-3.3254,0.0,0.0,0.0,0.0,-2.7496,0.0,0.0,0.0,0.0,0.0,0.0,0.0,0.0,0.0,0.0,0.0,0.0,0.0,0.0,0.0,0.0,-2.6983,-2.8233,0.0,0.0,0.0,-3.352,-3.441,-3.5659,-3.7419,-3.8267,-3.8707,-3.8707,-3.8707,-3.9093,-3.9916,-4.0726,-4.1517,-4.2323,-4.313,-4.3515,-4.3515,-4.3515,-4.3515,-4.3515,-4.3515,-4.3515,-4.3515,-4.3515,-4.4011,-4.4838,-4.5645,-4.5938,-4.6159,-3.2744,-3.3322,-3.3766,-3.3808,-3.3905,-3.4453,-3.5843,-3.6913,-3.7524,-3.7583,-3.7675,-3.7434,-3.6623,-3.7388,-3.7137,-3.5062,0.0,-3.4908,-3.3165,-3.3151,0.0,-3.0586,-3.1927,-3.2178,0.0,-3.1151,-3.1749,-3.2884,-3.1472,-3.105,-3.1571,-3.1517,-3.1301,-3.0968,-3.1462,-3.0335,-2.8134,-2.8909,-2.8751,-2.797,-2.833,-2.9454,-3.0614,0.0,-2.6798,-2.5828,-2.5735,-2.5899,0.0,-2.6738,-2.7182,-2.7671,-2.8253,-2.9496,-3.0851,-3.13,-3.1886,0.0,0.0,0.0,-3.2423,-3.228,0.0,0.0,0.0,0.0,0.0,0.0,0.0,0.0,0.0,0.0,0.0,0.0,0.0,0.0,0.0,0.0,0.0,0.0,0.0,0.0,0.0,0.0,0.0,0.0,0.0,0.0,0.0,-3.3858,-3.5721,-3.7456,-3.8799,-3.9478,-3.9478,-4.0029,-4.0416,-4.0708,-4.1515,-4.2047,-4.2323,-4.313,-4.3515,-4.3515,-4.3515,-4.3515,-4.3515,-4.3515,-4.3515,-4.3515,-4.3515,-4.3663,-4.4066,-4.5406,-4.625,-4.6837,-3.3344,-3.3977,-3.4527,-3.4571,-3.4686,-3.5312,-3.6894,-3.7498,-3.8087,-3.8975,-3.821,-3.7689,-3.7963,-3.7725,-3.7006,0.0,-3.4926,-3.3997,-3.2787,-3.2734,0.0,-3.0173,-3.1633,-3.1978,0.0,0.0,-3.2365,-3.3766,-3.2631,-3.2205,-3.2442,-3.1942,-3.1431,-3.0985,-3.1094,-3.0248,-2.8682,-2.8308,-2.8158,-2.825,-2.9216,-3.0513,0.0,0.0,-2.6984,-2.6298,0.0,-2.508,-2.5599,-2.609,-2.6701,-2.7285,-2.7525,-2.8742,-3.0075,-3.0149,-3.101,-3.195,-3.2079,-3.2124,0.0,-3.1358,-3.1779,0.0,-3.0908,0.0,0.0,0.0,0.0,0.0,0.0,0.0,0.0,0.0,0.0,0.0,0.0,-2.2808,0.0,0.0,0.0,0.0,0.0,0.0,0.0,0.0,0.0,0.0,0.0,0.0,-3.5135,-3.7437,-3.9071,-3.99,-3.99,-4.0708,-4.1242,-4.1534,-4.2047,-4.2451,-4.2745,-4.3259,-4.3515,-4.3515,-4.3515,-4.3515,-4.3515,-4.3515,-4.3515,-4.3515,-4.3515,-4.3663,-4.4085,-4.5406,-4.6599,-4.759,-3.4035,-3.4364,-3.4617,-3.4776,-3.5982,-3.746,-3.8955,-3.8043,-3.8472,-4.2159,-3.9984,-3.8597,-3.9927,-3.9255,-3.787,-3.5748,-3.4967,-3.4266,-3.3499,-3.3368,0.0,0.0,-3.1348,-3.1666,-3.0824,0.0,0.0,0.0,-3.3389,-3.3196,-3.3163,-3.2052,-3.1627,-3.1815,-3.1799,-3.1838,-3.1772,-2.8879,-2.796,-2.8474,-2.9298,-2.9724,-2.9848,-2.974,-2.9297,-2.8323,-2.4949,-2.4489,-2.5487,-2.562,-2.6093,-2.6761,-2.736,-2.757,-2.76,-2.76,-2.76,-2.7886,-2.9209,-3.0463,-3.1275,-3.0624,0.0,0.0,0.0,0.0,-2.9326,0.0,0.0,0.0,0.0,0.0,0.0,0.0,0.0,0.0,0.0,0.0,-2.2959,0.0,0.0,0.0,0.0,0.0,0.0,0.0,0.0,0.0,0.0,0.0,-3.3977,-3.7401,-3.9108,-3.9974,-4.0026,-4.0818,-4.159,-4.2359,-4.2359,-4.2746,-4.3462,-4.3497,-4.3462,-4.3427,-4.3479,-4.3479,-4.3462,-4.3497,-4.3515,-4.3515,-4.3515,-4.4011,-4.4874,-4.5663,-4.6948,-4.8306,-3.4825,-3.5058,-3.5425,-3.6027,-3.6975,-3.797,-3.8901,0.0,0.0,-4.1416,-3.9586,-3.8235,-3.8323,-3.7156,-3.6365,-3.6322,-3.5214,0.0,0.0,0.0,0.0,-3.0261,-3.1026,-3.1281,-3.0803,-3.2059,-3.3493,-3.5029,0.0,-3.4396,-3.4183,-3.2702,-3.2026,-3.2012,-3.176,-3.1559,-3.1334,-3.0306,-2.8816,-2.7021,-2.6264,-2.7237,-2.8983,0.0,-2.7914,-2.9239,-2.6607,-2.594,-2.6283,-2.6321,-2.6806,-2.7285,-2.6971,-2.721,-2.76,-2.76,-2.76,-2.7785,-2.8641,-2.9104,-2.9427,-2.9685,-3.0738,-3.1435,0.0,0.0,0.0,0.0,0.0,0.0,0.0,0.0,0.0,0.0,0.0,0.0,0.0,0.0,0.0,-2.3231,0.0,0.0,0.0,0.0,0.0,0.0,0.0,0.0,0.0,0.0,0.0,-3.7401,-3.9643,-4.1093,-4.168,-4.247,-4.2983,-4.3185,-4.3185,-4.3103,-4.292,-4.3322,-4.3051,-4.2286,-4.3123,-4.3268,-4.2939,-4.3339,-4.3515,-4.3515,-4.3515,-4.436,-4.57,-4.6507,-4.7424,-4.8306,-3.5108,-3.5222,-3.5658,-3.638,-3.7501,0.0,-3.8891,-3.8913,0.0,-4.0111,-3.8115,0.0,-3.7235,-3.625,-3.5548,-3.569,-3.4698,0.0,-3.412,0.0,0.0,-3.0826,-3.0822,-3.0361,-2.9284,-3.1091,0.0,-3.3582,-3.4216,-3.4598,-3.4738,-3.3606,-3.29,-3.2626,-3.2465,-3.2565,-3.274,-3.1107,-2.9859,-2.892,-2.734,-2.7847,0.0,-2.8171,-2.8009,-2.8282,-2.6963,-2.6544,-2.6587,-2.6587,-2.7061,-2.7525,-2.7165,-2.73,-2.76,-2.76,-2.76,-2.7675,-2.8064,-2.8143,-2.8246,-2.8581,-2.9448,-3.0064,-2.9626,-3.0315,-3.087,0.0,0.0,0.0,0.0,0.0,0.0,0.0,0.0,0.0,0.0,0.0,0.0,0.0,-2.3403,0.0,0.0,0.0,0.0,0.0,0.0,0.0,0.0,0.0,0.0,-3.5656,-3.8291,-3.983,-4.0199,-4.1904,-4.2753,-4.2772,-4.3014,-4.2865,-4.2322,-4.2884,-4.2657,-4.1853,-4.2752,-4.2976,-4.275,-4.3268,-4.3515,-4.3535,-4.3981,-4.4709,-4.5618,-4.6468,-4.7275,-4.7858,-3.5236,-3.5345,-3.5679,-3.6083,-3.7751,0.0,0.0,-3.7718,0.0,-3.8959,0.0,-3.5321,-3.666,-3.5946,-3.51,-3.4444,-3.3739,-3.3321,-3.3244,-3.2125,-3.1389,-3.123,-3.0496,-2.9204,-2.7347,-2.9461,-3.0808,0.0,-3.2984,-3.4276,-3.5171,-3.4462,-3.3896,-3.3397,-3.3355,-3.3774,-3.4316,-3.1312,-3.0663,-3.1454,-2.9741,-2.9383,-2.9904,-2.9997,-2.8662,-2.6746,-2.6746,-2.6746,-2.6731,-2.6641,-2.7061,-2.7585,-2.7495,-2.7525,-2.76,-2.76,-2.76,-2.76,-2.76,-2.76,-2.76,-2.76,-2.7993,-2.8367,-2.8367,-2.8803,-2.9339,-2.9935,-2.9909,-3.0148,0.0,0.0,0.0,0.0,0.0,0.0,0.0,0.0,0.0,0.0,0.0,0.0,0.0,0.0,0.0,0.0,0.0,0.0,0.0,0.0,0.0,-3.3556,-3.6322,-3.7882,-3.8113,0.0,-4.181,-4.181,-4.2322,-4.2282,-4.1725,-4.2302,-4.2203,-4.1617,-4.2282,-4.2577,-4.2635,-4.3178,-4.3427,-4.3591,-4.4497,-4.491,-4.5081,-4.5856,-4.6575,-4.7084,-3.6181,-3.6593,-3.6497,-3.5013,0.0,-3.9214,-3.5793,-3.7757,-3.9657,-3.9806,-3.7835,-3.6506,-3.6783,-3.5536,-3.4429,-3.3724,-3.3066,0.0,0.0,0.0,0.0,-2.9875,-2.913,-2.8266,-2.7326,-2.868,-3.0366,-3.2352,-3.2886,-3.4178,-3.6111,-3.4598,-3.386,-3.3846,-3.3261,-3.2607,-3.1879,-3.0788,0.0,-2.8334,-2.7446,-2.7163,-2.7329,-2.7886,-2.7821,-2.742,-2.742,-2.742,-2.7345,-2.6806,-2.7061,-2.7495,-2.6956,-2.7151,-2.76,-2.76,-2.76,-2.76,-2.76,-2.76,-2.76,-2.76,-2.7685,-2.776,-2.776,-2.7845,-2.8076,-2.8685,-2.8411,-2.8658,-3.0587,0.0,0.0,0.0,0.0,0.0,0.0,0.0,0.0,0.0,0.0,-2.5578,0.0,0.0,0.0,0.0,0.0,0.0,0.0,0.0,0.0,0.0,-3.6512,0.0,0.0,0.0,-4.181,-4.181,-4.1916,-4.1678,-4.1162,-4.1721,-4.1375,-4.0458,-4.1508,-4.1958,-4.2,-4.2598,-4.3105,-4.3536,-4.3936,-4.4462,-4.4985,-4.4805,-4.5217,-4.5883,-3.7253,-3.716,-3.7026,-3.6821,0.0,0.0,0.0,-3.7909,-3.8492,-3.7281,-3.6261,-3.5477,-3.5141,-3.4755,-3.4099,-3.308,-3.2377,-3.169,-3.1017,-3.0073,-2.9354,-2.9057,-2.8664,-2.7984,-2.6963,-2.7744,-2.9536,-3.233,-3.2336,-3.3794,-3.6581,-3.567,-3.4961,-3.4413,-3.3164,-3.2797,-3.2983,0.0,0.0,-2.8417,-2.711,-2.6821,-2.7151,-2.748,-2.76,-2.76,-2.76,-2.76,-2.754,-2.7225,-2.733,-2.754,-2.7225,-2.7345,-2.76,-2.76,-2.76,-2.76,-2.76,-2.76,-2.76,-2.76,-2.76,-2.76,-2.76,-2.76,-2.776,-2.8383,-2.8018,-2.8057,-2.9599,-2.9073,0.0,0.0,0.0,0.0,0.0,0.0,-2.4251,0.0,0.0,0.0,0.0,0.0,0.0,0.0,0.0,-2.4819,-2.6051,0.0,0.0,0.0,0.0,0.0,0.0,0.0,0.0,-3.9951,-4.0879,-4.1036,-4.0556,-4.1082,-4.0891,-4.0146,-4.0967,-4.1335,-4.1402,-4.2322,-4.3268,-4.4124,-4.3996,-4.4414,-4.5049,-4.4654,-4.4727,-4.5062,-3.773,-3.7544,0.0,0.0,-3.8783,-3.8805,-3.8175,-3.7841,-3.6937,-3.4958,-3.4728,-3.4382,-3.3589,-3.3963,-3.3739,-3.2392,-3.1675,-3.1002,-3.0357,-2.9235,-2.8532,-2.8382,-2.8347,-2.7771,-2.6626,-2.6953,-2.8644,-3.1659,-3.1729,-3.3304,-3.63,-3.6516,-3.5858,0.0,0.0,0.0,0.0,0.0,-2.8285,-2.8688,-2.7338,-2.7136,-2.76,-2.76,-2.76,-2.76,-2.76,-2.76,-2.76,-2.76,-2.76,-2.76,-2.76,-2.76,-2.76,-2.76,-2.76,-2.76,-2.76,-2.76,-2.76,-2.76,-2.76,-2.76,-2.76,-2.76,-2.7735,-2.8213,-2.8042,-2.7966,-2.857,-2.8433,0.0,0.0,0.0,0.0,0.0,0.0,0.0,0.0,0.0,0.0,-2.5055,0.0,0.0,0.0,0.0,-2.488,-2.6449,-2.641,-2.7767,0.0,0.0,-3.4356,-3.5219,0.0,-3.9346,-3.8625,-4.0051,-4.0521,-4.0121,-4.0546,-4.0497,-4.0121,-4.0552,-4.0803,-4.0995,-4.2062,-4.3222,-4.4268,-4.3788,-4.4173,-4.4951,-4.4509,-4.4462,-4.4615,0.0,0.0,0.0,0.0,0.0,-4.023,-3.7157,-3.7172,-3.701,-3.5587,-3.5415,-3.4921,-3.3634,-3.3544,-3.3051,-3.1705,-3.0972,-3.0328,-2.9726,-2.8996,-2.8323,-2.772,-2.768,-2.7335,-2.6626,-2.6633,-2.7864,0.0,-3.1363,-3.283,0.0,-3.5983,0.0,0.0,0.0,0.0,0.0,-2.9175,-2.8308,-2.6909,-2.734,-2.754,-2.76,-2.76,-2.76,-2.76,-2.76,-2.76,-2.76,-2.76,-2.76,-2.76,-2.76,-2.76,-2.76,-2.76,-2.76,-2.76,-2.76,-2.76,-2.76,-2.76,-2.76,-2.76,-2.76,-2.76,-2.7625,-2.766,-2.8067,-2.8269,-2.7729,-2.8186,-2.839,0.0,0.0,0.0,0.0,0.0,-2.4365,-2.3901,0.0,0.0,-2.6403,-2.5951,0.0,0.0,-2.4807,-2.4724,-2.5919,-2.6069,-2.833,-3.3144,0.0,-3.4614,-3.9211,-3.8738,-3.8962,-3.9918,-4.0103,-4.0146,-4.0096,-4.0146,-4.0146,-4.0096,-4.0146,-4.0449,-4.0949,-4.1599,-4.236,-4.3026,-4.2475,-4.3145,-4.4309,-4.3715,-4.3978,-4.4615,0.0,0.0,0.0,0.0,0.0,0.0,0.0,-3.5966,-3.5194,-3.5462,-3.5145,-3.4532,-3.3589,-3.314,-3.2512,-3.1585,-3.0882,-3.0407,-3.0147,-2.9484,-2.879,-2.818,-2.814,-2.7847,-2.721,-2.6821,-2.7956,0.0,0.0,0.0,0.0,0.0,0.0,0.0,0.0,-3.0342,-2.9919,-2.8358,-2.7538,-2.7225,-2.748,-2.76,-2.76,-2.76,-2.76,-2.76,-2.76,-2.7869,-2.8188,-2.8188,-2.7944,-2.76,-2.76,-2.76,-2.76,-2.76,-2.76,-2.76,-2.76,-2.76,-2.76,-2.76,-2.76,-2.76,-2.76,-2.76,-2.76,-2.76,-2.8091,-2.8314,-2.7677,-2.811,-2.8607,0.0,0.0,0.0,0.0,0.0,0.0,-2.6587,0.0,-2.6996,0.0,-2.6503,0.0,0.0,0.0,-2.4351,-2.5418,-2.6557,0.0,-3.1947,0.0,-3.5356,-3.7424,-3.8655,-3.9161,-3.8962,-3.9722,-4.0096,-4.0096,-4.0096,-4.0096,-4.0096,-4.0096,-4.0417,-4.0926,-4.1155,-4.2188,-4.3562,-4.299,-4.3677,-4.4949,-4.4354,-4.4316,-4.4615,-3.7437,0.0,-3.7388,0.0,-3.6662,-3.5938,-3.7032,-3.5108,-3.3844,-3.4786,-3.4322,-3.3799,-3.3529,-3.2901,-3.2213,-3.157,-3.1094,-3.0732,-3.0505,-3.0006,-2.9363,-2.855,-2.8487,0.0,-2.761,-2.7151,-2.7936,-3.0084,-3.1949,0.0,0.0,0.0,0.0,0.0,-2.979,-2.9343,-2.9936,-2.7791,-2.7165,-2.76,-2.76,-2.76,-2.7615,-2.7824,-2.7899,-2.7929,-2.8124,-2.8378,-2.8607,-2.8607,-2.8278,-2.7899,-2.7899,-2.7764,-2.76,-2.76,-2.76,-2.76,-2.76,-2.76,-2.76,-2.76,-2.76,-2.76,-2.76,-2.76,-2.76,-2.76,-2.7959,-2.803,-2.742,-2.7822,-2.8415,-2.8916,0.0,0.0,0.0,-2.7914,0.0,0.0,-2.7294,-2.7245,-2.8316,-2.7038,0.0,0.0,0.0,0.0,0.0,0.0,0.0,0.0,0.0,0.0,0.0,-3.8533,-3.9148,-3.8772,-3.9679,-4.0096,-4.0096,-4.0096,-4.0096,-4.0096,-4.0096,-4.0311,-4.0672,-4.0896,-4.2005,-4.3545,-4.3335,-4.407,-4.5178,-4.4776,-4.4615,-4.4615,-3.4931,-3.6131,-3.7495,-3.7495,-3.694,-3.6477,-3.6492,-3.4805,-3.3499,-3.3514,-3.2946,-3.2781,-3.3425,-3.2901,-3.2213,-3.157,-3.1549,-3.1269,-3.0536,-3.0497,-2.9878,0.0,0.0,-2.8213,-2.761,-2.7585,-2.76,-2.763,0.0,0.0,-2.9088,0.0,-3.0794,-2.9456,-2.9883,-2.9171,-2.763,-2.76,-2.7585,-2.76,-2.76,-2.76,-2.7675,-2.8323,-2.8592,-2.8667,-2.9352,-2.9172,-2.8607,-2.8607,-2.8592,-2.8592,-2.8592,-2.8113,-2.76,-2.76,-2.76,-2.76,-2.76,-2.76,-2.76,-2.76,-2.76,-2.76,-2.76,-2.76,-2.76,-2.76,-2.7625,-2.7405,-2.6746,-2.7151,-2.765,-2.7806,0.0,0.0,0.0,0.0,0.0,-2.6737,-2.7822,-2.8458,-2.8242,-2.7758,0.0,0.0,0.0,0.0,0.0,0.0,0.0,-3.3768,-3.4481,0.0,-3.9133,-3.8468,-3.8768,-4.0079,-4.0096,-4.0096,-4.0096,-4.0096,-4.0096,-4.0096,-4.0096,-4.0096,-4.0163,-4.0908,-4.1653,-4.2381,-4.3115,-4.3876,-4.4598,-4.4598,-4.4615,-4.4615,-3.4299,-3.4707,-3.5316,-3.4848,-3.4227,-3.394,-3.4394,-3.3141,-3.2452,-3.338,-3.2527,-3.2064,-3.2766,-3.2213,-3.154,0.0,-3.1212,-3.1184,0.0,-3.0756,-3.0839,-3.0502,-3.0041,-2.954,-2.8972,-2.853,-2.8064,-2.76,0.0,0.0,0.0,-2.983,-2.904,-2.8178,-2.8343,-2.8106,-2.76,-2.76,-2.76,-2.76,-2.76,-2.76,-2.7675,-2.8338,-2.8607,-2.8682,-2.934,-2.9102,-2.8542,-2.8939,-2.844,-2.7726,-2.8093,-2.8549,-2.8873,-2.8438,-2.8618,-2.8963,-2.8963,-2.8963,-2.8858,-2.8408,-2.8263,-2.8143,-2.7705,-2.76,-2.76,-2.76,-2.76,-2.7525,-2.733,-2.745,-2.775,-2.8255,-2.763,0.0,0.0,0.0,-2.6949,-2.8623,-2.714,-2.6862,-2.9014,-2.8554,0.0,0.0,0.0,0.0,0.0,0.0,0.0,0.0,-3.653,0.0,-3.9059,-3.9236,-3.9589,-4.0096,-4.0096,-4.0096,-4.0096,-4.0096,-4.0096,-4.0096,-4.0096,-4.0096,-4.0163,-4.0899,-4.1627,-4.2371,-4.3115,-4.3893,-4.4615,-4.4615,-4.4936,-4.5348,-3.3876,-3.3829,-3.3978,-3.3559,-3.2961,-3.2647,-3.3066,-3.2392,-3.2079,-3.2677,-3.2228,-3.1929,-3.2093,-3.175,0.0,-3.0882,-3.144,-3.151,-3.0803,-3.1553,-3.1845,-3.1412,-3.1011,-3.0545,-2.9974,-2.9314,0.0,-2.8349,-2.9577,-3.014,-3.0125,-2.8843,-2.8004,-2.76,-2.76,-2.76,-2.76,-2.76,-2.76,-2.76,-2.76,-2.775,-2.8064,-2.8712,-2.9116,-2.94,-3.0073,-2.963,-2.88,-2.9159,-2.8487,-2.7506,-2.7613,-2.8651,-2.9627,-2.8449,-2.8827,-2.9562,-2.9307,-2.9427,-2.9457,-2.8771,-2.8607,-2.8412,-2.775,-2.76,-2.76,-2.76,-2.76,-2.76,-2.76,-2.76,-2.7735,-2.8169,-2.7884,-2.7989,-2.9056,0.0,-2.779,0.0,0.0,0.0,0.0,-2.899,-2.9109,0.0,0.0,0.0,0.0,0.0,0.0,-3.5207,-3.779,0.0,-3.9336,-3.9716,-3.9977,-4.0096,-4.0096,-4.0096,-4.0096,-4.0096,-4.0096,-4.0096,-4.0096,-4.0265,-4.0561,-4.1305,-4.2049,-4.2794,-4.3555,-4.4147,-4.4615,-4.4615,-4.506,-4.5703,-3.3499,-3.3395,-3.341,0.0,-3.2856,0.0,-3.2437,-3.2452,-3.2243,-3.1585,-3.2108,-3.2288,-3.1585,-3.154,-3.1511,-3.1343,0.0,0.0,0.0,-3.2591,-3.2853,-3.1594,-3.1551,-3.1283,-3.069,-2.9997,-2.9636,-2.9532,-2.8906,-2.8577,-2.8517,-2.7899,-2.76,-2.76,-2.76,-2.76,-2.76,-2.76,-2.76,-2.76,-2.76,-2.8004,-2.8667,-2.9325,-2.9968,-3.0597,-3.1256,-3.0558,-2.9303,-2.9288,-2.8693,-2.7824,-2.7154,-2.8412,-2.9774,-2.7981,-2.8536,-2.9579,-2.8966,-2.925,-2.9564,-2.8906,-2.8667,-2.8412,-2.775,-2.76,-2.76,-2.76,-2.76,-2.76,-2.76,-2.76,-2.76,-2.76,-2.76,-2.7809,-2.8408,0.0,-2.8948,0.0,0.0,0.0,0.0,-2.9175,-3.0314,0.0,0.0,0.0,0.0,0.0,-3.514,-3.583,-3.8386,-3.9781,-3.9926,-3.9926,-3.9977,-4.0096,-4.0096,-4.0096,-4.0096,-4.0146,-4.0146,-4.0113,-4.0214,-4.0595,-4.1271,-4.2049,-4.2811,-4.3572,-4.4327,-4.4632,-4.4682,-4.4682,-4.5128,-4.5788,0.0,0.0,-3.2587,-3.2049,-3.1839,-3.1735,-3.1735,-3.2168,-3.2243,-3.1585,-3.2542,-3.2826,-3.163,-3.1959,-3.1843,-3.0798,-3.1804,-3.1974,-3.0757,-3.2402,-3.3285,-3.3017,-3.2539,-3.1994,-3.1384,-3.0652,-2.9804,-2.8831,-2.8682,-2.8323,-2.7839,-2.7675,-2.76,-2.76,-2.76,-2.76,-2.76,-2.76,-2.76,-2.76,-2.76,-2.8004,-2.8667,-2.9325,-2.9968,-3.0597,-3.1256,-3.0586,-2.9332,-2.9125,-2.8228,-2.711,-2.6725,-2.7413,-2.8379,-2.872,-2.9869,-3.1017,-3.0853,-3.0928,-3.0883,-3.0223,-2.9325,-2.8412,-2.775,-2.76,-2.76,-2.76,-2.76,-2.76,-2.76,-2.76,-2.76,-2.76,-2.76,-2.758,-2.747,-2.7118,0.0,0.0,-2.8011,-2.8286,-2.9162,-2.9899,-3.051,0.0,0.0,0.0,0.0,-3.605,-3.7202,-3.7371,-3.9074,-4.002,-4.0062,-4.0062,-4.0087,-4.0096,-4.0096,-4.0096,-4.013,-4.0679,-4.0629,-4.0163,-4.1297,-4.1559,-4.1305,-4.2608,-4.3606,-4.4316,-4.453,-4.4925,-4.5432,-4.5432,-4.5906,-4.6616,-3.3095,-3.2916,-3.2841,-3.2497,-3.2153,-3.1959,-3.1959,-3.2542,-3.2721,-3.2034,-3.3125,-3.344,-3.2093,-3.2273,-3.1969,-3.062,-3.1746,-3.2063,-3.0985,-3.2789,-3.3789,-3.3505,-3.3185,-3.2707,-3.2071,-3.1321,-3.0477,-2.9475,-2.919,-2.8697,-2.8064,-2.775,-2.76,-2.76,-2.76,-2.76,-2.76,-2.76,-2.76,-2.76,-2.76,-2.8199,-2.9086,-2.9472,-3.0163,-3.0987,-3.1376,-3.0763,-2.9779,-2.9638,-2.8561,-2.7229,-2.7092,-2.7351,-2.7887,-2.8895,-2.9995,-3.0955,-3.1021,-3.1271,-3.1346,-3.0672,-2.9774,-2.8876,-2.8214,-2.8064,-2.7974,-2.766,-2.76,-2.76,-2.76,-2.76,-2.76,-2.76,-2.747,-2.7325,-2.7128,-2.7018,0.0,-2.8024,-2.8167,-2.8671,-2.9888,-3.0065,-3.0517,-3.1564,-3.2211,0.0,-3.4695,-3.6427,-3.7593,-3.7995,-3.9379,-4.0096,-4.0096,-4.0096,-4.0096,-4.0096,-4.0096,-4.0096,-4.013,-4.0865,-4.0984,-4.0663,-4.1796,-4.2252,-4.2286,-4.3054,-4.4079,-4.5094,-4.5094,-4.5551,-4.6194,-4.6194,-4.6667,-4.7361,-3.4384,-3.3873,-3.3499,-3.3499,-3.2961,-3.2512,-3.2512,-3.308,-3.326,-3.2602,-3.3664,-3.3978,-3.2662,-3.2512,-3.1973,-3.0627,-3.1747,-3.2256,-3.1626,-3.3412,-3.4225,-3.3529,-3.3564,-3.3235,-3.2465,-3.1824,-3.1122,-3.0357,-2.9834,-2.9217,-2.8427,-2.7869,-2.76,-2.76,-2.76,-2.76,-2.76,-2.76,-2.766,-2.775,-2.775,-2.8558,-2.9756,-2.9756,-3.0477,-3.1511,-3.1511,-3.1058,-3.045,-3.0329,-2.9317,-2.8051,-2.7769,-2.7802,-2.8051,-2.878,-2.9628,-3.0364,-3.0593,-3.1062,-3.1346,-3.0672,-3.0103,-2.9549,-2.8891,-2.8742,-2.8592,-2.8019,-2.7899,-2.7869,-2.7764,-2.775,-2.7779,-2.7859,-2.7518,-2.7265,-2.7357,0.0,-2.8194,-2.8247,-2.9081,-2.9903,-3.0593,-3.0178,-3.0588,-3.2305,-3.2042,-3.2854,-3.5272,-3.6411,-3.7308,-3.8045,-3.9386,-4.0096,-4.0096,-4.0096,-4.0096,-4.0096,-4.0096,-4.0163,-4.0299,-4.1018,-4.1373,-4.1407,-4.2269,-4.2929,-4.3392,-4.3511,-4.4485,-4.5855,-4.5737,-4.6227,-4.6972,-4.6972,-4.7361,-4.7906,-3.3754,-3.3559,-3.3499,-3.3499,-3.2961,-3.2512,-3.2512,-3.308,-3.326,-3.2602,-3.3664,-3.3978,-3.2662,-3.2512,-3.1973,-3.0627,-3.1765,-3.2552,-3.2417,-3.3784,-3.4291,-3.36,-3.3595,-3.2997,-3.1697,-3.1553,-3.0913,-2.9756,-2.9651,-2.8978,-2.775,-2.7645,-2.76,-2.76,-2.76,-2.76,-2.76,-2.76,-2.7929,-2.8442,-2.8442,-2.9205,-3.0357,-3.0357,-3.0823,-3.1511,-3.1511,-3.1409,-3.1219,-3.0524,-3.0103,-2.9628,-2.8149,-2.8214,-2.8812,-2.8971,-2.9628,-3.0465,-3.1144,-3.1421,-3.1346,-3.0672,-3.0432,-3.0193,-2.9564,-2.943,-2.9427,-2.9322,-2.9292,-2.9127,-2.8547,-2.8442,-2.8554,-2.8973,-2.8362,-2.801,-2.8475,0.0,-2.8869,-2.8936,-2.9781,-3.0618,-3.1271,-3.1256,-3.1329,-3.1653,-3.2608,-3.3433,-3.4053,-3.6357,-3.7769,-3.8007,-3.937,-4.0096,-4.0096,-4.0096,-4.0096,-4.0096,-4.0096,-4.0434,-4.1052,-4.1779,-4.2117,-4.2202,-4.3633,-4.391,-4.3443,-4.413,-4.528,-4.6566,-4.594,-4.6549,-4.775,-4.775,-4.7787,-4.7973,-3.4637,-3.4577,-3.4577,-3.4577,-3.4023,-3.3574,-3.3574,-3.3829,-3.3918,-3.3604,-3.4427,-3.4666,-3.3679,-3.3245,-3.2647,-3.1674,-3.184,-3.2189,-3.2557,-3.3859,-3.4137,-3.3119,-3.3417,-3.2944,-3.1524,-3.1511,-3.1032,-3.0073,-2.9771,-2.9112,-2.8113,-2.7764,-2.76,-2.7615,-2.7989,-2.7944,-2.7615,-2.8004,-2.8308,-2.8607,-2.8607,-2.9355,-3.0507,-3.0507,-3.0926,-3.1511,-3.1511,-3.1511,-3.1438,-3.1058,-3.0644,-3.0178,-2.9348,-2.9066,-2.9097,-2.9566,-3.0299,-3.1029,-3.1409,-3.1511,-3.1436,-3.1107,-3.1032,-3.0881,-3.0223,-3.0073,-2.9983,-2.9681,-2.9606,-2.9517,-2.919,-2.8831,-2.8868,-2.9703,-2.8839,0.0,0.0,-2.9178,-2.919,-2.954,-3.0142,-3.0911,-3.1929,-3.2034,-3.2183,-3.2557,-3.3154,-3.3861,-3.4727,-3.6361,-3.7638,-3.8465,-3.9558,-4.0096,-4.0096,-4.0096,-4.0096,-4.0096,-4.0493,-4.0865,-4.1238,-4.2388,-4.2895,-4.2963,-4.4079,-4.4395,-4.4079,-4.4462,-4.5478,-4.6752,-4.643,-4.7192,-4.8494,-4.8494,-4.8494,-4.8545,-3.5504,-3.5504,-3.5504,-3.5504,-3.4936,-3.4503,-3.4503,-3.4503,-3.4503,-3.4503,-3.4936,-3.5055,-3.4563,-3.3888,-3.323,-3.2572,-3.2019,-3.192,-3.2315,-3.3608,-3.3912,-3.2895,-3.3172,-3.2772,-3.1524,-3.1511,-3.1167,-3.0507,-2.9906,-2.9352,-2.8801,-2.7989,-2.7764,-2.8079,-2.8427,-2.8382,-2.8109,-2.8607,-2.8906,-2.9041,-2.9041,-2.9729,-3.0746,-3.0746,-3.1047,-3.1511,-3.1511,-3.1511,-3.1511,-3.1511,-3.1087,-3.0554,-3.0359,-2.9981,-2.9659,-3.0178,-3.0866,-3.1511,-3.1511,-3.1511,-3.1511,-3.1511,-3.1511,-3.1376,-3.0866,-3.0746,-3.0612,-3.0133,-3.0043,-2.9983,-2.9846,-2.9385,-2.9361,-3.0357,0.0,0.0,0.0,-2.9777,-2.9666,-3.0076,-3.0616,-3.1375,-3.2392,-3.2647,-3.2961,-3.3455,-3.3634,-3.4196,-3.5292,-3.6248,-3.7412,-3.8864,-3.9688,-4.0096,-4.0096,-4.0096,-4.0197,-4.0367,-4.0933,-4.139,-4.1762,-4.2868,-4.3494,-4.3724,-4.4316,-4.4615,-4.4615,-4.4801,-4.5602,-4.6802,-4.6989,-4.7851,-4.9001,-4.9001,-4.9001,-4.9001,-3.5504,-3.5504,-3.5504,-3.5504,-3.4936,-3.4503,-3.4503,-3.4503,-3.4503,-3.4503,-3.4548,-3.4563,-3.4518,-3.3888,-3.323,-3.2572,-3.2437,-3.2183,-3.1627,-3.2891,-3.3633,-3.3531,-3.2986,-3.2299,-3.1511,-3.1511,-3.1167,-3.0507,-2.9906,-2.9577,-2.9517,-2.8199,-2.8259,-2.9442,-2.8846,-2.8906,-2.9472,-2.9517,-2.9849,-3.0357,-3.0357,-3.0806,-3.1436,-3.1436,-3.1466,-3.1511,-3.1511,-3.1511,-3.1511,-3.1511,-3.1467,-3.1278,-3.0524,-3.0777,-3.119,-3.0494,-3.0866,-3.1511,-3.1511,-3.1511,-3.1511,-3.1511,-3.1511,-3.1496,-3.1436,-3.1436,-3.1406,-3.1376,-3.1361,-3.1167,-3.0552,-3.0387,-3.0556,-3.1129,0.0,0.0,-3.1053,-3.0947,-3.0703,-3.0473,-3.1569,-3.2378,-3.2497,-3.3066,-3.344,-3.3499,-3.4099,-3.4475,-3.4583,-3.5876,-3.7302,-3.8854,-3.9688,-4.0096,-4.0096,-4.0096,-4.0426,-4.1119,-4.117,-4.1931,-4.324,-4.3341,-4.3809,-4.4513,-4.4581,-4.4615,-4.4649,-4.5331,-4.6092,-4.6853,-4.7564,-4.8308,-4.9001,-4.9001,-4.9001,-4.9001,-3.5504,-3.5504,-3.5504,-3.5504,-3.5295,-3.5115,-3.5115,-3.5115,-3.5115,-3.5115,-3.5115,-3.5115,-3.5115,-3.4502,-3.4039,-3.3754,-3.2976,-3.2378,-3.2123,-3.2653,-3.3365,-3.4186,-3.3582,-3.2879,-3.2203,-3.216,-3.183,-3.1122,-3.0477,-3.0163,-3.0133,-2.9262,-2.9112,-2.9621,-2.9714,-2.9699,-2.9636,-2.9983,-3.0283,-3.0507,-3.0507,-3.0883,-3.1511,-3.1511,-3.1511,-3.1511,-3.1511,-3.1511,-3.1511,-3.1511,-3.1511,-3.1438,-3.1161,-3.1248,-3.1438,-3.1117,-3.1575,-3.2019,-3.1615,-3.1511,-3.1511,-3.1511,-3.1511,-3.1511,-3.1511,-3.1511,-3.1511,-3.1511,-3.1511,-3.1421,-3.1167,-3.0791,-3.081,-3.1723,0.0,-3.0653,-3.1708,-3.1525,-3.1371,-3.1704,-3.2198,-3.2841,-3.3649,-3.3963,-3.4277,-3.4711,-3.4981,-3.5115,-3.5115,-3.6043,-3.7114,-3.8189,-3.8513,-3.9146,-4.0096,-4.0105,-4.0474,-4.1221,-4.2134,-4.2851,-4.3409,-4.3927,-4.4299,-4.4615,-4.4615,-4.484,-4.5297,-4.5585,-4.6413,-4.7513,-4.777,-4.8359,-4.9001,-4.9001,-4.9001,-4.9001,-3.5504,-3.5504,-3.5504,-3.5504,-3.5504,-3.5504,-3.5504,-3.5504,-3.5504,-3.5504,-3.5504,-3.5504,-3.5504,-3.5085,-3.4711,-3.4533,-3.3469,-3.2736,-3.2497,-3.2571,-3.3013,-3.3937,-3.3531,-3.296,-3.2272,-3.2244,-3.2007,-3.1511,-3.0823,-3.0612,-3.0806,-2.9968,-2.9804,-3.0208,-3.0417,-3.0387,-3.0223,-3.0657,-3.0821,-3.0821,-3.0821,-3.1077,-3.1511,-3.1511,-3.1511,-3.1511,-3.1511,-3.1511,-3.1511,-3.1511,-3.1645,-3.1809,-3.1809,-3.1959,-3.2123,-3.2123,-3.2437,-3.2721,-3.2243,-3.2123,-3.2019,-3.1615,-3.1511,-3.1555,-3.1765,-3.1645,-3.157,-3.1765,-3.1645,-3.1511,-3.1511,-3.1122,-3.1063,-3.1857,-3.1333,-3.1093,-3.1857,-3.1692,-3.175,-3.2407,-3.2706,-3.326,-3.4399,-3.4698,-3.4996,-3.5474,-3.5504,-3.5504,-3.5504,-3.5975,-3.66,-3.7397,-3.7205,-3.7902,-3.9681,-3.9698,-4.0426,-4.1914,-4.2667,-4.33,-4.3809,-4.4361,-4.4615,-4.4615,-4.4615,-4.501,-4.572,-4.5957,-4.6786,-4.7906,-4.8142,-4.8562,-4.9001,-4.9001,-4.9001,-4.9001,-3.5504,-3.5504,-3.5504,-3.5504,-3.5504,-3.5504,-3.5504,-3.5504,-3.5504,-3.5504,-3.5504,-3.5504,-3.5504,-3.5504,-3.5235,-3.4578,-3.3888,-3.3215,-3.2527,-3.2571,-3.2586,-3.2586,-3.2586,-3.2272,-3.1524,-3.1511,-3.1511,-3.1511,-3.0823,-3.0866,-3.1481,-3.0208,-3.0298,-3.1466,-3.0806,-3.0896,-3.1511,-3.1511,-3.1511,-3.1511,-3.1511,-3.1511,-3.1511,-3.1511,-3.1511,-3.1511,-3.1511,-3.1511,-3.1511,-3.1511,-3.1944,-3.2497,-3.2497,-3.2976,-3.3499,-3.3499,-3.3499,-3.3499,-3.3499,-3.3499,-3.3185,-3.1854,-3.1525,-3.169,-3.2377,-3.1989,-3.1705,-3.2363,-3.1974,-3.1525,-3.1525,-3.1525,-3.1525,-3.1525,-3.1511,-3.1511,-3.1511,-3.1511,-3.1765,-3.2452,-3.3095,-3.3769,-3.4444,-3.51,-3.5504,-3.5504,-3.5504,-3.5504,-3.5504,-3.5504,-3.5846,-3.6584,-3.5894,-3.6548,-3.8772,-3.8818,-4.0335,-4.3392,-4.2584,-4.304,-4.4615,-4.4615,-4.4615,-4.4615,-4.4615,-4.501,-4.5771,-4.6498,-4.7242,-4.7973,-4.8714,-4.9001,-4.9001,-4.9001,-4.9001,-4.9001,-3.5504,-3.5504,-3.5504,-3.5504,-3.5504,-3.5504,-3.5504,-3.5504,-3.5504,-3.5504,-3.5504,-3.5504,-3.5504,-3.5504,-3.5429,-3.522,-3.4577,-3.3709,-3.2557,-3.2087,-3.1824,-3.1824,-3.2772,-3.2986,-3.2272,-3.2272,-3.2007,-3.1511,-3.1301,-3.1301,-3.1496,-3.1107,-3.1137,-3.1496,-3.1286,-3.1316,-3.1511,-3.1511,-3.1511,-3.1511,-3.1511,-3.1511,-3.1511,-3.1511,-3.1511,-3.1511,-3.1511,-3.1795,-3.2123,-3.166,-3.2243,-3.32,-3.32,-3.3649,-3.4129,-3.3634,-3.3829,-3.4114,-3.3619,-3.3499,-3.3395,-3.3006,-3.2901,-3.2961,-3.3155,-3.3051,-3.2961,-3.3155,-3.3036,-3.2901,-3.2901,-3.2901,-3.2901,-3.2901,-3.2497,-3.2377,-3.2841,-3.2512,-3.2647,-3.3754,-3.4099,-3.4488,-3.513,-3.5385,-3.5504,-3.5504,-3.5504,-3.5504,-3.5504,-3.5504,-3.5619,-3.5799,-3.5619,-3.6537,-3.8717,-3.8732,-4.0015,-4.2539,-4.2848,-4.3539,-4.4615,-4.4615,-4.4874,-4.5365,-4.5365,-4.6092,-4.7246,-4.7496,-4.802,-4.8697,-4.8917,-4.9001,-4.9001,-4.9001,-4.9001,-4.9001,-3.5504,-3.5504,-3.5504,-3.5504,-3.5504,-3.5504,-3.5504,-3.5504,-3.5504,-3.5504,-3.5504,-3.5504,-3.5504,-3.5504,-3.5504,-3.5504,-3.4876,-3.3918,-3.2602,-3.2108,-3.178,-3.1511,-3.2312,-3.2598,-3.216,-3.216,-3.1951,-3.1511,-3.1511,-3.1511,-3.1511,-3.1511,-3.1511,-3.1511,-3.1511,-3.1511,-3.1511,-3.1511,-3.1511,-3.1511,-3.1511,-3.1511,-3.1511,-3.1511,-3.1511,-3.1511,-3.1511,-3.1929,-3.2452,-3.2034,-3.2796,-3.3933,-3.4203,-3.4562,-3.4801,-3.4412,-3.4577,-3.4801,-3.4397,-3.4292,-3.4292,-3.4292,-3.3888,-3.3559,-3.3829,-3.3679,-3.3574,-3.3829,-3.3679,-3.3499,-3.3499,-3.3499,-3.3499,-3.3499,-3.3155,-3.3036,-3.344,-3.3155,-3.329,-3.4384,-3.4503,-3.4741,-3.5429,-3.5504,-3.5504,-3.5504,-3.5504,-3.5504,-3.5504,-3.5504,-3.5504,-3.5504,-3.5759,-3.6622,-3.8185,-3.8445,-3.9942,-4.2647,-4.2743,-4.341,-4.4615,-4.4919,-4.528,-4.572,-4.6007,-4.6819,-4.7889,-4.7889,-4.8311,-4.9001,-4.9001,-4.9001,-4.9001,-4.9001,-4.9001,-4.9001,-3.5504,-3.5504,-3.5504,-3.5504,-3.5504,-3.5504,-3.5504,-3.5504,-3.5504,-3.5504,-3.5504,-3.5504,-3.5504,-3.5504,-3.5504,-3.5504,-3.4876,-3.3948,-3.2677,-3.2512,-3.2183,-3.1525,-3.1511,-3.1511,-3.1511,-3.1511,-3.1511,-3.1511,-3.1511,-3.1511,-3.1511,-3.1511,-3.1511,-3.1511,-3.1511,-3.1511,-3.1511,-3.1511,-3.1511,-3.1511,-3.1511,-3.154,-3.1585,-3.1525,-3.157,-3.1675,-3.1615,-3.2049,-3.2706,-3.2766,-3.3544,-3.4638,-3.5295,-3.5504,-3.5504,-3.5504,-3.5439,-3.5392,-3.5472,-3.5424,-3.5392,-3.5472,-3.4577,-3.3829,-3.4459,-3.4098,-3.3844,-3.4474,-3.4083,-3.3679,-3.3679,-3.3679,-3.3679,-3.3679,-3.3619,-3.3604,-3.3664,-3.3619,-3.3829,-3.4518,-3.4593,-3.4816,-3.5444,-3.5504,-3.5504,-3.5504,-3.5504,-3.5504,-3.5504,-3.5504,-3.5534,-3.5594,-3.6178,-3.6806,-3.7494,-3.8093,-3.9975,-4.3078,-4.2332,-4.2862,-4.4502,-4.5336,-4.5737,-4.5838,-4.6583,-4.7327,-4.799,-4.799,-4.8409,-4.9001,-4.9001,-4.9001,-4.9001,-4.9001,-4.9001,-4.9018,-3.5504,-3.5504,-3.5504,-3.5504,-3.5504,-3.5504,-3.5504,-3.5504,-3.5504,-3.5504,-3.5504,-3.5504,-3.5504,-3.5504,-3.5504,-3.5504,-3.4876,-3.4159,-3.3335,-3.2796,-3.2183,-3.1525,-3.1511,-3.1511,-3.1511,-3.1511,-3.1511,-3.1511,-3.1511,-3.1511,-3.1511,-3.1511,-3.1511,-3.1511,-3.1511,-3.1511,-3.1511,-3.1511,-3.1511,-3.1511,-3.1511,-3.1809,-3.2213,-3.1705,-3.2138,-3.3006,-3.2452,-3.3051,-3.4143,-3.4681,-3.4681,-3.4638,-3.5295,-3.5504,-3.5504,-3.5504,-3.4953,-3.4509,-3.5279,-3.492,-3.4509,-3.5311,-3.528,-3.51,-3.525,-3.5175,-3.5115,-3.525,-3.5175,-3.507,-3.507,-3.507,-3.507,-3.507,-3.4622,-3.4488,-3.4996,-3.4607,-3.4517,-3.519,-3.528,-3.534,-3.5489,-3.5504,-3.5504,-3.5504,-3.5504,-3.5504,-3.5504,-3.5504,-3.5744,-3.6252,-3.6417,-3.703,-3.8167,-3.8317,-3.936,-4.128,-4.1772,-4.2552,-4.3625,-4.5043,-4.6024,-4.6599,-4.7344,-4.8088,-4.8765,-4.8765,-4.8866,-4.9001,-4.9001,-4.9001,-4.9001,-4.9001,-4.9001,-4.9086,-3.5504,-3.5504,-3.5504,-3.5504,-3.5504,-3.5504,-3.5504,-3.5504,-3.5504,-3.5504,-3.5504,-3.5504,-3.5504,-3.5504,-3.5504,-3.5504,-3.5175,-3.4681,-3.4008,-3.335,-3.2691,-3.2004,-3.1675,-3.1645,-3.1974,-3.1974,-3.1824,-3.1511,-3.1511,-3.1511,-3.1511,-3.1511,-3.1511,-3.1511,-3.1511,-3.1675,-3.1974,-3.1974,-3.2153,-3.2437,-3.2437,-3.2677,-3.2946,-3.2602,-3.2901,-3.344,-3.3095,-3.3619,-3.4608,-3.5265,-3.5265,-3.5026,-3.5385,-3.5504,-3.5407,-3.492,-3.4394,-3.4095,-3.4643,-3.4394,-3.4245,-3.5246,-3.5504,-3.5504,-3.5504,-3.5504,-3.5504,-3.5504,-3.5504,-3.5504,-3.5504,-3.5504,-3.5504,-3.5504,-3.5205,-3.51,-3.5459,-3.519,-3.51,-3.5459,-3.5504,-3.5504,-3.5504,-3.5504,-3.5504,-3.5504,-3.5504,-3.5639,-3.5953,-3.5968,-3.6267,-3.6911,-3.7225,-3.7719,-3.8377,-3.8721,-3.9284,-4.008,-4.0946,-4.2238,-4.3864,-4.505,-4.6055,-4.6853,-4.7953,-4.846,-4.8511,-4.8849,-4.9001,-4.9001,-4.9001,-4.9001,-4.9001,-4.9001,-4.9001,-4.9069,-3.5504,-3.5504,-3.5504,-3.5504,-3.5504,-3.5504,-3.5504,-3.5504,-3.5504,-3.5504,-3.5504,-3.5504,-3.5504,-3.5504,-3.5504,-3.5504,-3.5504,-3.522,-3.4548,-3.3858,-3.3245,-3.2706,-3.2019,-3.1974,-3.2677,-3.2677,-3.2392,-3.1839,-3.1839,-3.1839,-3.1839,-3.1839,-3.1839,-3.1839,-3.1839,-3.2138,-3.2677,-3.2677,-3.2991,-3.3499,-3.3499,-3.3559,-3.3649,-3.3529,-3.3634,-3.3829,-3.3709,-3.4083,-3.4773,-3.531,-3.5504,-3.5504,-3.5504,-3.5392,-3.51,-3.4245,-3.3774,-3.3567,-3.3705,-3.3774,-3.3993,-3.4986,-3.5359,-3.5504,-3.5504,-3.5504,-3.5504,-3.5504,-3.5504,-3.5504,-3.5504,-3.5504,-3.5504,-3.5504,-3.5504,-3.5504,-3.5504,-3.5504,-3.5504,-3.5504,-3.5504,-3.5504,-3.5504,-3.5504,-3.5504,-3.5504,-3.5609,-3.5908,-3.6462,-3.6596,-3.6926,-3.7554,-3.8108,-3.8497,-3.8736,-3.9305,-3.9649,-3.9753,-4.0451,-4.1996,-4.4222,-4.5217,-4.6146,-4.7056,-4.8409,-4.8663,-4.8125,-4.8748,-4.9001,-4.9001,-4.9001,-4.9001,-4.9001,-4.9001,-4.9001,-4.9001,-3.5504,-3.5504,-3.5504,-3.5504,-3.5504,-3.5504,-3.5504,-3.5504,-3.5504,-3.5504,-3.5504,-3.5504,-3.5504,-3.5504,-3.5504,-3.5504,-3.5504,-3.522,-3.4548,-3.3858,-3.3455,-3.3365,-3.2736,-3.2691,-3.335,-3.3365,-3.332,-3.323,-3.323,-3.323,-3.323,-3.323,-3.323,-3.323,-3.323,-3.3275,-3.3365,-3.3365,-3.341,-3.3499,-3.3499,-3.3844,-3.4309,-3.3709,-3.4218,-3.516,-3.4562,-3.4786,-3.5385,-3.5474,-3.5504,-3.5504,-3.5504,-3.4905,-3.4177,-3.4027,-3.2855,-3.1742,-3.2558,-3.2784,-3.3031,-3.3959,-3.4872,-3.5504,-3.5504,-3.5504,-3.5504,-3.5504,-3.5504,-3.5504,-3.5504,-3.5504,-3.5504,-3.5504,-3.5504,-3.5504,-3.5504,-3.5504,-3.5504,-3.5504,-3.5504,-3.5504,-3.5504,-3.5504,-3.5504,-3.5504,-3.6028,-3.6387,-3.6492,-3.6985,-3.7584,-3.8227,-3.8347,-3.8945,-4.0113,-4.0217,-4.0546,-4.1115,-4.125,-4.1996,-4.3363,-4.5423,-4.6866,-4.7817,-4.8646,-4.8951,-4.8866,-4.8968,-4.9001,-4.9001,-4.9001,-4.9001,-4.9001,-4.9001,-4.9001,-4.9001,-3.5504,-3.5504,-3.5504,-3.5504,-3.5504,-3.5504,-3.5504,-3.5504,-3.5504,-3.5504,-3.5504,-3.5504,-3.5504,-3.5504,-3.5504,-3.5504,-3.5504,-3.537,-3.507,-3.4427,-3.4038,-3.4038,-3.341,-3.3365,-3.4023,-3.4038,-3.4233,-3.4622,-3.3858,-3.3499,-3.3499,-3.3499,-3.3499,-3.3499,-3.3499,-3.3709,-3.4038,-3.4038,-3.4262,-3.4622,-3.4622,-3.4786,-3.5026,-3.4726,-3.4981,-3.5474,-3.516,-3.525,-3.5504,-3.5504,-3.5504,-3.5504,-3.5504,-3.4806,-3.391,-3.338,-3.2249,-3.1278,-3.1706,-3.2213,-3.282,-3.3774,-3.4758,-3.5504,-3.5504,-3.5504,-3.5504,-3.5504,-3.5504,-3.5504,-3.5504,-3.5504,-3.5504,-3.5504,-3.5504,-3.5504,-3.5504,-3.5504,-3.5504,-3.5504,-3.5504,-3.5654,-3.6013,-3.6058,-3.6193,-3.6552,-3.6836,-3.7165,-3.7524,-3.7808,-3.8272,-3.8945,-3.932,-3.9798,-4.0397,-4.0771,-4.11,-4.1422,-4.1796,-4.2504,-4.3535,-4.51,-4.6291,-4.7208,-4.8447,-4.8781,-4.8426,-4.8832,-4.9001,-4.9001,-4.9001,-4.9001,-4.9001,-4.9001,-4.9001,-4.9001]},{"header":{"parameterUnit":"m.s-1","parameterCategory":1,"la1":30.6,"la2":28.766,"lo1":-90.7593,"lo2":-88.6598,"dy":0.0162,"dx":0.0183,"nx":116,"ny":114,"refTime":"2024-04-17T06:00:00:Z","depth":0,"parameterNumber":3,"parameterNumberName":"V-component_of_WINDS"},"data":[0.0,0.0,0.0,0.0,0.0,0.0,0.0,0.0,0.0,0.0,0.0,0.0,0.0,0.0,0.0,0.0,0.0,0.0,0.0,0.0,0.0,0.0,0.0,0.0,0.0,0.0,0.0,0.0,0.0,0.0,0.0,0.0,0.0,0.0,0.0,0.0,0.0,0.0,0.0,0.0,0.0,0.0,0.0,0.0,0.0,0.0,0.0,0.0,0.0,0.0,0.0,0.0,0.0,0.0,0.0,0.0,0.0,0.0,0.0,0.0,0.0,0.0,0.0,0.0,0.0,0.0,0.0,0.0,0.0,0.0,0.0,0.0,0.0,0.0,0.0,0.0,0.0,0.0,0.0,0.0,0.0,0.0,0.0,0.0,0.0,0.0,0.0,0.0,0.0,0.0,0.0,0.0,0.0,0.0,0.0,0.0,0.0,0.0,0.0,0.0,0.0,0.0,0.0,0.0,0.0,0.0,0.0,0.0,0.0,0.0,0.0,0.0,0.0,0.0,0.0,0.0,0.0,0.0,0.0,0.0,0.0,0.0,0.0,0.0,0.0,0.0,0.0,0.0,0.0,0.0,0.0,0.0,0.0,0.0,0.0,0.0,0.0,0.0,0.0,0.0,0.0,0.0,0.0,0.0,0.0,0.0,0.0,0.0,0.0,0.0,0.0,0.0,0.0,0.0,0.0,0.0,0.0,0.0,0.0,0.0,0.0,0.0,0.0,0.0,0.0,0.0,0.0,0.0,0.0,0.0,0.0,0.0,0.0,0.0,0.0,0.0,0.0,0.0,0.0,0.0,0.0,0.0,0.0,0.0,0.0,0.0,0.0,0.0,0.0,0.0,0.0,0.0,0.0,0.0,0.0,0.0,0.0,0.0,0.0,0.0,0.0,0.0,0.0,0.0,0.0,0.0,0.0,0.0,0.0,0.0,0.0,0.0,0.0,0.0,0.0,0.0,0.0,0.0,0.0,0.0,0.0,0.0,0.0,0.0,0.0,0.0,0.0,0.0,0.0,0.0,0.0,0.0,0.0,0.0,0.0,0.0,0.0,0.0,0.0,0.0,0.0,0.0,0.0,0.0,0.0,0.0,0.0,0.0,0.0,0.0,0.0,0.0,0.0,0.0,0.0,0.0,0.0,0.0,0.0,0.0,0.0,0.0,0.0,0.0,0.0,0.0,0.0,0.0,0.0,0.0,0.0,0.0,0.0,0.0,0.0,0.0,0.0,0.0,0.0,0.0,0.0,0.0,0.0,0.0,0.0,0.0,0.0,0.0,0.0,0.0,0.0,0.0,0.0,0.0,0.0,0.0,0.0,0.0,0.0,0.0,0.0,0.0,0.0,0.0,0.0,0.0,0.0,0.0,0.0,0.0,0.0,0.0,0.0,0.0,0.0,0.0,0.0,0.0,0.0,0.0,0.0,0.0,0.0,0.0,0.0,0.0,0.0,0.0,0.0,0.0,0.0,0.0,0.0,0.0,0.0,0.0,0.0,0.0,0.0,0.0,0.0,0.0,0.0,0.0,0.0,0.0,0.0,0.0,0.0,0.0,0.0,0.0,0.0,0.0,0.0,0.0,0.0,0.0,0.0,0.0,0.0,0.0,0.0,0.0,0.0,0.0,0.0,0.0,0.0,0.0,0.0,0.0,0.0,0.0,0.0,0.0,0.0,0.0,0.0,0.0,0.0,0.0,0.0,0.0,0.0,0.0,0.0,0.0,0.0,0.0,0.0,0.0,0.0,0.0,0.0,0.0,0.0,0.0,0.0,0.0,0.0,0.0,0.0,0.0,0.0,0.0,0.0,0.0,0.0,0.0,0.0,0.0,0.0,0.0,0.0,0.0,0.0,0.0,0.0,0.0,0.0,0.0,0.0,0.0,0.0,0.0,0.0,0.0,0.0,0.0,0.0,0.0,0.0,0.0,0.0,0.0,0.0,0.0,0.0,0.0,0.0,0.0,0.0,0.0,0.0,0.0,0.0,0.0,0.0,0.0,0.0,0.0,0.0,0.0,0.0,0.0,0.0,0.0,0.0,0.0,0.0,0.0,0.0,0.0,0.0,0.0,0.0,0.0,0.0,0.0,0.0,0.0,0.0,0.0,0.0,0.0,0.0,0.0,0.0,0.0,0.0,0.0,0.0,0.0,0.0,0.0,0.0,0.0,0.0,0.0,0.0,0.0,0.0,0.0,0.0,0.0,0.0,0.0,0.0,0.0,0.0,0.0,0.0,0.0,0.0,0.0,0.0,0.0,0.0,0.0,0.0,0.0,0.0,0.0,0.0,0.0,0.0,0.0,0.0,0.0,0.0,0.0,0.0,0.0,0.0,0.0,0.0,0.0,0.0,0.0,0.0,0.0,0.0,0.0,0.0,0.0,0.0,0.0,0.0,0.0,0.0,0.0,0.0,0.0,0.0,0.0,0.0,0.0,0.0,0.0,0.0,0.0,0.0,0.0,0.0,0.0,0.0,0.0,0.0,0.0,0.0,0.0,0.0,0.0,0.0,0.0,0.0,0.0,0.0,0.0,0.0,0.0,0.0,0.0,0.0,0.0,0.0,0.0,0.0,0.0,0.0,0.0,0.0,0.0,0.0,0.0,0.0,0.0,0.0,0.0,0.0,0.0,0.0,0.0,0.0,0.0,0.0,0.0,0.0,0.0,0.0,0.0,0.0,0.0,0.0,0.0,0.0,0.0,0.0,0.0,0.0,0.0,0.0,0.0,0.0,0.0,0.0,0.0,0.0,0.0,0.0,0.0,0.0,0.0,0.0,0.0,0.0,0.0,0.0,0.0,0.0,0.0,0.0,0.0,0.0,0.0,0.0,0.0,0.0,0.0,0.0,0.0,0.0,0.0,0.0,0.0,0.0,0.0,0.0,0.0,0.0,0.0,0.0,0.0,0.0,0.0,0.0,0.0,0.0,0.0,0.0,0.0,0.0,0.0,0.0,0.0,0.0,0.0,0.0,0.0,0.0,0.0,0.0,0.0,0.0,0.0,0.0,0.0,0.0,0.0,0.0,0.0,0.0,0.0,0.0,0.0,0.0,0.0,0.0,0.0,0.0,0.0,0.0,0.0,0.0,0.0,0.0,0.0,0.0,0.0,0.0,0.0,0.0,0.0,0.0,0.0,0.0,0.0,0.0,0.0,0.0,0.0,0.0,0.0,0.0,0.0,0.0,0.0,0.0,0.0,0.0,0.0,0.0,0.0,0.0,0.0,0.0,0.0,0.0,0.0,0.0,0.0,0.0,0.0,0.0,0.0,0.0,0.0,0.0,0.0,0.0,0.0,0.0,0.0,0.0,0.0,0.0,0.0,0.0,0.0,0.0,0.0,0.0,0.0,0.0,0.0,0.0,0.0,0.0,0.0,0.0,0.0,0.0,0.0,0.0,0.0,0.0,0.0,0.0,0.0,0.0,0.0,0.0,0.0,0.0,0.0,0.0,0.0,0.0,0.0,0.0,0.0,0.0,0.0,0.0,0.0,0.0,0.0,0.0,0.0,0.0,0.0,0.0,0.0,0.0,0.0,0.0,0.0,0.0,0.0,0.0,0.0,0.0,0.0,0.0,0.0,0.0,0.0,0.0,0.0,0.0,0.0,0.0,0.0,0.0,0.0,0.0,0.0,0.0,0.0,0.0,0.0,0.0,0.0,0.0,0.0,0.0,0.0,0.0,0.0,0.0,0.0,0.0,0.0,0.0,0.0,0.0,0.0,0.0,0.0,0.0,0.0,0.0,0.0,0.0,0.0,0.0,0.0,0.0,0.0,0.0,0.0,0.0,0.0,0.0,0.0,0.0,0.0,0.0,0.0,0.0,0.0,0.0,0.0,0.0,0.0,0.0,0.0,0.0,0.0,0.0,0.0,0.0,0.0,0.0,0.0,0.0,0.0,0.0,0.0,0.0,0.0,0.0,0.0,0.0,0.0,0.0,0.0,0.0,0.0,0.0,0.0,0.0,0.0,0.0,0.0,0.0,0.0,0.0,0.0,0.0,0.0,0.0,0.0,0.0,0.0,0.0,0.0,0.0,0.0,0.0,0.0,0.0,0.0,0.0,0.0,0.0,0.0,0.0,0.0,0.0,0.0,0.0,0.0,0.0,0.0,0.0,0.0,0.0,0.0,0.0,0.0,0.0,0.0,0.0,0.0,0.0,0.0,0.0,0.0,0.0,0.0,0.0,0.0,0.0,0.0,0.0,0.0,0.0,0.0,0.0,0.0,0.0,0.0,0.0,0.0,0.0,0.0,0.0,0.0,0.0,0.0,0.0,0.0,0.0,0.0,0.0,0.0,0.0,0.0,0.0,0.0,0.0,0.0,0.0,0.0,0.0,0.0,0.0,0.0,0.0,0.0,0.0,0.0,0.0,0.0,0.0,0.0,0.0,0.0,0.0,0.0,0.0,0.0,0.0,0.0,0.0,0.0,0.0,0.0,0.0,0.0,0.0,0.0,0.0,0.0,0.0,0.0,0.0,0.0,0.0,0.0,0.0,0.0,0.0,0.0,0.0,0.0,0.0,0.0,0.0,0.0,0.0,0.0,0.0,0.0,0.0,0.0,0.0,0.0,0.0,0.0,0.0,0.0,0.0,0.0,0.0,0.0,0.0,0.0,0.0,0.0,0.0,0.0,0.0,0.0,0.0,0.0,0.0,0.0,0.0,0.0,0.0,0.0,0.0,0.0,0.0,0.0,0.0,0.0,0.0,0.0,0.0,0.0,0.0,0.0,0.0,0.0,0.0,0.0,0.0,0.0,0.0,0.0,0.0,0.0,0.0,0.0,0.0,0.0,0.0,0.0,0.0,0.0,0.0,0.0,0.0,0.0,0.0,0.0,0.0,0.0,0.0,0.0,0.0,0.0,0.0,0.0,0.0,0.0,0.0,0.0,0.0,0.0,0.0,0.0,0.0,0.0,0.0,0.0,0.0,0.0,0.0,0.0,0.0,0.0,0.0,0.0,0.0,0.0,0.0,0.0,0.0,0.0,0.0,0.0,0.0,0.0,0.0,0.0,0.0,0.0,0.0,0.0,0.0,0.0,0.0,0.0,0.0,0.0,0.0,0.0,0.0,0.0,0.0,0.0,0.0,0.0,0.0,0.0,0.0,0.0,0.0,0.0,0.0,0.0,0.0,0.0,0.0,0.0,0.0,0.0,0.0,0.0,0.0,0.0,0.0,0.0,0.0,0.0,0.0,0.0,0.0,0.0,0.0,0.0,0.0,0.0,0.0,0.0,0.0,0.0,0.0,0.0,0.0,0.0,0.0,0.0,0.0,0.0,0.0,0.0,0.0,0.0,0.0,0.0,0.0,0.0,0.0,0.0,0.0,0.0,0.0,0.0,0.0,0.0,0.0,0.0,0.0,0.0,0.0,0.0,0.0,0.0,0.0,0.0,0.0,0.0,0.0,0.0,0.0,0.0,0.0,0.0,0.0,0.0,0.0,0.0,0.0,0.0,0.0,0.0,0.0,0.0,0.0,0.0,0.0,0.0,0.0,0.0,0.0,0.0,0.0,0.0,0.0,0.0,0.0,0.0,0.0,0.0,0.0,0.0,0.0,0.0,0.0,0.0,0.0,0.0,0.0,0.0,0.0,0.0,0.0,0.0,0.0,0.0,0.0,0.0,0.0,0.0,0.0,0.0,0.0,0.0,0.0,0.0,0.0,0.0,0.0,0.0,0.0,0.0,0.0,0.0,0.0,0.0,0.0,0.0,0.0,0.0,0.0,0.0,0.0,0.0,0.0,0.0,0.0,0.0,0.0,0.0,0.0,0.0,0.0,0.0,0.0,0.0,0.0,0.0,0.0,0.0,0.0,0.0,0.0,0.0,0.0,0.0,0.0,0.0,0.0,0.0,0.0,0.0,0.0,0.0,0.0,0.0,0.0,0.0,0.0,0.0,0.0,0.0,0.0,0.0,0.0,0.0,0.0,0.0,0.0,0.0,0.0,0.0,0.0,0.0,0.0,0.0,0.0,0.0,0.0,0.0,0.0,0.0,0.0,0.0,0.0,0.0,0.0,0.0,0.0,0.0,0.0,0.0,0.0,0.0,0.0,0.0,0.0,0.0,0.0,0.0,0.0,0.0,0.0,0.0,0.0,0.0,0.0,0.0,0.0,0.0,0.523,0.0,0.0,0.0,0.0,0.0,0.0,0.0,0.0,0.0,0.0,0.0,0.0,0.0,0.0,0.0,0.0,0.0,0.0,0.0,0.0,0.0,0.0,0.0,0.0,0.5287,0.5381,0.5069,0.5315,0.5357,0.5011,0.0,0.0,0.0,0.0,0.0,0.4998,0.5344,0.5442,0.5241,0.5693,0.6453,0.7494,0.7371,0.684,0.6039,0.0,0.0,0.0,0.0,0.0,0.0,0.0,0.0,0.0,0.0,0.0,0.0,0.0,0.0,0.0,0.0,0.0,0.0,0.0,0.0,0.0,0.0,0.0,0.0,0.0,0.0,0.0,0.0,0.0,0.0,0.0,0.0,0.0,0.0,0.0,0.0,0.0,0.0,0.0,0.0,0.0,0.0,0.0,0.0,0.0,0.0,0.0,0.0,0.0,0.0,0.0,0.0,0.0,0.0,0.0,0.0,0.0,0.0,0.0,0.0,0.0,0.0,0.0,0.0,0.0,0.0,0.0,0.0,0.0,0.0,0.0,0.6527,0.0,0.0,0.0,0.0,0.0,0.0,0.0,0.0,0.0,0.0,0.0,0.0,0.0,0.0,0.0,0.0,0.0,0.0,0.0,0.0,0.0,0.5345,0.5199,0.5321,0.5422,0.5483,0.5504,0.5454,0.5374,0.5542,0.0,0.0,0.5556,0.5645,0.5159,0.5621,0.5827,0.5651,0.6824,0.8072,0.9404,1.0273,0.9805,0.8232,0.7168,0.0,0.0,0.0,0.0,0.0,0.0,0.0,0.0,0.0,0.0,0.0,0.0,0.0,0.0,0.0,0.0,0.0,0.0,0.0,0.0,0.0,0.0,0.0,0.0,0.0,0.0,0.0,0.0,0.0,0.0,0.0,0.0,0.0,0.0,0.0,0.0,0.0,0.0,0.0,0.0,0.0,0.0,0.0,0.0,0.0,0.0,0.0,0.0,0.0,0.0,0.0,0.0,0.0,0.0,0.0,0.0,0.0,0.0,0.0,0.0,0.0,0.0,0.0,0.8487,0.889,0.9464,0.9464,0.931,0.8987,0.8604,0.7812,0.6846,0.7575,0.0,0.0,0.0,0.0,0.0,0.0,0.0,0.0,0.0,0.0,0.0,0.0,0.0,0.0,0.0,0.0,0.0,0.0,0.0,0.5088,0.51,0.5546,0.5947,0.6219,0.6243,0.6329,0.6465,0.5832,0.5389,0.5261,0.5341,0.5359,0.5288,0.5914,0.6391,0.6692,0.8961,1.0515,1.133,1.2403,1.276,1.2397,0.9857,0.8482,0.8043,0.0,0.0,0.0,0.0,0.0,0.0,0.0,0.0,0.0,0.0,0.0,0.0,0.0,0.0,0.0,0.0,0.0,0.0,0.0,0.0,0.0,0.0,0.0,0.0,0.0,0.0,0.0,0.0,0.0,0.0,0.0,0.0,0.0,0.0,0.0,0.0,0.0,0.0,0.0,0.0,0.0,0.7931,0.7328,0.0,0.0,0.0,0.0,0.0,0.0,0.0,0.0,0.0,0.0,0.0,0.0,0.0,0.7947,0.7108,0.798,0.795,0.7143,0.743,0.7481,0.7329,0.7329,0.7346,0.7441,0.8012,0.0,0.7473,0.6535,0.0,0.0,0.0,0.0,0.0,0.0,0.0,0.0,0.0,0.0,0.0,0.0,0.0,0.0,0.0,0.0,0.0,0.0,0.0,0.0,0.0,0.6056,0.6305,0.6605,0.7569,0.7845,0.7071,0.7496,0.7392,0.651,0.6369,0.6194,0.5913,0.6954,0.811,0.9362,1.0966,1.2168,1.3061,1.4012,1.4498,1.4421,1.3174,1.1653,0.9977,0.9205,0.0,0.0,0.0,0.0,0.0,0.0,0.0,0.0,0.0,0.0,0.0,0.0,0.0,0.0,0.0,0.0,0.0,0.0,0.0,0.0,0.0,0.0,0.0,0.0,0.0,0.0,0.0,0.0,0.0,0.0,0.0,0.0,0.0,0.0,0.0,0.0,0.0,0.0,0.0,0.7726,0.7775,0.7324,0.8208,0.9035,0.0,0.0,0.0,0.0,0.0,0.0,0.0,0.0,0.0,0.7405,0.8106,0.8106,0.7306,0.7798,0.7841,0.7428,0.7556,0.7597,0.7506,0.7506,0.7493,0.7516,0.7841,0.7804,0.7516,0.7181,0.7173,0.726,0.0,0.0,0.0,0.0,0.6309,0.6569,0.0,0.0,0.0,0.0,0.0,0.0,0.0,0.0,0.0,0.0,0.0,0.0,0.6478,0.6724,0.698,0.7187,0.8663,0.9039,0.7848,0.8965,0.8978,0.7435,0.728,0.6981,0.6485,0.807,0.9855,1.1818,1.2751,1.3733,1.4663,1.5391,1.5732,1.5732,1.5732,1.4333,1.198,1.1186,1.0073,0.8814,0.0,0.0,0.0,0.0,0.0,0.0,0.0,0.0,0.0,0.0,0.0,0.0,0.0,0.0,0.0,0.0,0.0,0.0,0.0,0.0,0.0,0.0,0.0,0.0,0.0,0.0,0.0,0.0,0.0,0.0,0.0,0.0,0.0,0.0,0.0,0.0,0.0,0.7731,0.7749,0.722,0.803,0.8736,0.0,0.0,0.0,0.0,0.0,0.0,0.8359,0.8797,0.8621,0.7786,0.8241,0.8269,0.7702,0.7733,0.7824,0.7926,0.7889,0.788,0.7988,0.7988,0.7928,0.7868,0.7868,0.7723,0.7501,0.7643,0.7476,0.7088,0.6771,0.7026,0.7513,0.6904,0.7011,0.7441,0.0,0.0,0.0,0.0,0.0,0.0,0.0,0.0,0.0,0.0,0.0,0.6764,0.6761,0.7638,0.8243,0.8299,0.9143,0.9507,0.9135,0.9516,0.9053,0.7367,0.7477,0.731,0.6706,0.9077,1.1241,1.3218,1.4333,1.5331,1.6221,1.6486,1.664,1.664,1.664,1.5732,1.4167,1.3461,1.2215,1.0713,0.9955,0.0,0.0,0.0,0.0,0.0,0.0,0.0,0.0,0.0,0.0,0.0,0.0,0.0,0.0,0.0,0.0,0.0,0.0,0.0,0.0,0.0,0.0,0.0,0.0,0.0,0.0,0.0,0.0,0.0,0.0,0.0,0.0,0.0,0.0,0.0,0.0,0.0,0.0,0.7153,0.6911,0.0,0.0,0.0,0.0,0.9904,0.9849,0.9583,0.9159,0.9304,0.8966,0.8033,0.819,0.834,0.8425,0.8299,0.8292,0.8296,0.8099,0.7982,0.7988,0.7988,0.7985,0.7978,0.7978,0.7887,0.7743,0.7166,0.6951,0.6982,0.7442,0.7733,0.7865,0.7693,0.7636,0.7541,0.0,0.0,0.0,0.0,0.0,0.6033,0.6288,0.6364,0.6449,0.664,0.7676,0.8574,0.9052,1.0298,1.1282,1.1806,1.2889,1.303,1.1969,1.1905,1.1122,0.9324,0.8655,0.8736,0.9657,1.1084,1.2742,1.4655,1.5471,1.6013,1.6335,1.6817,1.6894,1.6727,1.7101,1.6883,1.6153,1.5087,1.4005,1.2845,1.144,1.0161,0.0,0.0,0.0,0.0,0.0,0.0,0.0,0.0,0.0,0.0,0.0,0.0,0.0,0.0,0.0,0.0,0.0,0.0,0.0,0.0,0.0,0.0,0.0,0.0,0.0,0.0,0.0,0.0,0.0,0.0,0.0,0.0,0.0,0.0,0.0,0.0,0.0,0.8136,0.8362,0.0,0.9029,0.8807,0.8984,0.9806,0.9246,0.879,0.8653,0.89,0.8888,0.8476,0.8621,0.8676,0.8628,0.8577,0.8459,0.8323,0.8214,0.8136,0.7988,0.7988,0.7988,0.7988,0.7988,0.7958,0.7877,0.7526,0.7244,0.7054,0.7243,0.7235,0.7127,0.7271,0.726,0.7143,0.0,0.0,0.0,0.0,0.0,0.6099,0.631,0.6554,0.682,0.7158,0.8676,1.0055,1.084,1.2282,1.3359,1.3811,1.4733,1.4737,1.3238,1.3084,1.2194,1.0241,0.9532,1.0051,1.1816,1.2782,1.4085,1.5838,1.6326,1.667,1.6777,1.7166,1.7239,1.7021,1.7408,1.7535,1.7388,1.64,1.541,1.4295,1.2907,1.1778,1.0694,0.0,0.0,0.0,0.0,0.0,0.0,0.0,0.0,0.0,0.0,0.0,0.0,0.0,0.0,0.0,0.0,0.0,0.0,0.0,0.0,0.0,0.0,0.0,0.0,0.0,0.0,0.0,0.0,0.0,0.0,0.0,0.0,0.0,0.0,0.9475,0.9512,0.8742,0.8993,0.9264,0.9306,0.9103,0.9107,0.9485,0.8947,0.8644,0.8642,0.8879,0.8964,0.8862,0.891,0.8811,0.8713,0.8659,0.8513,0.8323,0.8218,0.814,0.7988,0.7988,0.7988,0.7988,0.7988,0.7988,0.7975,0.7828,0.7597,0.7311,0.7258,0.7099,0.6956,0.7204,0.7189,0.7163,0.0,0.0,0.0,0.0,0.0,0.5821,0.6123,0.6478,0.7014,0.7883,0.9539,1.0998,1.1991,1.3459,1.4292,1.4071,1.4552,1.4286,1.2856,1.2886,1.2074,1.0022,1.0144,1.1146,1.3021,1.4024,1.5274,1.672,1.7058,1.7347,1.7569,1.7569,1.7575,1.7582,1.7582,1.7756,1.7955,1.7415,1.6388,1.5022,1.4362,1.3424,1.2241,0.0,0.0,0.0,0.0,0.0,0.0,0.0,0.0,0.0,0.0,0.0,0.0,0.0,0.0,0.0,0.0,0.0,0.0,0.0,0.0,0.0,0.0,0.0,0.0,0.0,0.0,0.0,0.0,0.0,0.0,0.0,0.0,0.0,0.8323,0.8968,0.9434,0.8863,0.8646,0.8452,0.8371,0.8564,0.8794,0.8885,0.9086,0.9286,0.9374,0.9303,0.9221,0.921,0.9015,0.8811,0.8713,0.856,0.8411,0.832,0.8116,0.7995,0.7988,0.7988,0.7988,0.7988,0.7988,0.7988,0.7988,0.7985,0.7894,0.7784,0.7502,0.7433,0.7443,0.7546,0.7594,0.7563,0.0,0.0,0.0,0.5755,0.5777,0.5777,0.5832,0.6116,0.673,0.7796,0.9747,1.1719,1.3531,1.5352,1.6534,1.6873,1.6252,1.5484,1.4589,1.312,1.1804,1.0807,1.1416,1.25,1.4055,1.5214,1.6212,1.7079,1.7159,1.7239,1.732,1.732,1.7434,1.7582,1.7582,1.7756,1.7969,1.7629,1.7159,1.6496,1.5263,1.4362,1.3616,0.0,0.0,0.0,0.0,0.0,0.0,0.0,0.0,0.0,0.0,0.0,0.0,0.0,0.0,0.0,0.0,0.0,0.0,0.0,0.0,0.0,0.0,0.0,0.0,0.0,0.0,0.0,0.0,0.0,0.0,0.0,0.9385,0.9418,0.8875,0.9516,0.9697,0.8806,0.8899,0.9053,0.9069,0.9147,0.9215,0.9256,0.9398,0.9452,0.9384,0.9445,0.9384,0.9217,0.9015,0.8811,0.8713,0.856,0.8411,0.8323,0.8228,0.8147,0.7988,0.7988,0.7988,0.7988,0.7988,0.7988,0.7982,0.787,0.7848,0.7814,0.7845,0.7726,0.7543,0.7584,0.7458,0.7216,0.0,0.0,0.0,0.5663,0.5728,0.5712,0.5545,0.5916,0.6633,0.7872,0.9994,1.2168,1.4215,1.5989,1.7054,1.7281,1.6446,1.5431,1.4372,1.2864,1.2093,1.2272,1.2985,1.4103,1.5616,1.6318,1.6985,1.7528,1.7528,1.7462,1.7387,1.7648,1.7736,1.7776,1.7776,1.8016,1.8322,1.7822,1.7635,1.7661,1.6422,1.5678,1.5124,1.3728,1.3259,1.332,1.2596,1.2726,1.3134,1.2323,0.0,0.0,0.0,0.0,0.0,0.0,0.0,0.0,0.0,0.0,0.0,0.0,0.0,0.0,0.0,0.0,0.0,0.0,0.0,0.0,0.0,0.0,0.0,0.0,0.9614,0.9489,0.9174,0.9369,0.9374,0.8842,0.9066,0.931,0.9462,0.953,0.9564,0.9564,0.9649,0.9659,0.9571,0.9534,0.9432,0.9313,0.8984,0.8771,0.8615,0.8469,0.8319,0.8174,0.8174,0.8126,0.7988,0.7988,0.7988,0.7988,0.7988,0.7988,0.7982,0.7894,0.7906,0.0,0.0,0.0,0.0,0.0,0.7594,0.7287,0.0,0.0,0.0,0.5453,0.5588,0.5588,0.5328,0.5754,0.6597,0.7942,1.0097,1.2203,1.4064,1.5551,1.6319,1.614,1.5465,1.4438,1.2997,1.2395,1.2696,1.3963,1.463,1.5676,1.7179,1.7266,1.7508,1.7995,1.8029,1.7956,1.7695,1.8237,1.837,1.8089,1.8055,1.8348,1.8871,1.8036,1.7996,1.8424,1.7675,1.7079,1.6572,1.5523,1.5445,1.5768,1.502,1.4921,1.5009,1.3988,0.0,0.0,0.0,0.0,0.0,0.0,0.0,0.0,0.0,0.0,0.0,0.0,0.0,0.0,0.0,0.0,0.0,0.0,0.0,0.0,0.0,0.0,0.0,0.0,1.0315,0.9949,0.9286,0.8937,0.8818,0.8915,0.9222,0.9442,0.9595,0.9737,0.9822,0.9822,0.9822,0.9815,0.9798,0.0,0.0,0.0,0.0,0.8618,0.8482,0.8323,0.8177,0.7988,0.7988,0.7988,0.7988,0.7988,0.7988,0.7988,0.7988,0.7988,0.7988,0.7988,0.7988,0.7975,0.7889,0.7828,0.7828,0.7914,0.7828,0.7573,0.0,0.0,0.0,0.5328,0.5453,0.5474,0.5258,0.54,0.6082,0.753,0.9206,1.0864,1.2538,1.3848,1.4663,1.4843,1.3805,1.2876,1.224,1.2597,1.333,1.4578,1.5501,1.6384,1.7186,1.7622,1.7876,1.7995,1.829,1.8377,1.8317,1.8437,1.8584,1.8744,1.851,1.8597,1.8898,1.849,1.8384,1.8477,1.8303,1.7782,1.7015,1.6315,1.5967,1.5718,1.5132,1.5237,1.555,1.4853,1.4837,1.5035,1.4689,1.4565,0.0,0.0,0.0,0.0,0.0,0.0,0.0,0.0,0.0,0.0,0.0,0.0,0.0,0.0,0.0,0.0,0.0,0.0,0.0,0.9948,0.9428,0.9238,0.9347,0.9238,0.918,0.9276,0.9347,0.9442,0.9595,0.9737,0.9822,0.9822,0.9822,0.9771,0.9656,0.9479,0.9323,0.9258,0.876,0.8513,0.8482,0.8218,0.8019,0.7988,0.0,0.0,0.7988,0.7988,0.7988,0.7988,0.7988,0.7988,0.7988,0.7988,0.7988,0.7985,0.7958,0.787,0.7814,0.7845,0.7668,0.746,0.0,0.0,0.0,0.5046,0.5154,0.5219,0.5111,0.526,0.5803,0.69,0.8276,0.9593,1.0759,1.1967,1.2598,1.2519,1.2031,1.1965,1.2407,1.3254,1.4289,1.5711,1.6514,1.7134,1.7569,1.8036,1.827,1.827,1.8564,1.8631,1.8497,1.8791,1.8925,1.8918,1.8771,1.8871,1.9118,1.8677,1.8577,1.8698,1.8551,1.8136,1.7549,1.7101,1.6653,1.6213,1.5772,1.5618,1.5544,1.5109,1.5003,1.5039,1.4647,1.4659,1.4667,0.0,0.0,0.0,0.0,0.0,0.0,0.0,0.0,0.0,0.0,0.0,0.0,0.0,0.0,1.4048,1.2838,0.0,1.1606,1.0496,0.9684,0.9351,0.9571,0.9408,0.9323,0.9479,0.9429,0.9469,0.9693,0.9778,0.9822,0.9822,0.9754,0.9683,0.9612,0.9391,0.9289,0.921,0.877,0.8482,0.8482,0.8187,0.8029,0.8153,0.8025,0.8029,0.8153,0.8025,0.7988,0.7988,0.7988,0.7988,0.7988,0.7988,0.7988,0.7988,0.7988,0.7941,0.7877,0.7877,0.7784,0.759,0.0,0.0,0.0,0.4845,0.4958,0.5029,0.5029,0.5181,0.5584,0.6344,0.7399,0.8387,0.9112,1.0112,1.0521,1.0154,1.0693,1.1557,1.2785,1.3937,1.5264,1.682,1.7388,1.7782,1.8016,1.8384,1.8551,1.849,1.8838,1.8891,1.8671,1.9145,1.9239,1.9011,1.9011,1.9145,1.9397,1.8865,1.8798,1.8985,1.8691,1.8397,1.8035,1.7722,1.7215,1.6653,1.6246,1.5853,1.5492,1.5066,1.4845,1.469,1.409,1.4262,1.4519,1.3596,1.3633,0.0,0.0,0.0,0.0,0.0,0.0,0.0,0.0,1.3034,1.4197,1.389,1.4875,1.5462,1.4213,1.3379,1.2476,1.1278,1.0211,0.9615,0.9758,0.9551,0.9425,0.9551,0.9432,0.9442,0.971,0.9734,0.9758,0.9819,0.9663,0.9564,0.9564,0.9276,0.9152,0.9125,0.8659,0.8455,0.8482,0.8218,0.816,0.8361,0.8157,0.815,0.8316,0.8109,0.7988,0.7988,0.7988,0.7988,0.7988,0.7988,0.7988,0.7988,0.7988,0.7988,0.7988,0.7988,0.7894,0.7811,0.0,0.0,0.0,0.0,0.0,0.5171,0.5171,0.5061,0.5254,0.6117,0.6674,0.7276,0.8092,0.8586,0.885,0.8723,1.0473,1.1939,1.2675,1.4314,1.5937,1.7422,1.7816,1.7955,1.7989,1.8535,1.8751,1.849,1.9045,1.9299,1.9272,1.9397,1.941,1.9319,1.9319,1.9339,1.9424,1.9357,1.9343,1.9292,1.8998,1.8698,1.8377,1.7802,1.7215,1.66,1.5785,1.5734,1.588,1.4882,1.5149,1.5772,1.5052,1.5076,1.5193,1.4135,1.4083,1.4291,1.4105,1.4186,1.4073,1.3192,1.2418,1.1983,0.0,1.288,1.345,1.41,1.5501,1.6081,1.4551,1.3461,1.2481,1.1445,1.0242,0.9459,0.9612,0.949,0.9388,0.9405,0.933,0.9303,0.9415,0.9432,0.954,0.9802,0.9564,0.9408,0.9408,0.9123,0.8899,0.8764,0.8459,0.8357,0.8479,0.8326,0.8316,0.8459,0.8313,0.8255,0.8316,0.8109,0.7988,0.7988,0.7988,0.7988,0.7988,0.7988,0.7988,0.7988,0.7988,0.7988,0.7988,0.7988,0.7894,0.7811,0.0,0.0,0.0,0.0,0.0,0.5094,0.5094,0.5047,0.5139,0.5505,0.591,0.6252,0.6516,0.7073,0.7506,0.7738,0.9673,1.1291,1.2272,1.4417,1.6152,1.7333,1.8116,1.8342,1.8002,1.8791,1.9038,1.8744,1.9158,1.9424,1.9424,1.9424,1.9424,1.9424,1.9424,1.9424,1.9424,1.9424,1.9424,1.9339,1.9038,1.8644,1.815,1.7368,1.65,1.5759,1.6084,1.6269,0.0,1.5189,1.5393,1.5823,1.4576,1.4613,1.4971,1.4311,1.4306,1.4125,1.2271,1.2544,1.2881,1.0989,1.0939,1.1463,1.1659,1.2634,1.358,1.4091,1.5664,1.6508,1.499,1.4605,1.3803,1.1772,1.1071,1.0523,0.9717,0.9401,0.9218,0.9133,0.891,0.8978,0.934,0.9381,0.9432,0.9554,0.9367,0.9306,0.9306,0.8967,0.8777,0.8713,0.8506,0.8421,0.8482,0.8425,0.8425,0.8479,0.8388,0.8323,0.8316,0.8109,0.7988,0.7988,0.7988,0.7988,0.7988,0.7988,0.7988,0.7988,0.7988,0.7988,0.7988,0.7988,0.7948,0.8041,0.0,0.0,0.0,0.0,0.0,0.5051,0.5016,0.4978,0.502,0.5203,0.5399,0.5513,0.5567,0.6066,0.6543,0.6957,0.8624,1.0273,1.1682,1.3888,1.5741,1.7032,1.809,1.8468,1.8176,1.8958,1.9225,1.8925,1.9225,1.9424,1.9424,1.9424,1.9424,1.9424,1.9424,1.9424,1.9366,1.9279,1.9245,1.9205,1.8738,1.825,1.7682,1.6627,1.5872,1.5525,1.6367,1.6592,1.6394,1.589,1.6102,1.6365,1.4893,1.4848,1.5216,1.475,1.4702,1.4161,1.1399,1.1589,1.195,0.9387,0.9749,1.0801,1.0981,1.2253,1.3577,1.4225,1.5802,1.6765,1.5663,1.5129,1.4179,1.2248,1.1392,1.0643,0.9652,0.9259,0.9039,0.8893,0.8642,0.8652,0.9089,0.9171,0.9245,0.9371,0.9205,0.9169,0.9207,0.8872,0.871,0.871,0.856,0.8503,0.8547,0.8547,0.8567,0.8608,0.8462,0.837,0.8323,0.813,0.8012,0.8102,0.8008,0.7988,0.7988,0.7988,0.7988,0.7988,0.7988,0.7988,0.8038,0.8432,0.8528,0.8726,0.0,0.0,0.0,0.0,0.0,0.5139,0.5018,0.4784,0.4857,0.5494,0.526,0.5212,0.5742,0.5804,0.5995,0.6379,0.7424,0.8875,1.0827,1.2584,1.4512,1.6603,1.7536,1.8149,1.847,1.9115,1.9225,1.8925,1.9225,1.9424,1.9424,1.9424,1.9424,1.9424,1.9424,1.9424,1.941,1.9058,1.8938,1.8858,1.7976,1.7442,1.7072,1.5618,1.5622,1.6431,1.6365,1.637,1.6512,1.7117,1.7678,1.7933,1.6921,1.6581,1.641,1.5662,1.5314,1.4772,1.2837,1.2754,1.2586,1.0179,0.9587,0.9875,1.0718,1.1793,1.31,1.4648,1.5916,1.672,1.667,1.4462,1.2769,1.295,1.0696,0.906,0.9204,0.9039,0.8834,0.8733,0.8577,0.8489,0.8506,0.8645,0.8913,0.9347,0.911,0.9008,0.9204,0.8872,0.871,0.871,0.856,0.8554,0.8703,0.8703,0.8777,0.8868,0.8771,0.8618,0.8465,0.8174,0.8123,0.8255,0.8106,0.7988,0.7988,0.7988,0.7988,0.7988,0.7988,0.7988,0.8137,0.946,0.9953,1.0096,0.0,0.0,0.0,0.0,0.0,0.0,0.5149,0.5065,0.509,0.5296,0.54,0.0,0.0,0.0,0.0,0.0,0.7346,0.8422,0.9553,1.1858,1.3605,1.4531,1.641,1.7502,1.7648,1.819,1.8537,1.8637,1.8738,1.8784,1.8784,1.8784,1.8784,1.8784,1.8784,1.8784,1.8778,1.8677,1.8524,1.8209,1.7361,1.7143,1.7292,1.6482,1.6621,1.7479,0.0,1.9277,1.8434,1.78,1.7999,1.8046,1.5774,1.5502,1.5782,1.4326,1.3741,1.3033,1.0607,1.0377,1.0496,0.9099,0.8856,0.9095,0.9361,1.0514,1.1769,1.2893,1.4628,1.6099,1.667,1.596,1.49,1.363,1.2192,1.0788,0.9409,0.9198,0.9066,0.8611,0.8513,0.8445,0.835,0.8472,0.8662,0.8916,0.8937,0.9001,0.9204,0.9115,0.896,0.8811,0.8811,0.876,0.871,0.8811,0.8835,0.8784,0.8632,0.853,0.8476,0.8282,0.8221,0.8313,0.8106,0.7988,0.7988,0.7988,0.7988,0.7988,0.7988,0.8528,0.946,1.0779,1.1794,1.2662,0.0,0.0,0.0,0.0,0.0,0.0,0.0,0.0,0.0,0.0,0.0,0.0,0.0,0.0,0.0,0.0,0.0,0.77,0.873,1.0484,1.1817,1.247,1.4339,1.5405,1.5603,1.6068,1.6503,1.689,1.7159,1.7429,1.7642,1.7909,1.807,1.817,1.817,1.817,1.815,1.7943,1.7802,1.7586,1.6867,1.6879,1.7323,1.7105,1.7612,0.0,2.0775,2.1247,2.0695,1.9665,1.9262,1.8685,1.6156,1.5523,1.5438,1.3674,1.3384,1.2956,1.0033,0.9706,0.9871,0.8718,0.857,0.871,0.871,0.9994,1.1425,1.2198,1.4035,1.5728,1.6362,1.6155,1.5432,1.3864,1.2593,1.134,0.9969,0.9398,0.8957,0.8679,0.8598,0.8506,0.836,0.8479,0.8604,0.8703,0.8899,0.9055,0.9204,0.9262,0.9167,0.9018,0.9015,0.8967,0.8869,0.8913,0.8834,0.8791,0.8635,0.8594,0.8638,0.8438,0.8377,0.8418,0.8211,0.8123,0.8116,0.8012,0.7988,0.7988,0.7988,0.8825,1.0145,1.1409,1.277,1.3974,0.0,0.0,0.0,0.0,0.0,0.0,0.0,0.0,0.0,0.0,0.0,0.0,0.0,0.0,0.0,0.0,0.0,0.0,0.8221,0.8598,0.9315,1.0517,1.1464,1.2142,1.2632,1.298,1.3385,1.3939,1.4601,1.5307,1.5964,1.6698,1.7188,1.7448,1.7428,1.7435,1.746,1.682,1.6722,1.6923,1.6469,1.6604,1.708,1.7348,1.8513,2.0169,2.1193,2.2179,2.2935,2.2451,2.1232,1.9618,1.7847,1.6537,1.529,1.3705,1.4022,1.4257,1.097,1.0559,1.0672,0.909,0.8763,0.881,0.8786,1.0323,1.1915,1.2587,1.4253,1.5644,1.5881,1.5149,1.4372,1.3718,1.1964,1.0664,1.0804,0.9498,0.8642,0.8861,0.8835,0.8689,0.8523,0.8652,0.8743,0.8733,0.0,0.9217,0.9231,0.932,0.9334,0.9238,0.9231,0.9228,0.9221,0.9022,0.8895,0.8892,0.8794,0.8801,0.8885,0.8632,0.8574,0.8696,0.8397,0.8323,0.831,0.8102,0.7988,0.7988,0.8088,0.892,1.0243,1.1507,1.2866,1.4166,0.0,0.0,0.0,0.0,0.0,0.0,0.0,0.0,0.0,0.0,0.0,0.0,0.0,0.0,0.0,0.0,0.0,0.0,0.723,0.7993,0.8587,0.8913,1.0258,1.1235,1.173,1.2027,1.2411,1.2899,1.306,1.3502,1.4179,1.4341,1.479,1.5431,1.5167,1.5325,1.5771,1.5311,1.5242,1.5414,1.4944,1.5547,1.6838,1.774,1.9581,2.1873,2.3205,2.2836,2.1712,2.1856,2.0007,1.7451,1.6317,1.5188,1.3935,1.2536,1.1926,1.1293,0.9335,0.9057,0.9233,0.8807,0.9455,1.0095,0.9646,1.0915,1.239,1.2961,1.4206,1.5388,1.5957,1.5641,1.4761,1.3158,1.1913,1.078,0.9574,0.9384,0.9266,0.9117,0.9266,0.9235,0.8859,0.9059,0.9164,0.9105,0.9166,0.9309,0.9483,0.9632,0.9642,0.9496,0.9493,0.9439,0.9323,0.9174,0.9096,0.9096,0.895,0.8957,0.9089,0.8788,0.8672,0.8696,0.8397,0.8323,0.831,0.8102,0.7988,0.8088,0.9118,1.0288,1.1556,1.2909,1.422,1.5343,0.0,0.0,0.0,0.0,0.0,0.0,0.0,0.0,0.0,0.0,0.0,0.0,0.0,0.0,0.0,0.0,0.0,0.0,0.0,0.7611,0.7699,0.7464,0.8345,0.899,0.9331,0.9505,0.9867,1.0439,1.0689,1.1173,1.1935,1.2317,1.2808,1.3352,1.3497,1.3691,1.3972,1.3851,1.3938,0.0,0.0,1.5319,1.692,1.8469,2.0493,2.2716,2.4115,2.3103,2.106,2.0719,1.8496,1.5841,1.5654,1.509,1.4163,1.2269,1.1685,1.1289,0.9115,0.8781,0.9137,0.9537,1.02,1.0735,1.0897,1.2002,1.3159,1.3805,1.4859,1.5631,1.5604,1.5696,1.5255,1.3551,1.2288,1.1336,1.0679,0.9822,0.9347,0.9435,0.9544,0.951,0.9259,0.9384,0.9445,0.9361,0.9354,0.9429,0.9602,0.9744,0.9754,0.9615,0.9608,0.9537,0.9384,0.9354,0.9309,0.9309,0.9039,0.9015,0.9204,0.8916,0.8811,0.8798,0.0,0.8425,0.835,0.8204,0.8102,0.8137,0.946,1.0883,1.2278,1.3485,1.4779,1.6005,0.0,0.0,0.0,0.0,0.0,0.0,0.0,0.0,0.0,0.0,0.6808,0.6977,0.0,0.0,0.0,0.0,0.0,0.0,0.0,0.0,0.6975,0.6486,0.642,0.6501,0.6706,0.6722,0.703,0.769,0.8166,0.8832,0.9658,1.0467,1.1004,1.141,1.2012,1.2252,1.2187,1.2403,1.2733,1.3165,1.3994,1.5338,1.7071,0.0,2.1113,2.3011,2.4096,2.2845,2.0492,1.9203,1.7021,1.4835,1.5197,1.5357,1.4884,1.2313,1.2237,1.2438,0.971,0.9351,0.9928,1.0669,1.1014,1.1383,1.2365,1.3246,1.416,1.489,1.5807,1.611,1.5085,1.5574,1.5602,1.4117,1.2676,1.1942,1.2461,1.0472,0.9188,0.9781,0.9761,0.9696,0.9696,0.9717,0.977,0.9965,0.9961,0.9895,0.9639,0.9754,0.9764,0.9642,0.9639,0.9564,0.9412,0.9412,0.9412,0.9408,0.911,0.9045,0.9234,0.9015,0.8885,0.8875,0.8777,0.8635,0.8503,0.8357,0.8319,0.8492,0.9822,1.1309,1.2844,1.3831,1.511,1.6239,0.0,0.0,0.0,0.0,0.0,0.0,0.0,0.0,0.0,0.0,0.6851,0.6906,0.0,0.0,0.0,0.0,0.0,0.0,0.0,0.0,0.0,0.6815,0.6552,0.6501,0.6706,0.6821,0.6964,0.714,0.7347,0.7771,0.8421,0.8739,0.9369,1.0195,1.0224,1.0526,1.098,1.0921,1.1341,1.2136,1.2925,1.4435,1.6369,1.8272,0.0,0.0,2.2974,2.1259,1.8893,1.7633,1.6331,1.4995,1.3824,1.3777,1.374,1.1555,1.118,1.1181,0.9735,1.0314,1.1261,1.085,1.2119,1.3495,1.3483,1.4327,1.5239,1.5789,1.6317,1.6273,1.5124,1.5549,1.536,1.316,1.2248,1.1727,1.128,1.0024,0.9337,0.9876,1.01,1.0164,1.0164,1.027,1.0798,1.182,1.1918,1.1309,0.9849,0.9805,0.9812,0.9785,0.9785,0.9717,0.9571,0.9568,0.9568,0.9564,0.9262,0.9251,0.9334,0.9062,0.8885,0.8875,0.8777,0.0,0.8659,0.8509,0.9146,1.0343,1.1666,1.3065,1.4497,1.5496,1.6073,1.6315,0.0,0.0,0.0,0.0,0.0,0.0,0.0,0.6892,0.7117,0.7148,0.7187,0.7136,0.6956,0.7331,0.7588,0.0,0.0,0.0,0.0,0.0,0.0,0.0,0.0,0.0,0.6705,0.6777,0.6801,0.6841,0.0,0.7026,0.7468,0.7806,0.8228,0.8767,0.9152,0.953,0.9876,1.0121,1.0683,1.1512,1.2508,1.418,1.6285,0.0,0.0,0.0,2.3689,2.2191,2.011,1.9179,1.7574,1.5849,1.4988,1.4459,1.3947,1.3095,1.2669,1.2307,1.1784,1.2447,1.3236,1.3093,1.361,1.4329,1.4923,1.5247,1.5602,1.6286,1.6697,1.6516,1.5163,1.5604,1.5703,1.4147,1.2826,1.1989,1.2164,1.049,0.9415,0.9941,1.0114,1.0222,1.0375,1.0385,1.1015,1.2532,1.2493,1.2355,1.2286,1.1495,1.066,0.9819,0.9822,0.9788,0.972,0.9646,0.9646,0.9717,0.9334,0.933,0.9486,0.911,0.8981,0.9042,0.8893,0.8784,0.8706,0.8632,0.8969,0.9771,1.1826,1.3126,1.4082,1.5832,1.6593,1.6757,0.0,0.0,0.0,0.0,0.0,0.0,0.6932,0.7141,0.7312,0.7455,0.7648,0.7626,0.7245,0.7615,0.7876,0.0,0.0,0.0,0.0,0.0,0.0,0.0,0.0,0.0,0.0,0.0,0.0,0.6755,0.6618,0.0,0.0,0.0,0.0,0.0,0.8501,0.8864,0.8964,0.9615,1.0354,0.0,0.0,1.4162,0.0,0.0,0.0,0.0,0.0,2.3165,2.1253,2.0696,1.872,1.6423,1.633,1.5709,1.4805,1.4085,1.4049,1.4111,1.3527,1.4189,1.5147,1.5198,1.4907,1.4894,1.6052,1.5725,1.5457,1.6399,1.6797,1.6492,1.5025,1.5599,1.6017,1.524,1.3558,1.2547,1.319,1.1104,0.9622,0.9927,0.9997,1.0215,1.0514,1.0439,1.1243,1.3276,1.3795,1.4171,1.4555,1.3048,1.1615,1.0361,1.0001,0.9822,0.9822,0.971,0.971,0.9815,0.9435,0.9374,0.9595,0.9174,0.9045,0.9204,0.9001,0.8814,0.876,0.8791,0.8946,0.936,1.1821,1.3157,1.3896,1.6011,1.6987,1.7253,0.0,0.0,0.0,0.0,0.0,0.0,0.6932,0.7221,0.7395,0.7402,0.8149,0.8451,0.7866,0.8015,0.818,0.0,0.0,0.0,0.0,0.0,0.0,0.0,0.0,0.0,0.0,0.0,0.0,0.6874,0.7049,0.0,0.0,0.0,0.0,0.0,0.0,0.8279,0.8327,0.9177,0.0,0.0,0.0,0.0,0.0,0.0,0.0,0.0,0.0,2.2379,2.0116,1.9758,1.7979,1.6009,1.6312,1.6725,1.6287,1.2193,1.3349,1.542,1.2859,1.443,1.6541,1.5464,1.5405,1.5785,1.6185,1.5423,1.4879,1.6031,1.6338,1.6042,1.463,1.5313,1.5842,1.4992,1.4045,1.33,1.2896,1.1356,1.0154,0.9864,1.009,1.0375,1.067,1.0687,1.1915,1.5003,1.7637,1.7792,1.4733,1.3048,1.2157,1.1976,1.0539,0.9822,0.9822,0.9808,0.9808,0.9819,0.9649,0.9581,0.9598,0.9279,0.9197,0.9204,0.9001,0.8875,0.0,0.9059,0.9879,1.1184,1.2791,1.442,1.5943,1.6827,1.7347,1.7502,0.0,0.0,0.0,0.0,0.0,0.0,0.6644,0.7003,0.7315,0.7535,0.8175,0.857,0.844,0.8583,0.8591,0.8353,0.8456,0.0,0.0,0.0,0.0,0.0,0.0,0.0,0.0,0.0,0.7106,0.6913,0.6909,0.0,0.0,0.0,0.0,0.0,0.0,0.8315,0.8766,0.9294,0.0,0.0,0.0,0.0,0.0,0.0,0.0,0.0,0.0,0.0,2.0601,1.9809,1.8387,1.6932,1.6898,1.6898,1.6493,1.4339,1.4642,1.5591,1.5379,1.6833,1.8135,1.6949,1.6236,1.5812,1.5978,1.5087,1.4507,1.5514,1.5904,1.5893,1.5208,1.5828,1.6306,1.5799,1.4769,1.3664,1.2476,1.1072,0.9967,0.9516,0.969,1.0097,1.0666,1.0721,1.1629,1.3764,1.5987,1.6469,1.4811,1.4012,1.3228,1.2213,1.066,0.9822,0.9822,0.9822,0.9822,0.9819,0.9676,0.9652,0.9727,0.9429,0.9347,0.9344,0.9228,0.9154,0.0,1.03,1.1102,1.1833,1.4244,1.5596,1.638,1.752,1.8029,1.8116,0.0,0.0,0.0,0.0,0.0,0.6317,0.6611,0.7007,0.7419,0.7866,0.8402,0.882,0.8979,0.9082,0.9035,0.8761,0.8621,0.0,0.0,0.0,0.0,0.0,0.0,0.0,0.0,0.0,0.7335,0.7073,0.697,0.7036,0.0,0.0,0.7559,0.7661,0.0,0.0,0.0,0.0,0.0,0.0,0.0,0.0,0.0,0.0,0.0,0.0,0.0,0.0,0.0,0.0,0.0,1.728,1.6855,1.6555,1.6226,1.5434,1.5441,1.5792,1.5985,1.7375,1.8487,1.7101,1.6236,1.5706,1.5777,1.4969,1.4396,1.5187,1.5514,1.5637,1.5557,1.5867,1.6154,1.6097,1.5172,1.4013,1.2632,1.1293,1.0378,1.0194,0.9975,1.0169,1.1027,1.129,1.191,1.2949,1.493,1.5976,1.5645,1.4991,1.3885,1.2273,1.066,0.9822,0.9822,0.9822,0.9822,0.9819,0.972,0.9724,0.9812,0.9561,0.9449,0.9445,0.9401,0.932,0.0,1.1154,1.1859,1.2148,1.5166,1.6407,1.6687,1.8036,1.8544,1.8604,0.0,0.0,0.0,0.0,0.0,0.6756,0.6961,0.7394,0.7849,0.8321,0.899,0.9408,0.9494,0.9425,0.9463,0.9579,0.9411,0.0,0.0,0.0,0.0,0.0,0.0,0.0,0.0,0.0,0.7819,0.7489,0.7489,0.7396,0.7204,0.7396,0.7489,0.7521,0.0,0.0,0.0,0.0,0.0,0.0,0.0,0.0,0.0,0.0,0.0,0.0,0.0,0.0,0.0,0.0,0.0,0.0,0.0,1.5648,1.5538,1.4198,1.5177,1.6119,1.3471,1.5009,1.6927,1.5267,1.5188,1.5557,1.5756,1.5178,1.4718,1.5115,1.5156,1.5157,1.5358,1.5125,1.5078,1.5547,1.5113,1.4392,1.361,1.2321,1.1736,1.2503,1.1228,1.0724,1.1889,1.2747,1.3255,1.332,1.595,0.0,1.7547,1.5686,1.3885,1.2273,1.066,0.9822,0.9822,0.9822,0.9822,0.9822,0.9819,0.9819,0.9815,0.9673,0.9608,0.9598,0.9445,0.9381,0.0,1.1274,1.1988,1.2277,1.5297,1.6675,1.7131,1.8123,1.8671,1.8878,0.0,0.0,0.0,0.0,0.0,0.0,0.7296,0.7694,0.8092,0.8432,0.9005,0.947,0.9671,0.9781,0.975,0.9622,0.9047,0.0,0.0,0.0,0.0,0.0,0.0,0.0,0.0,0.8084,0.7694,0.7489,0.7129,0.7036,0.7204,0.7265,0.7521,0.7977,0.8107,0.8716,0.0,0.0,0.0,0.0,0.0,0.0,0.0,0.0,0.0,0.0,0.0,0.0,0.0,0.0,0.0,0.0,0.0,0.0,0.0,1.4072,1.4712,1.5509,1.4798,1.5536,1.63,1.5504,1.5089,1.4979,1.5043,1.4414,1.3969,1.4371,1.45,1.4698,1.5111,1.5189,1.5275,1.5622,1.5273,1.4468,1.3028,1.197,1.1285,1.1107,1.0776,1.0742,1.1066,1.1348,1.1501,1.1501,1.329,1.4348,1.4265,1.3519,1.3314,1.383,1.1197,0.9822,0.9822,0.9822,0.9822,0.9822,0.9822,0.9822,0.9819,0.9774,0.97,0.9612,0.9659,0.9629,0.0,1.2585,1.3784,1.4079,1.7264,1.8564,1.868,1.8979,1.9145,1.9212,0.0,0.0,0.0,0.0,0.0,0.0,0.7542,0.8021,0.8441,0.8667,0.9178,0.9609,0.9826,0.9792,0.9717,0.9541,0.8911,0.0,0.0,0.0,0.0,0.0,0.0,0.0,0.8727,0.8334,0.7922,0.7489,0.7232,0.7106,0.7204,0.7265,0.7619,0.8204,0.8339,0.8973,0.0,0.0,0.0,0.0,0.0,0.0,1.8186,0.0,0.0,0.0,0.0,0.0,0.0,0.0,0.0,0.0,0.0,0.0,0.0,0.0,1.4022,1.4529,1.4381,1.4809,1.5195,1.4599,1.4592,1.4705,1.471,1.4298,1.3956,1.4057,1.4094,1.4276,1.4757,1.4564,1.46,1.5335,1.5033,1.4406,1.3648,1.2779,1.1882,1.1037,1.1056,1.1106,1.0916,1.075,1.0721,1.0721,1.2576,1.3645,1.3582,1.3321,1.3662,1.455,1.1499,0.9822,0.9822,0.9822,0.9822,0.9822,0.9822,0.9822,0.9822,0.9822,0.9774,0.9693,1.0439,1.0665,0.0,1.4124,1.5488,1.5784,1.8409,1.9424,1.9424,1.9424,1.9424,1.9424,0.0,0.0,0.0,0.0,0.0,0.0,0.0,0.8382,0.8884,0.9041,0.9418,0.9764,0.9906,0.9623,0.9418,0.9425,0.9072,0.0,0.0,0.0,0.0,0.0,0.0,0.0,0.8615,0.8689,0.8361,0.7554,0.7629,0.7531,0.7265,0.7461,0.7814,0.8296,0.8786,0.9186,0.9572,1.0082,1.1676,1.3819,1.381,1.5241,0.0,0.0,0.0,0.0,0.0,0.0,0.0,0.0,0.0,0.0,0.0,0.0,0.0,0.0,0.0,0.0,0.0,1.325,1.3847,1.2987,1.3676,1.4624,1.4663,1.4597,0.0,1.4165,1.3979,1.3985,1.4418,1.3627,1.3387,1.4899,1.4517,1.4269,1.4997,1.4327,1.3275,1.2073,1.2041,1.1871,1.1356,1.0909,1.0714,1.0704,1.3288,1.4816,1.4796,1.459,1.4426,1.4426,1.1426,0.9805,0.9805,0.9805,0.9805,0.9805,0.9805,0.9812,0.9822,0.9822,0.9822,0.0,1.1378,0.0,0.0,1.5542,1.6909,1.7144,1.8765,1.9424,1.9424,1.9424,1.9424,1.9424,0.0,0.0,0.0,0.0,0.0,0.0,0.0,0.0,0.0,0.0,0.9618,0.9792,1.0043,0.99,0.9734,0.0,0.0,0.0,0.0,0.0,0.0,0.0,0.0,0.0,0.8825,0.8448,0.8186,0.8042,0.7717,0.7624,0.7824,0.7852,0.8306,0.9043,0.9017,0.9326,0.9942,1.0986,1.2031,1.3047,1.3765,1.4696,0.0,0.0,0.0,0.0,1.5167,1.4706,0.0,0.0,0.0,0.0,0.0,0.0,0.0,0.0,1.2932,1.3265,1.3253,0.0,1.3413,1.333,1.3566,1.3866,0.0,1.4114,1.4036,1.4281,1.4381,1.4584,1.5081,1.4442,1.4245,1.5384,1.4727,1.4082,1.4034,1.4094,1.3861,1.3118,1.3024,1.2764,1.2172,1.1229,1.067,1.0555,1.2203,1.314,1.2996,1.2825,1.2753,1.2753,1.0722,0.9659,0.9659,0.9659,0.9659,0.9659,0.9659,0.9717,0.9822,0.9822,0.9822,0.9819,1.0179,0.0,1.2333,1.4361,1.5902,1.7144,1.8765,1.9424,1.9424,1.9424,1.9424,1.9424,0.0,0.0,0.0,0.0,0.0,0.0,0.0,0.0,0.0,0.0,0.9838,0.9931,0.9797,0.9811,0.9748,0.0,0.0,0.0,0.0,0.0,0.0,0.0,0.0,0.8989,0.8595,0.8542,0.8366,0.8112,0.8055,0.81,0.8266,0.8407,0.887,0.9575,0.9464,0.9632,1.0021,1.0306,1.1068,1.2105,1.2419,0.0,0.0,0.0,0.0,0.0,1.3912,1.3609,0.0,1.3188,1.292,1.2552,0.0,0.0,0.0,0.0,1.2842,1.3194,1.3665,1.3484,1.3236,1.3455,1.3637,1.3848,1.4057,1.4137,1.4181,1.4245,1.4319,1.4484,1.4873,1.4266,1.4081,1.5253,1.4768,1.4439,1.4905,1.477,1.4617,1.474,1.3643,1.3182,0.0,1.269,1.1822,1.1717,1.3058,1.3492,1.2447,1.2258,1.2213,1.2213,1.0509,0.9608,0.9608,0.954,0.9852,1.0486,1.0486,1.0572,1.0726,1.0647,1.0696,1.0955,1.165,0.0,1.4529,1.6144,1.7331,1.8163,1.9068,1.9424,1.9424,1.9424,1.9424,1.9424,0.0,0.0,0.0,0.0,0.0,0.0,0.0,0.0,0.0,0.0,0.0,0.0,0.0,0.0,0.0,0.0,0.0,0.0,0.0,0.0,0.0,0.0,0.9166,0.9009,0.8392,0.8747,0.8655,0.8144,0.8515,0.8671,0.8663,0.8941,0.9377,0.9922,0.9855,0.9877,0.9892,0.9131,0.9685,1.1024,1.072,0.0,0.0,0.0,0.0,0.0,0.0,0.0,0.0,1.2593,1.2436,1.212,1.2182,0.0,0.0,0.0,0.0,0.0,1.3805,1.3629,1.3309,1.3419,1.3702,1.3985,1.3985,1.4245,1.4425,1.4274,1.4248,1.4309,1.4436,1.3852,1.3716,1.4872,1.4811,1.5093,1.6516,1.5935,1.5743,1.6598,1.471,0.0,1.598,1.4618,1.3462,1.3076,1.4201,1.3999,1.2098,1.1882,1.1844,1.1819,1.0357,0.9564,0.954,0.9641,1.031,1.1494,1.1722,1.1784,1.182,1.1885,1.2,1.2264,0.0,0.0,1.7085,1.846,1.9185,1.9424,1.9424,1.9424,1.9424,1.9424,1.9424,1.9424,0.0,0.0,0.0,0.0,0.0,0.0,0.0,0.0,0.0,0.0,0.0,0.0,0.0,0.0,0.0,0.0,0.0,0.0,0.0,0.0,0.0,0.9752,0.9086,0.8883,0.9207,0.8794,0.8655,0.8856,0.897,0.8986,0.895,0.9336,0.969,0.9963,0.9622,0.9545,0.9633,0.9051,0.9233,0.9942,1.0009,0.0,0.0,0.0,0.0,0.0,0.0,0.0,0.0,1.2097,1.2151,1.2058,1.1778,0.0,0.0,0.0,0.0,0.0,1.3392,1.3573,1.3645,1.3309,1.3302,1.3375,1.3564,1.3746,1.408,1.4649,1.4924,1.4985,1.4855,1.458,1.4448,1.472,1.4937,1.5693,1.7381,1.7647,1.7871,1.8364,0.0,1.7483,1.7326,1.6034,1.4534,1.3019,1.2888,1.209,1.0286,1.0193,1.0123,1.0,0.961,0.9354,0.9282,1.0428,1.1137,1.1358,1.259,1.2682,1.1825,1.318,1.3234,1.2273,0.0,1.5515,1.7026,1.7267,1.8163,1.9424,1.9424,1.9424,1.9424,1.9424,1.9424,1.9424,0.0,0.0,0.0,0.0,0.0,0.0,0.0,0.0,0.0,0.0,0.0,0.0,0.0,0.0,0.0,0.0,0.0,0.0,0.0,0.0,1.0067,0.9954,0.9362,0.9187,0.95,0.912,0.8945,0.8985,0.9169,0.9303,0.9398,0.9814,1.0067,1.0082,0.9562,0.9353,0.9337,0.874,0.8631,0.8916,0.0,0.0,0.0,0.0,0.0,0.0,0.0,0.0,0.0,0.0,1.1691,1.1809,1.1654,0.0,0.0,0.0,0.0,0.0,1.3573,1.3613,1.3494,1.3266,1.3395,1.3556,1.3382,1.3844,1.4298,1.4302,1.4708,1.5034,1.4828,1.5054,1.5445,1.609,1.6277,1.6844,1.8205,1.8522,1.881,0.0,0.0,1.8217,1.9205,1.7677,1.625,1.5396,1.4377,1.2973,1.1073,1.0176,0.9639,0.949,0.9337,0.9282,0.921,1.0508,1.1173,1.1228,1.189,1.2488,1.2933,1.3611,1.4264,1.4821,0.0,1.6722,1.8286,1.8286,1.8706,1.9424,1.9424,1.9424,1.9424,1.9424,1.9424,1.9424,0.0,0.0,0.0,0.0,0.0,0.0,0.0,0.0,0.0,0.0,0.0,0.0,0.0,0.0,0.0,0.0,0.0,0.0,0.0,1.0025,1.0107,1.0139,0.9801,0.9625,0.965,0.9388,0.9177,0.9081,0.9367,0.96,0.9813,1.0139,1.0266,1.0208,0.9529,0.9238,0.92,0.8401,0.8099,0.8145,0.0,0.0,0.0,0.0,0.0,0.0,0.0,0.0,0.0,0.0,0.0,0.0,0.0,0.0,0.0,1.2243,1.2404,1.257,1.3349,1.3377,1.3145,1.2992,1.3264,1.3518,1.331,1.3908,1.4462,1.4342,1.4754,1.5091,1.4892,1.5343,1.6123,1.7291,1.7528,1.7986,1.9041,1.9225,1.9506,2.0247,1.8901,1.8592,2.0398,1.9059,1.7871,1.7415,1.579,1.3963,1.2123,1.0484,0.9523,0.9334,0.9272,0.9193,0.9103,1.0086,1.0781,1.1105,1.1755,1.2707,1.3851,1.451,1.5575,1.6926,1.7195,1.8141,1.9424,1.9424,1.9424,1.9424,1.9424,1.9424,1.9417,1.9292,1.9305,1.9417,0.0,0.0,0.0,0.0,0.0,0.0,0.0,0.0,0.0,0.0,0.0,0.0,0.0,0.0,0.0,0.0,0.0,0.0,0.0,1.029,1.0475,1.0547,1.0347,1.0085,0.978,0.9349,0.9152,0.9274,0.967,0.9934,1.0062,1.0038,1.0111,1.0257,0.9457,0.9218,0.9308,0.8195,0.7813,0.7919,0.783,0.0,0.0,0.0,0.0,0.0,0.0,0.0,0.0,0.0,0.0,0.0,0.0,0.0,1.163,1.1652,1.1873,1.209,1.2003,1.2378,1.2734,1.236,1.2423,1.2761,1.3326,1.3664,1.4247,1.559,1.5752,1.5568,1.5397,1.54,1.5873,1.7259,1.803,1.8831,1.998,0.0,2.0261,2.0601,2.0259,2.0032,2.02,1.9635,1.8744,1.7511,1.5478,1.3586,1.2106,1.0484,0.9473,0.9234,0.9214,0.9089,0.8898,0.8999,0.9754,1.1105,1.3798,1.4532,1.3633,1.6759,1.7541,1.6621,1.8442,1.9287,1.9424,1.9424,1.9424,1.9424,1.9424,1.9424,1.9332,1.9058,1.9132,1.9383,0.0,0.0,0.0,0.0,0.0,0.0,0.0,0.0,0.0,0.0,0.0,0.0,0.0,0.0,0.0,0.0,0.0,0.0,0.0,1.0316,1.0319,1.0226,1.0228,1.0101,0.9804,0.9622,0.9503,0.9414,0.958,0.9726,0.992,0.997,0.9989,0.9977,0.9637,0.9389,0.923,0.8398,0.8044,0.801,0.7957,0.8108,0.0,0.0,0.0,0.0,0.0,0.0,0.0,0.0,1.1381,1.1716,1.1716,1.1786,1.186,1.186,1.1941,1.2123,1.2465,1.2755,1.2942,1.2689,1.2975,1.3362,1.3507,1.4186,1.485,1.5182,1.5908,1.6397,1.6164,1.617,1.665,1.7896,1.8633,1.9319,2.012,2.0173,2.0274,2.0388,2.014,1.9893,1.9713,1.9325,1.8896,1.8352,1.5673,1.3819,1.3303,1.0801,0.9188,0.8886,0.8971,0.8947,0.8798,0.8838,0.9154,0.9754,1.1751,1.3054,1.3714,1.6081,1.7428,1.8059,1.9001,1.9424,1.9424,1.9424,1.9424,1.9424,1.9424,1.9252,1.9078,1.8965,1.8991,1.9078,0.0,0.0,0.0,0.0,0.0,0.0,0.0,0.0,0.0,0.0,0.0,0.0,0.0,0.0,0.0,0.0,0.0,0.0,1.0342,1.0445,1.0385,1.018,1.0451,1.0424,0.997,1.0032,0.9926,0.9676,0.9676,0.9734,0.9862,0.9926,0.9926,0.9856,0.9769,0.955,0.9209,0.8775,0.8424,0.8143,0.8125,0.8156,0.0,0.0,0.0,0.0,0.0,0.0,0.0,0.0,1.1239,1.1802,1.174,1.177,1.1775,1.1747,1.1736,1.1857,1.2289,1.255,1.2738,1.2725,1.3172,1.3694,1.4084,1.4708,1.5276,1.5506,1.6313,1.6971,1.6777,1.6722,1.7034,1.8151,1.8834,1.9432,2.0013,2.0094,2.006,1.9967,1.97,1.9412,1.9118,1.8818,1.8684,1.8778,1.6115,1.4331,1.3984,1.1387,0.9534,0.8791,0.9318,0.9322,0.8784,0.9318,0.9372,0.894,1.0402,1.1987,1.3662,1.5841,1.7526,1.8804,1.9098,1.9225,1.9232,1.939,1.9424,1.9417,1.9265,1.9098,1.8905,1.8718,1.8704,1.8771,0.0,0.0,0.0,0.0,0.0,0.0,0.0,0.0,1.2225,1.1781,1.1757,0.0,0.0,0.0,0.0,0.0,0.0,0.0,1.047,1.0744,1.0769,1.0522,1.1131,1.1122,1.0315,1.0497,1.0387,0.9983,0.9983,0.9983,0.9983,0.9862,0.9862,0.9983,0.9862,0.9606,0.9288,0.9221,0.883,0.8196,0.8138,0.8067,0.803,0.0,0.0,0.0,0.0,0.0,0.0,0.0,1.0907,1.1771,1.1622,1.1466,1.128,1.1228,1.1186,1.1188,1.1111,1.1504,1.198,1.2238,1.2772,1.3607,1.5064,1.5244,1.5504,1.6842,1.715,1.7163,1.7118,1.6864,1.6958,1.7757,1.8447,1.9118,1.9706,1.9786,1.9679,1.9392,1.9098,1.8804,1.8517,1.8217,1.8109,1.8464,1.6747,1.5147,1.3814,1.22,1.0568,0.8992,1.0347,1.0398,0.8933,1.0347,1.0347,0.894,1.0402,1.1864,1.3437,1.653,1.8155,1.8504,1.8798,1.8925,1.8945,1.9239,1.9417,1.939,1.9038,1.8918,1.8844,1.8209,1.823,1.8444,0.0,0.0,0.0,0.0,0.0,0.0,0.0,0.0,1.2239,1.2384,1.1918,0.0,0.0,0.0,0.0,0.0,0.0,0.0,1.0342,1.0693,1.0871,1.0769,1.1328,1.1263,1.0449,1.0229,1.0045,0.9862,0.9702,0.9708,0.9862,0.9926,0.983,0.967,1.0149,1.0021,0.944,0.9585,0.9295,0.877,0.8728,0.8536,0.8321,0.0,0.0,0.0,0.0,0.0,0.0,0.0,0.0,0.0,1.0989,1.1094,1.1136,1.1088,1.1096,1.122,1.1587,1.1768,1.208,1.2759,1.3669,1.4566,1.5174,1.541,1.5864,1.698,1.7367,1.7389,1.7014,1.7154,1.7448,1.7896,1.8136,1.8455,1.9105,1.9005,1.8851,1.8764,1.8671,1.8504,1.8203,1.7903,1.7849,1.8156,1.6339,1.5209,1.5234,1.3403,1.207,1.1497,1.2,1.1531,0.9981,1.0708,1.0347,0.894,1.0402,1.1864,1.3383,1.553,1.7247,1.8504,1.8798,1.8925,1.8911,1.8798,1.8751,1.8744,1.8657,1.849,1.8229,1.8055,1.8049,1.8109,0.0,0.0,0.0,0.0,0.0,0.0,0.0,0.0,1.2183,1.2422,1.1996,1.1615,0.0,0.0,0.0,0.0,0.0,0.0,1.0522,1.0922,1.115,1.115,1.1744,1.166,1.0716,1.0093,0.9723,0.9643,0.9685,0.9766,0.9894,0.9958,0.9926,0.983,1.0276,1.011,0.9504,0.9766,0.9536,0.9017,0.9081,0.8931,0.8659,0.0,0.0,0.0,0.0,0.0,0.0,0.0,0.0,0.0,1.0711,1.086,1.0903,1.0976,1.0936,1.1028,1.1618,1.1835,1.2147,1.3126,1.4045,1.4889,1.5516,1.6047,1.6663,1.7498,1.7627,1.7593,1.7555,1.7495,1.7549,1.7963,1.7989,1.8155,1.8684,1.8497,1.827,1.8143,1.8029,1.7842,1.7542,1.7341,1.7308,1.7449,1.6483,1.5759,1.5535,1.4356,1.3393,1.2682,1.3242,1.2791,1.1216,1.1503,1.0935,0.9503,0.9946,1.1207,1.3245,1.4937,1.6629,1.8323,1.8442,1.8644,1.8731,1.8437,1.8384,1.8477,1.8364,1.8203,1.7975,1.7856,1.7862,1.7862,0.0,0.0,1.2711,1.255,0.0,0.0,0.0,0.0,1.2101,1.2101,1.2002,1.1803,0.0,0.0,0.0,0.0,0.0,0.0,0.0,1.1251,1.1519,1.1553,1.2175,1.2022,1.0921,1.0045,0.951,0.9388,0.9775,0.9983,0.9983,1.0015,1.0155,1.0379,1.0346,1.0053,0.965,0.9894,0.9626,0.9049,0.9242,0.9177,0.9017,0.921,0.0,0.0,0.0,0.0,0.0,0.0,0.0,0.0,1.0649,1.067,1.0616,1.0882,1.0782,1.0749,1.1394,1.1744,1.2164,1.334,1.4139,1.4941,1.6014,1.6886,1.7586,1.8071,1.7903,1.7762,1.8258,1.7715,1.7373,1.7849,1.7876,1.7975,1.8323,1.811,1.7769,1.7535,1.732,1.7052,1.6734,1.668,1.6673,1.67,1.6985,1.6549,1.5207,1.5138,1.4492,1.3184,1.4174,1.4005,1.2423,1.2536,1.1775,1.024,0.9306,1.0322,1.3005,1.4534,1.6221,1.7995,1.7995,1.8142,1.843,1.8075,1.8163,1.8377,1.8083,1.7909,1.7876,1.7615,1.7522,1.7542,0.0,0.0,1.2456,1.2548,0.0,0.0,0.0,0.0,0.0,1.2101,0.0,0.0,0.0,0.0,0.0,0.0,0.0,0.0,0.0,1.1099,1.1594,1.1803,1.1518,1.1006,1.0216,0.9714,0.9391,0.9231,0.965,0.9836,0.9836,1.0117,1.0489,1.0935,1.0661,1.0515,1.0503,1.0136,0.9696,0.9242,0.9274,0.9177,0.9017,0.921,0.9364,0.0,0.0,0.0,0.0,0.0,0.0,0.0,1.0084,1.0296,1.0438,1.0444,1.0574,1.0791,1.1307,1.1655,1.2248,1.3634,1.495,1.6005,1.6476,1.6717,1.6937,1.7064,1.7545,1.7802,1.7335,1.7215,1.7239,1.7367,1.7141,1.7101,1.7447,1.7181,1.6967,1.6901,1.684,1.6774,1.6714,1.65,1.646,1.6687,1.6553,1.6461,1.632,1.6125,1.5903,1.555,1.5795,1.4757,1.2289,1.2455,1.1362,0.0,0.9657,1.0963,1.273,1.3455,1.5294,1.7995,1.7995,1.8029,1.8062,1.7809,1.7722,1.7749,1.7455,1.7393,1.7308,1.7007,1.7041,1.7293,0.0,0.0,0.0,0.0,0.0,0.0,0.0,0.0,0.0,0.0,0.0,0.0,0.0,0.0,0.0,0.0,1.0345,0.0,0.0,0.0,1.1843,1.248,1.1662,1.1037,1.0682,1.0164,0.9768,0.9524,0.9875,1.0187,1.051,1.0704,1.0985,1.1324,1.1004,1.0678,1.0387,1.0088,0.9827,0.9592,0.9592,0.9592,0.9548,0.9423,0.9536,0.9717,0.947,0.0,0.0,0.0,0.0,0.0,0.0,0.0,1.049,1.0538,1.0629,1.0815,1.1067,1.1498,1.2295,1.3888,1.5184,1.6139,1.6433,1.65,1.6552,1.6718,1.7062,1.7306,1.7068,1.7022,1.6941,1.6941,1.6807,1.676,1.6914,1.668,1.65,1.65,1.6373,1.6286,1.6286,1.6146,1.6126,1.6273,1.6279,1.6339,1.6486,1.6359,1.6321,1.6321,1.6132,1.5364,1.3932,1.3462,1.2479,1.108,1.1226,1.2089,1.358,1.451,1.582,1.7408,1.7408,1.7488,1.7609,1.7494,1.7455,1.7555,1.7313,1.7199,1.7166,1.6814,1.6894,1.7179,0.0,0.0,0.0,0.0,0.0,0.0,0.0,0.0,0.0,0.0,0.0,0.0,0.0,0.0,1.153,0.0,0.0,0.0,0.0,0.0,0.0,1.3059,1.2135,1.154,1.1443,1.0784,1.0332,1.006,1.0195,1.0697,1.1549,1.1494,1.1567,1.1781,1.1482,1.0949,1.0276,1.0128,1.0016,0.994,0.994,1.0043,1.0108,0.9723,0.9766,1.0021,0.9687,0.9673,0.987,0.987,0.0,0.0,0.0,0.0,1.0688,1.0776,1.0807,1.0814,1.09,1.1479,1.2442,1.3975,1.4945,1.5678,1.5979,1.6094,1.6132,1.642,1.656,1.6707,1.7005,1.6754,1.6553,1.6553,1.6553,1.6553,1.6553,1.6346,1.6192,1.6192,1.5979,1.5784,1.5784,1.5784,1.5784,1.5784,1.6059,1.6192,1.6192,1.6192,1.6192,1.6192,1.5959,1.5683,1.5486,1.4411,1.3776,1.3542,1.2811,1.3308,1.4825,1.5993,1.6613,1.6707,1.6707,1.6847,1.7125,1.7125,1.7215,1.7402,1.7166,1.7052,1.7012,1.666,1.674,1.7018,0.0,0.0,0.0,0.0,0.0,0.0,0.0,0.0,0.0,0.0,1.2502,1.2183,0.0,0.0,0.0,1.1107,1.1211,1.1313,1.131,0.0,0.0,1.2675,1.242,1.2061,1.1579,1.1019,1.0747,1.0785,1.0283,1.0936,1.2598,1.219,1.2204,1.2556,1.2452,1.2004,1.1361,1.0946,1.052,1.0168,1.0168,1.0097,1.0034,0.9964,1.0079,1.0238,1.0192,1.0312,1.0501,1.062,1.0651,0.0,0.0,0.0,1.0996,1.0839,1.0807,1.0894,1.1284,1.2122,1.2986,1.3574,1.4186,1.477,1.5115,1.5182,1.5269,1.5511,1.5979,1.6388,1.6429,1.6146,1.5898,1.5898,1.5898,1.5898,1.5898,1.5912,1.5885,1.5885,1.5804,1.5784,1.5784,1.5784,1.5784,1.5784,1.5818,1.5885,1.5885,1.5885,1.5885,1.5885,1.5804,1.5289,1.4166,1.3974,1.3343,1.2188,1.3184,1.434,1.5652,1.5843,1.6226,1.6707,1.6707,1.6727,1.6767,1.6767,1.6787,1.6794,1.65,1.6442,1.6402,1.6059,1.6132,1.6469,0.0,0.0,0.0,0.0,0.0,0.0,0.0,0.0,0.0,0.0,0.0,1.2449,0.0,0.0,0.0,1.1419,1.1847,1.2076,1.1974,1.2369,1.2762,1.3096,1.2817,1.2579,1.2391,1.1715,1.1256,1.101,1.0557,1.1092,1.2539,1.2817,1.3128,1.3404,1.3316,1.268,1.167,1.2041,1.1576,1.07,1.1208,1.114,1.0693,1.0575,1.0611,1.0823,1.1286,1.1363,1.1274,1.1639,1.1499,1.1155,1.102,0.0,0.0,0.0,1.1146,1.1455,1.1899,1.2006,1.2206,1.306,1.3501,1.3908,1.4369,1.4596,1.4803,1.509,1.5403,1.5638,1.5965,1.5785,1.5585,1.5585,1.5451,1.5344,1.5344,1.5344,1.5344,1.5344,1.5484,1.5524,1.5357,1.5638,1.5758,1.5598,1.5738,1.5784,1.5784,1.5784,1.5784,1.5784,1.5784,1.5534,1.4949,1.4949,1.4657,1.4082,1.4657,1.5242,1.5784,1.5784,1.5924,1.6219,1.6219,1.6306,1.6466,1.6466,1.656,1.6673,1.6386,1.6321,1.6239,1.5939,1.6119,1.6513,0.0,0.0,0.0,0.0,0.0,0.0,0.0,0.0,0.0,0.0,0.0,0.0,0.0,0.0,0.0,0.0,1.2412,1.2739,1.2601,1.2673,1.2934,1.3416,1.3165,1.3029,1.3078,1.2228,1.1685,1.1404,1.0902,1.1254,1.2418,1.3027,1.3593,1.407,1.4209,1.3405,1.1987,1.312,1.2654,1.1301,1.2502,1.2368,1.1472,1.177,1.1642,1.1484,1.2509,1.2497,1.2059,1.2452,1.224,1.1767,1.1333,1.131,0.0,0.0,0.0,1.1714,1.1898,1.1645,1.1543,1.2271,1.2675,1.3045,1.3514,1.3861,1.4175,0.0,1.4629,1.481,1.5391,1.5384,1.5291,1.5291,1.5149,1.5008,1.5008,1.5008,1.5008,1.5008,1.5202,1.5204,1.5028,1.5357,1.5518,1.5304,1.5484,1.5611,1.5611,1.5678,1.5718,1.5718,1.5744,1.5784,1.5784,1.5784,1.5784,1.5784,1.5784,1.5784,1.5784,1.5784,1.5784,1.5784,1.5784,1.5952,1.6159,1.6159,1.6286,1.646,1.6246,1.6159,1.6146,1.5999,1.6219,1.6587,0.0,0.0,0.0,0.0,0.0,0.0,0.0,0.0,0.0,0.0,0.0,0.0,1.2949,1.2995,1.282,1.2398,1.28,1.3024,1.2896,1.3007,1.315,1.3316,1.3285,0.0,1.3272,1.2305,1.1926,1.2243,1.1272,1.1423,1.2699,1.2593,1.3177,1.4318,1.5123,1.4406,1.2653,1.4036,1.3471,1.1857,1.3852,1.3533,1.2065,1.3822,1.3452,1.2136,1.3666,1.3558,1.275,1.2777,1.2748,1.2589,1.1828,1.1591,1.156,0.0,0.0,0.0,1.0826,1.122,1.1628,1.1074,1.1539,1.2191,1.2362,1.2663,1.3045,1.3547,1.3673,1.3853,1.4482,1.481,1.5028,1.5028,1.5022,1.5008,1.5008,1.5008,1.5008,1.5008,1.5022,1.5028,1.5008,1.5035,1.5048,1.5035,1.5042,1.5055,1.5055,1.5271,1.5418,1.5418,1.5685,1.5784,1.5784,1.5784,1.5784,1.5784,1.5784,1.5784,1.5784,1.5784,1.5784,1.5784,1.5784,1.5791,1.5852,1.5852,1.5811,1.5872,1.5811,1.5852,1.5838,1.6152,1.6266,1.6422,0.0,0.0,0.0,0.0,0.0,0.0,0.0,0.0,0.0,0.0,0.0,0.0,0.0,1.3412,1.3403,1.3247,1.327,1.3397,1.3576,1.2936,1.2705,1.31,1.3042,1.308,1.3316,1.2513,1.2151,1.2182,1.1373,1.1396,1.2126,1.2527,1.3062,1.3797,1.5003,1.5003,1.4179,1.5797,1.5258,1.3371,1.4689,1.4477,1.3331,1.3507,1.3269,1.3029,1.4052,1.3809,1.3122,1.3909,1.4356,1.4324,1.2703,1.2645,1.2989,1.1838,1.1404,1.1324,1.1449,1.1435,1.1401,1.1532,1.1678,1.1881,1.2283,1.2465,1.2714,1.3288,1.3223,1.3193,1.3601,1.3921,1.4182,1.4369,1.4082,1.3841,1.3841,1.3841,1.3841,1.3841,1.4168,1.4249,1.3874,1.4566,1.4854,1.4429,1.4794,1.5008,1.5008,1.5109,1.5204,1.5391,1.5317,1.5277,1.5277,1.5645,1.5684,1.5558,1.5738,1.5784,1.5784,1.5784,1.5784,1.5784,1.5784,1.5784,1.5784,1.5784,1.5784,1.5784,1.5784,1.5784,1.5818,1.6166,1.6393,1.6607,0.0,0.0,0.0,1.261,0.0,1.3711,1.4382,1.4553,1.4664,1.4876,0.0,0.0,0.0,0.0,1.4292,1.4255,1.377,1.3561,1.3867,1.3054,1.2739,1.3078,1.3033,1.3072,1.3316,1.2544,1.2182,1.2282,1.1529,1.1372,1.179,1.2339,1.2785,1.3205,1.454,1.4957,1.4734,1.6253,1.5681,1.3981,1.5625,1.5518,1.4455,1.507,1.4843,1.4441,1.5513,1.5088,1.4132,1.4698,1.5337,1.5528,1.3493,1.3187,1.3341,1.2002,1.1466,1.1384,1.1752,1.1567,1.1319,1.157,1.1641,1.1764,1.2062,1.2057,1.2144,1.2724,1.2481,1.2315,1.2685,1.2832,1.3054,1.3694,1.3467,1.3213,1.3213,1.3213,1.3247,1.3307,1.3701,1.3788,1.3353,1.4062,1.4322,1.3828,1.4155,0.0,1.4516,1.466,1.485,1.5237,1.5109,1.5008,1.5008,1.5344,1.5444,1.5257,1.5545,1.5685,1.5691,1.5738,1.5784,1.5784,1.5784,1.5784,1.5784,1.5784,1.5784,1.5784,1.5784,1.5892,1.6012,1.6313,1.66,1.6894,1.2312,1.2517,1.2731,1.3159,1.3729,1.4239,1.4591,1.4982,1.5174,1.497,0.0,0.0,0.0,0.0,0.0,1.5399,1.4253,1.361,1.3722,1.345,1.3277,1.3302,1.3277,1.3277,1.3302,1.2336,1.2089,1.259,1.174,1.146,1.1696,1.2057,1.2333,1.265,1.3906,1.4346,1.4179,1.5212,1.4754,1.3649,1.6607,1.6621,1.5315,1.8601,1.8253,1.6222,1.7954,1.7414,1.5796,1.5131,1.5675,1.625,1.4255,1.3164,1.2483,1.1827,1.1474,1.1365,0.0,0.0,0.0,1.1052,1.1387,1.1778,1.1685,1.1373,1.1291,1.1815,1.1443,1.1203,1.1807,1.161,1.1804,1.3005,1.3166,1.3173,1.318,1.3186,1.3287,1.3533,1.3573,1.3573,1.356,1.358,1.3467,1.322,1.3206,1.3293,1.3573,1.3921,1.4349,1.4961,1.5001,1.5001,1.4981,1.5001,1.5008,1.4995,1.5244,1.5391,1.5404,1.5691,1.5771,1.5784,1.5784,1.5784,1.5784,1.5784,1.5784,1.5784,1.5784,1.6012,1.6306,1.66,1.6894,1.7246,1.2348,1.2733,1.3168,1.3572,1.4209,1.4926,1.5569,1.5734,1.5862,0.0,0.0,0.0,1.5314,1.57,1.5864,1.5553,1.4995,1.4559,1.4309,1.3338,1.2889,1.308,1.2897,1.2836,1.2936,1.256,1.2375,1.2367,1.1895,1.1659,1.1636,1.2064,1.2324,1.2513,1.3426,1.387,1.4049,1.5657,1.6096,1.5765,1.6592,1.6804,1.6619,1.6508,1.6219,1.5853,1.5869,1.5618,1.5255,1.5258,1.6822,1.8514,1.7223,1.5067,1.2841,1.2265,1.1901,1.1709,1.1903,0.0,0.0,0.0,0.0,0.0,1.275,1.2297,1.1885,1.2145,1.1765,1.153,1.2009,1.1729,1.1709,1.2678,1.2496,1.2318,1.2525,1.2552,1.2585,1.2665,1.2866,1.2945,1.2692,1.3034,1.3206,0.0,1.308,1.3247,1.3327,1.3814,1.4162,1.4322,1.4787,1.48,1.4335,1.4794,1.4901,1.4643,1.4943,1.5197,1.5398,1.5478,1.5631,1.5784,1.5784,1.5784,1.5784,1.5784,1.5784,1.5784,1.5784,1.6012,1.6306,1.66,1.6894,1.7246,1.3177,1.3737,1.4232,1.4484,1.5047,1.5642,1.6105,1.6281,1.6482,0.0,0.0,0.0,1.6237,1.6306,1.6323,1.6189,1.5392,1.4749,1.4453,1.3605,1.3072,1.2989,1.2981,1.2981,1.2997,1.2752,1.2498,1.2305,1.1957,1.174,1.1606,1.2127,1.2382,1.2479,1.3222,1.3591,1.3738,1.5024,1.5622,1.5769,1.6581,1.6938,1.6964,1.6993,1.682,1.6485,1.6231,1.619,1.6197,1.5813,1.6748,1.8086,1.8184,1.6501,1.4226,1.295,1.2572,1.2525,1.2348,1.2133,1.2027,1.2243,0.0,0.0,1.295,1.2432,1.1966,1.2185,1.1804,1.1626,1.2166,1.2059,1.2105,1.2871,1.2453,1.2006,1.1926,1.2044,1.2164,1.2285,1.2603,1.2717,1.2543,1.2844,1.2893,1.2623,1.2732,1.2939,1.32,1.3768,1.4088,1.4088,1.4422,1.4479,1.4088,1.4472,1.4509,1.4342,1.4807,1.5102,1.5224,1.5464,1.5671,1.5784,1.5784,1.5784,1.5784,1.5784,1.5784,1.5784,1.5784,1.6086,1.6473,1.6647,1.6967,1.7407,0.0,1.4969,1.5459,1.5541,1.5966,1.6331,1.6343,1.6679,1.6985,0.0,1.6937,1.686,1.7172,1.6912,1.6789,1.6911,1.5625,1.4666,1.4318,1.3983,1.354,1.3019,1.3246,1.3368,1.3272,1.2836,1.2529,1.2305,1.2019,1.1793,1.1657,1.2274,1.2574,1.2606,1.3257,1.3541,1.3532,1.3977,1.4279,1.4685,1.6491,1.6964,1.6789,1.8625,1.8484,1.7364,1.7637,1.7783,1.7734,1.6946,1.638,1.6337,1.8118,1.7634,1.6024,1.3792,1.3434,1.3546,1.2756,1.2216,1.1926,1.2305,1.2498,0.0,1.2683,1.2192,1.18,1.21,1.1776,1.1657,1.2314,1.2465,1.2666,1.3252,1.2759,1.2105,1.1614,1.172,1.1917,1.2171,1.2476,1.2636,1.2636,1.267,1.2576,1.2271,1.2285,1.2552,1.3126,1.3687,1.4001,1.4035,1.4068,1.4088,1.4088,1.4088,1.4088,1.4095,1.4649,1.4975,1.5028,1.5531,1.5751,1.5784,1.5784,1.5784,1.5784,1.5784,1.5784,1.5784,1.5818,1.6219,1.6707,1.674,1.7108,1.7582,1.4661,1.4934,1.5233,1.5885,1.6166,1.6422,1.6743,1.6862,1.7046,1.7378,1.7524,1.7487,1.7216,1.743,1.725,1.6501,1.619,1.5553,1.4379,1.389,1.3441,1.3028,1.2867,1.2858,1.305,1.2867,1.2621,1.2305,1.2406,1.2258,1.1948,1.265,1.3048,1.3145,1.3539,1.4119,1.4742,1.4513,1.4832,1.5496,1.5862,1.6518,1.7183,1.6918,1.6627,1.6324,1.6009,1.6346,1.7282,1.9455,1.8676,1.7188,1.9536,1.8661,1.6433,1.4662,1.4022,1.3781,1.3083,1.2576,0.0,0.0,1.2805,0.0,1.3246,1.2862,1.2429,1.248,1.2209,1.2091,1.2563,1.2505,1.2534,1.2931,1.2906,1.2743,1.2498,1.1888,1.153,1.1555,1.1615,1.1683,1.1683,1.194,1.2053,1.1993,1.2171,1.2458,1.2857,1.3186,1.3487,1.368,1.3961,1.4088,1.4088,1.4088,1.4088,1.4088,1.4436,1.473,1.5022,1.5324,1.5611,1.5784,1.5784,1.5784,1.5784,1.5784,1.5784,1.5852,1.6092,1.64,1.6734,1.6974,1.7333,1.7582,1.5343,1.5705,1.6021,1.6563,1.6943,1.725,1.7455,1.7589,1.7786,1.8193,1.8411,1.8324,1.7697,1.7916,1.7706,1.6737,1.7057,1.6529,1.4784,1.4896,1.4524,1.3339,1.3212,1.3192,1.3164,1.308,1.2928,1.2644,1.2683,1.2703,1.2723,1.3045,1.3418,1.3863,1.392,1.4821,1.6207,1.5002,1.5624,1.7391,1.6564,1.6392,1.6659,1.6705,1.6576,1.635,1.6386,1.668,1.7451,2.0029,1.9154,1.7307,1.9095,1.8565,1.6948,0.0,1.4653,1.4433,0.0,0.0,0.0,1.305,0.0,0.0,0.0,1.3011,1.2821,1.2827,1.2655,1.2625,1.3094,1.311,1.3145,1.345,1.3253,1.2919,1.2541,1.1976,1.149,1.1223,1.1209,1.1269,1.1375,1.1697,1.1966,1.2078,1.2395,1.2623,1.2777,1.318,1.3453,1.36,1.3935,1.4088,1.4088,1.4088,1.4162,1.4309,1.4603,1.4897,1.519,1.5478,1.5691,1.5784,1.5784,1.5784,1.5784,1.5784,1.5784,1.5811,1.6159,1.6446,1.674,1.7092,1.7293,1.744,1.6115,1.6568,1.6901,1.7204,1.7696,1.8041,1.8076,1.8254,1.848,1.888,1.9162,1.8971,1.8137,1.841,1.8194,1.7081,1.7935,1.7697,1.5704,1.621,1.5859,1.4217,1.3985,1.3733,1.3417,1.3464,1.3339,1.3072,1.3085,1.3237,1.3533,1.357,1.3928,1.4584,1.4434,1.5486,1.7273,1.5511,1.6283,1.86,1.7234,1.6618,1.6581,1.7015,1.7024,1.6895,1.7167,1.7435,1.7952,2.0034,1.9263,1.7625,1.8686,1.8466,0.0,0.0,0.0,0.0,0.0,0.0,0.0,0.0,0.0,1.3283,0.0,0.0,0.0,1.3105,0.0,0.0,0.0,0.0,0.0,0.0,0.0,0.0,0.0,1.1977,0.0,1.1022,1.0992,1.1076,1.1242,1.1578,1.1931,1.2278,1.2563,1.2697,1.2697,1.3233,1.352,1.352,1.3901,1.4088,1.4088,1.4088,1.4208,1.4442,1.4841,1.5129,1.5324,1.5671,1.5784,1.5784,1.5784,1.5784,1.5784,1.5784,1.5784,1.5811,1.6159,1.642,1.6667,1.7072,1.7199,1.7246,1.664,1.6865,1.7021,1.7394,1.7671,1.7872,1.8076,1.8109,1.8265,1.8698,1.9054,1.8891,1.7878,1.8834,1.8861,1.7075,1.8686,1.9172,1.777,1.7261,1.6741,1.6112,1.4849,1.4038,1.3853,1.4064,1.3893,1.3268,1.3862,1.4094,1.4032,1.4386,1.4851,1.5384,1.5353,1.5933,1.695,1.6279,1.6366,1.6944,1.6394,1.7289,1.8706,1.6918,1.6912,1.7765,1.7025,1.7502,1.8738,0.0,2.0203,1.9232,0.0,1.9535,1.7953,1.6546,0.0,0.0,0.0,0.0,0.0,0.0,1.4909,0.0,0.0,0.0,1.3033,1.3252,0.0,0.0,0.0,0.0,0.0,0.0,0.0,0.0,1.2095,1.1819,1.1466,1.0805,1.0929,1.1019,1.0793,1.1186,1.1703,1.2265,1.2331,1.2351,1.2351,1.2933,1.326,1.326,1.3801,1.4088,1.4088,1.4088,1.4108,1.4142,1.474,1.5028,1.5075,1.5578,1.5784,1.5784,1.5784,1.5784,1.5784,1.5784,1.5784,1.5811,1.6159,1.6342,1.6386,1.6998,1.7199,1.7246,1.6992,1.7129,1.7364,1.7935,1.8088,1.8364,1.9051,1.9156,1.9102,1.9075,1.9201,1.9279,1.9215,1.9722,1.9431,1.7906,1.926,1.9307,1.7269,1.725,1.7034,1.6433,1.5349,1.4709,1.4488,1.4345,1.4297,1.4347,1.4444,1.4568,1.4732,1.5018,1.5283,1.5506,1.5442,1.6272,1.7592,1.6491,1.7323,1.9295,1.8497,1.9165,2.0315,1.7265,1.6823,1.7887,1.7967,1.8549,1.9378,0.0,1.9942,0.0,0.0,0.0,0.0,1.8828,0.0,0.0,0.0,0.0,0.0,0.0,0.0,0.0,1.4842,0.0,1.3588,0.0,0.0,0.0,0.0,0.0,0.0,0.0,1.2698,0.0,0.0,0.0,1.1564,0.0,0.0,0.0,1.1305,1.1304,1.1592,0.0,1.226,1.2224,1.2339,1.2901,1.3213,1.3213,1.3781,1.4088,1.4088,1.4088,1.4168,1.4342,1.4807,1.5095,1.5231,1.5645,1.5784,1.5784,1.5784,1.5784,1.5784,1.5784,1.5784,1.5791,1.5965,1.6219,1.6573,1.7045,1.7199,1.7246,1.7458,1.7624,1.7862,1.8309,1.8572,1.8966,1.9725,1.983,1.979,1.9644,1.9641,1.9947,2.074,2.092,2.0481,1.9301,2.012,1.9812,0.0,1.7853,1.7707,1.6809,1.6219,1.5824,1.5661,1.5223,1.5287,1.5897,1.5255,1.5173,1.5578,1.5566,1.5683,1.5866,1.5791,1.6514,1.7738,1.6495,1.7494,1.9811,1.8884,1.9072,1.9687,1.768,1.7226,1.7725,1.8455,1.9104,1.9616,1.9621,1.9997,0.0,2.0355,2.0593,2.0777,0.0,0.0,0.0,1.8511,0.0,0.0,0.0,0.0,0.0,0.0,0.0,0.0,0.0,0.0,0.0,0.0,0.0,0.0,0.0,0.0,1.2051,0.0,1.1778,0.0,0.0,0.0,0.0,0.0,1.1308,1.1397,0.0,0.0,1.2116,1.2436,1.2951,1.3239,1.332,1.3821,1.4088,1.4088,1.4088,1.4229,1.4479,1.4823,1.5162,1.5404,1.5698,1.5784,1.5784,1.5784,1.5784,1.5784,1.5784,1.5784,1.5784,1.5784,1.6139,1.6627,1.6971,1.7079,1.7132,1.8171,1.8482,1.8508,1.8325,1.9006,1.9583,1.9592,1.9597,1.9805,2.0374,2.0536,2.0951,2.2027,2.2473,2.2291,2.1291,2.1619,2.1279,1.9979,1.9713,1.9087,1.7798,1.7731,1.7671,1.7624,1.703,1.7121,1.79,1.6538,1.6109,1.6551,1.5974,1.6122,1.6839,1.6651,1.666,1.6807,1.6394,1.622,1.6223,1.5743,1.5557,1.5851,0.0,1.8249,1.7322,1.806,0.0,0.0,2.0539,2.0949,0.0,0.0,0.0,0.0,0.0,0.0,0.0,0.0,0.0,0.0,1.9199,0.0,0.0,0.0,0.0,1.401,0.0,0.0,0.0,0.0,0.0,0.0,0.0,0.0,0.0,0.0,0.0,0.0,0.0,0.0,0.0,0.0,1.1005,1.1086,0.0,0.0,0.0,1.2574,1.3037,1.3377,1.3573,1.3928,1.4088,1.4088,1.4088,1.4229,1.4479,1.4823,1.5162,1.5404,1.5698,1.5784,1.5784,1.5784,1.5784,1.5784,1.5784,1.5784,1.5784,1.5784,1.6019,1.6375,1.6613,1.672,1.68,1.9336,1.9433,1.9446,1.9372,1.928,1.9344,1.9817,2.0304,2.1014,2.1973,2.1971,2.2493,2.4183,2.4513,2.4002,2.2499,0.0,2.1235,1.9196,1.8947,0.0,1.757,1.7697,1.7929,0.0,1.7445,1.8054,2.0053,1.7988,1.7345,1.809,1.7023,1.6556,1.6683,1.6334,1.6044,1.5796,1.6607,1.7148,1.7563,1.8486,1.9265,1.9739,0.0,1.7403,1.7627,1.8741,1.9828,0.0,2.1604,2.211,2.2407,2.2524,2.2839,2.309,2.2845,2.2902,0.0,0.0,0.0,2.1716,1.9878,0.0,0.0,0.0,0.0,0.0,0.0,0.0,0.0,0.0,0.0,0.0,0.0,0.0,0.0,0.0,0.0,0.0,0.0,0.0,0.0,0.0,0.0,0.0,0.0,0.0,0.0,0.0,1.2785,1.3267,1.3586,1.4122,1.4369,1.4369,1.4569,1.476,1.4816,1.511,1.5304,1.5404,1.5698,1.5784,1.5784,1.5784,1.5784,1.5784,1.5784,1.5784,1.5784,1.5784,1.5892,1.6039,1.6526,1.6834,1.7105,2.0085,2.0014,1.9884,1.9809,1.9725,1.9928,2.0661,2.1378,2.2156,2.3073,2.3472,2.43,2.597,2.611,2.5672,0.0,2.3558,2.2025,1.9798,1.962,0.0,1.7465,1.7943,1.8323,0.0,0.0,1.9017,2.1151,1.9221,1.8594,1.9157,1.7751,1.6977,1.6692,1.6446,1.6083,1.5735,1.6592,1.7298,1.7997,1.966,2.0775,0.0,0.0,1.7903,1.8286,0.0,2.0174,2.0962,2.1747,2.2355,2.2844,2.3045,2.3535,2.403,2.3874,2.401,2.4131,2.3467,2.3339,0.0,2.0707,2.049,0.0,1.8297,0.0,0.0,0.0,0.0,0.0,0.0,0.0,0.0,0.0,0.0,0.0,0.0,1.1465,0.0,0.0,0.0,0.0,0.0,0.0,0.0,0.0,0.0,0.0,0.0,0.0,1.3049,1.358,1.4173,1.4522,1.4522,1.4816,1.5062,1.5117,1.5304,1.5451,1.5558,1.5745,1.5784,1.5784,1.5784,1.5784,1.5784,1.5784,1.5784,1.5784,1.5784,1.5892,1.6046,1.6526,1.6961,1.738,2.0451,2.0242,1.9885,1.9725,2.0409,2.1248,2.2096,2.2577,2.3116,2.3731,2.4985,2.6218,2.7249,2.7296,2.7325,2.7493,2.5639,2.366,2.1859,2.1773,0.0,0.0,1.8512,1.8933,1.8704,0.0,0.0,0.0,2.0311,1.9799,1.9779,1.8273,1.7351,1.7005,1.6952,1.6795,1.6584,1.6464,1.6759,1.7492,1.9254,1.9955,1.9944,1.9966,1.9715,1.9375,1.9712,1.9787,1.9913,2.112,2.1895,2.2406,2.2907,2.3083,2.3108,2.3108,2.3108,2.3039,2.2667,2.3375,2.3728,2.1744,0.0,0.0,0.0,0.0,1.6507,0.0,0.0,0.0,0.0,0.0,0.0,0.0,0.0,0.0,0.0,0.0,1.0889,0.0,0.0,0.0,0.0,0.0,0.0,0.0,0.0,0.0,0.0,0.0,1.2746,1.3567,1.4186,1.4549,1.4519,1.4856,1.5189,1.5418,1.5418,1.5611,1.5872,1.5832,1.5872,1.5967,1.5825,1.5825,1.5872,1.5832,1.5784,1.5784,1.5784,1.6019,1.6333,1.662,1.7088,1.7582,2.1184,2.0909,2.0711,2.0958,2.1348,2.1812,2.2347,0.0,0.0,2.5193,2.5646,2.6401,2.8229,2.8834,2.8797,2.7997,2.6777,0.0,0.0,0.0,0.0,1.9093,1.9529,1.9452,1.8738,1.9454,2.0777,2.2802,0.0,2.1285,2.1516,1.9407,1.8397,1.8343,1.7515,1.7314,1.7638,1.7896,1.8491,1.9363,2.0153,2.0618,2.0816,0.0,2.1178,2.1195,2.0509,2.0819,2.1666,2.1988,2.2443,2.2844,2.2581,2.2782,2.3108,2.3108,2.3108,2.316,2.3505,2.3832,2.3776,2.2624,2.2849,2.2891,0.0,0.0,0.0,0.0,0.0,0.0,0.0,0.0,0.0,0.0,0.0,0.0,0.0,0.0,0.0,1.0343,0.0,0.0,0.0,0.0,0.0,0.0,0.0,0.0,0.0,0.0,0.0,1.3567,1.4429,1.4957,1.517,1.5458,1.5645,1.5718,1.5718,1.6223,1.7178,1.6251,1.6796,1.8442,1.6608,1.6339,1.7131,1.6204,1.5784,1.5784,1.5784,1.6146,1.6633,1.6927,1.732,1.7582,2.1619,2.132,2.1162,2.159,2.2035,0.0,2.3368,2.3671,0.0,2.6236,2.6813,0.0,2.8314,2.9224,2.9434,2.8517,2.7724,0.0,2.5075,0.0,0.0,2.0695,2.0064,1.9482,1.8881,1.924,0.0,2.2017,2.1537,2.1515,2.1918,2.0293,1.938,1.9075,1.8415,1.8237,1.8524,1.8876,1.9998,2.1498,2.1601,2.1904,0.0,2.2408,2.2329,2.2046,2.1448,2.1687,2.2309,2.2309,2.2656,2.3045,2.2744,2.2857,2.3108,2.3108,2.3108,2.317,2.3496,2.3615,2.3492,2.299,2.3059,2.2965,2.1922,2.1874,2.1565,0.0,0.0,0.0,0.0,0.0,0.0,0.0,0.0,0.0,0.0,0.0,0.0,0.0,1.0146,0.0,0.0,0.0,0.0,0.0,0.0,0.0,0.0,0.0,0.0,1.3331,1.4699,1.5539,1.5936,1.693,1.7436,1.739,1.6889,1.7264,1.8457,1.7217,1.7669,1.9405,1.749,1.7037,1.7598,1.6339,1.5784,1.5899,1.6718,1.7274,1.7683,1.8774,1.8861,1.8551,2.1858,2.1606,2.1544,2.1896,2.2571,0.0,0.0,2.5322,0.0,2.6901,0.0,2.8539,2.794,2.8978,2.9453,2.8838,2.831,2.7407,2.5973,2.493,2.3707,2.2173,2.0521,1.9467,1.9104,1.9041,1.958,0.0,2.0963,2.1366,2.1924,2.1066,2.0266,1.9574,1.9452,1.9352,1.9267,1.9661,2.1074,2.3063,2.2873,2.3111,2.3522,2.3594,2.3107,2.2393,2.2393,2.2393,2.238,2.2305,2.2656,2.3095,2.302,2.3045,2.3108,2.3108,2.3108,2.3108,2.3108,2.3108,2.3108,2.3108,2.2567,2.2063,2.2063,2.1459,2.0687,1.9814,2.0894,2.1504,0.0,0.0,0.0,0.0,0.0,0.0,0.0,0.0,0.0,0.0,0.0,0.0,0.0,0.0,0.0,0.0,0.0,0.0,0.0,0.0,0.0,1.3134,1.4999,1.6275,1.687,0.0,1.9497,1.9497,1.8457,1.8549,1.9679,1.8503,1.868,1.9906,1.8549,1.7963,1.7824,1.6574,1.5967,1.5974,1.7865,1.866,1.8962,2.1079,2.1103,2.029,2.1847,2.226,2.253,2.2359,0.0,2.4742,2.6065,2.5648,2.5753,2.7358,2.7805,2.7949,2.7907,2.8584,2.8825,2.8298,2.7745,0.0,0.0,0.0,0.0,2.2666,2.1902,2.0773,1.9134,2.0129,2.1263,2.2444,2.2182,2.2675,2.3788,2.1883,2.0851,2.0538,2.0183,1.9981,1.9969,2.0718,0.0,2.14,2.2126,2.2441,2.2578,2.3039,2.3087,2.2957,2.2957,2.2957,2.2895,2.2443,2.2656,2.302,2.2569,2.2732,2.3108,2.3108,2.3108,2.3108,2.3108,2.3108,2.3108,2.3108,2.2975,2.2884,2.2884,2.275,2.2433,2.1616,2.2197,2.239,2.0875,0.0,0.0,0.0,0.0,0.0,0.0,0.0,0.0,0.0,0.0,1.2998,0.0,0.0,0.0,0.0,0.0,0.0,0.0,0.0,0.0,0.0,1.5405,0.0,0.0,0.0,1.9497,1.9497,1.9268,1.9824,2.0917,1.9733,2.0404,2.2369,2.0133,1.9177,1.9085,1.7863,1.6763,1.5953,1.7584,1.8417,1.9037,2.1793,2.2853,2.2876,2.3053,2.3164,2.3305,2.3627,0.0,0.0,0.0,2.7103,2.7329,2.8221,2.833,2.8283,2.8015,2.8523,2.8549,2.7758,2.7168,2.665,2.6084,2.5234,2.4359,2.3426,2.2445,2.157,2.0783,2.0296,2.1117,2.3221,2.2432,2.2687,2.3926,2.2999,2.2112,2.1295,2.0824,2.1146,2.2038,0.0,0.0,2.1904,2.2199,2.2456,2.2732,2.3007,2.3108,2.3108,2.3108,2.3108,2.3058,2.2794,2.2882,2.3058,2.2794,2.2895,2.3108,2.3108,2.3108,2.3108,2.3108,2.3108,2.3108,2.3108,2.3108,2.3108,2.3108,2.3108,2.2884,2.2075,2.2537,2.2923,2.2254,2.0215,0.0,0.0,0.0,0.0,0.0,0.0,1.259,0.0,0.0,0.0,0.0,0.0,0.0,0.0,0.0,0.8667,0.9225,0.0,0.0,0.0,0.0,0.0,0.0,0.0,0.0,2.0411,2.0437,2.1078,2.2192,2.0989,2.14,2.3003,2.1212,2.044,2.0305,1.8457,1.7044,1.6278,1.8619,1.9716,2.0352,2.3307,2.4538,2.4658,2.4561,2.4381,0.0,0.0,2.5731,2.6607,2.7736,2.8451,2.8923,2.9074,2.9076,2.885,2.8185,2.8499,2.831,2.7241,2.6637,2.6072,2.5473,2.4531,2.3941,2.3816,2.2751,2.2189,2.2293,2.0635,2.105,2.3641,2.2684,2.2783,2.3856,2.3884,2.3175,0.0,0.0,0.0,0.0,0.0,2.1851,2.2667,2.2536,2.2719,2.3108,2.3108,2.3108,2.3108,2.3108,2.3108,2.3108,2.3108,2.3108,2.3108,2.3108,2.3108,2.3108,2.3108,2.3108,2.3108,2.3108,2.3108,2.3108,2.3108,2.3108,2.3108,2.3108,2.3108,2.2914,2.2292,2.2506,2.2849,2.2879,2.061,0.0,0.0,0.0,0.0,0.0,0.0,0.0,0.0,0.0,0.0,1.1984,0.0,0.0,0.0,0.0,0.8963,0.979,1.0171,1.1715,0.0,0.0,1.7837,1.9372,0.0,2.2317,2.1686,2.1689,2.2173,2.3047,2.2129,2.2217,2.3047,2.2076,2.1525,2.1114,1.8948,1.7683,1.7382,2.0013,2.1306,2.1985,2.4609,2.5606,2.5693,0.0,0.0,0.0,0.0,0.0,2.7844,2.8191,2.8717,2.9242,2.9663,2.9716,2.9302,2.8222,2.8147,2.7733,2.6663,2.6047,2.5448,2.4888,2.433,2.3766,2.3208,2.3072,2.2785,2.2293,2.2101,2.2665,0.0,2.3741,2.3962,0.0,2.4157,0.0,0.0,0.0,0.0,0.0,2.2488,2.2517,2.238,2.284,2.3058,2.3108,2.3108,2.3108,2.3108,2.3108,2.3108,2.3108,2.3108,2.3108,2.3108,2.3108,2.3108,2.3108,2.3108,2.3108,2.3108,2.3108,2.3108,2.3108,2.3108,2.3108,2.3108,2.3108,2.3108,2.3078,2.3005,2.2476,2.1839,2.1325,2.124,2.0769,0.0,0.0,0.0,0.0,0.0,1.5262,1.2876,0.0,0.0,1.5167,1.4053,0.0,0.0,1.0339,0.9275,1.0869,1.0865,1.3098,1.7996,0.0,1.8356,2.2982,2.1805,2.1764,2.293,2.2921,2.3003,2.3091,2.3003,2.3003,2.3091,2.3003,2.2306,2.1203,1.9898,1.9472,1.9892,2.1351,2.24,2.3251,2.467,2.5391,2.5693,0.0,0.0,0.0,0.0,0.0,0.0,0.0,2.8609,2.8819,2.969,2.949,2.8976,2.8185,2.7808,2.7341,2.6562,2.5176,2.4241,2.4034,2.2726,2.2091,2.2365,2.2384,2.25,2.2782,2.2456,2.3045,0.0,0.0,0.0,0.0,0.0,0.0,0.0,0.0,2.302,2.3692,2.2862,2.26,2.2794,2.3007,2.3108,2.3108,2.3108,2.3108,2.3108,2.3108,2.3333,2.3653,2.3653,2.3396,2.3108,2.3108,2.3108,2.3108,2.3108,2.3108,2.3108,2.3108,2.3108,2.3108,2.3108,2.3108,2.3108,2.3108,2.3108,2.3108,2.3108,2.2445,2.1973,2.2213,2.2012,2.1655,0.0,0.0,0.0,0.0,0.0,0.0,1.6937,0.0,1.691,0.0,1.511,0.0,0.0,0.0,0.9592,1.0237,1.1513,0.0,1.6586,0.0,1.9447,2.139,2.2149,2.2326,2.2044,2.2761,2.3091,2.3091,2.3091,2.3091,2.3091,2.3091,2.2403,2.1248,2.08,2.052,2.0545,2.1846,2.2858,2.3712,2.4967,2.5586,2.5693,2.8339,0.0,2.8046,0.0,2.8259,2.8267,2.8802,2.843,2.8398,2.9189,2.88,2.836,2.8134,2.7607,2.709,2.6549,2.4789,2.3635,2.3513,2.1801,2.109,2.1858,2.1908,0.0,2.3065,2.2732,2.3131,2.4362,2.5187,0.0,0.0,0.0,0.0,0.0,2.3066,2.3288,2.4296,2.3062,2.2744,2.3108,2.3108,2.3108,2.312,2.3296,2.3358,2.3384,2.3547,2.376,2.4004,2.4004,2.3728,2.3358,2.3358,2.3246,2.3108,2.3108,2.3108,2.3108,2.3108,2.3108,2.3108,2.3108,2.3108,2.3108,2.3108,2.3108,2.3108,2.3108,2.2641,2.2396,2.2805,2.253,2.2351,2.2693,0.0,0.0,0.0,2.0095,0.0,0.0,1.7894,1.7357,1.8039,1.6246,0.0,0.0,0.0,0.0,0.0,0.0,0.0,0.0,0.0,0.0,0.0,2.2359,2.2545,2.1824,2.2679,2.3091,2.3091,2.3091,2.3091,2.3091,2.3091,2.2633,2.1854,2.1974,2.1925,2.183,2.2921,2.3742,2.4402,2.5333,2.5693,2.5693,2.8923,2.8998,2.9097,2.9097,2.8666,2.8307,2.8319,2.8184,2.8109,2.8122,2.7645,2.7507,2.8047,2.7607,2.709,2.6549,2.5095,2.3994,2.3537,2.2056,2.1411,0.0,0.0,2.2292,2.3065,2.3095,2.3108,2.3133,0.0,0.0,2.345,0.0,2.3843,2.2859,2.377,2.3781,2.3133,2.3108,2.3095,2.3108,2.3108,2.3108,2.317,2.3766,2.3991,2.4054,2.4575,2.4424,2.4004,2.4004,2.3991,2.3991,2.3991,2.359,2.3108,2.3108,2.3108,2.3108,2.3108,2.3108,2.3108,2.3108,2.3108,2.3108,2.3108,2.3108,2.3108,2.3108,2.3078,2.2945,2.2393,2.2732,2.3047,2.2921,0.0,0.0,0.0,0.0,0.0,1.7992,1.8722,1.9559,2.0005,1.7897,0.0,0.0,0.0,0.0,0.0,0.0,0.0,2.0592,1.9808,0.0,2.4394,2.2434,2.199,2.3081,2.3091,2.3091,2.3091,2.3091,2.3091,2.3091,2.3091,2.3091,2.313,2.3559,2.3988,2.4407,2.4893,2.5332,2.5684,2.5684,2.5693,2.5693,2.8463,2.8674,2.8855,2.8472,2.7965,2.773,2.8101,2.7502,2.7291,2.8009,2.7293,2.6964,2.7494,2.709,2.6524,0.0,2.4004,2.2605,0.0,2.0165,1.9458,2.0477,2.1182,2.1908,2.2686,2.3362,2.3496,2.3108,0.0,0.0,0.0,2.421,2.3726,2.3022,2.3313,2.3324,2.3108,2.3108,2.3108,2.3108,2.3108,2.3108,2.317,2.3778,2.4004,2.4067,2.4619,2.502,2.5363,2.5829,2.606,2.6254,2.6718,2.5649,2.4173,2.381,2.396,2.4249,2.4249,2.4249,2.4161,2.3785,2.3715,2.3615,2.3195,2.3108,2.3108,2.3108,2.3108,2.3045,2.2882,2.2982,2.3233,2.3603,2.298,0.0,0.0,0.0,2.096,2.2212,2.0128,1.9383,2.1469,1.9901,0.0,0.0,0.0,0.0,0.0,0.0,0.0,0.0,2.0985,0.0,2.3123,2.2939,2.2914,2.3091,2.3091,2.3091,2.3091,2.3091,2.3091,2.3091,2.3091,2.3091,2.313,2.3613,2.4033,2.4463,2.4893,2.5342,2.5693,2.5693,2.5879,2.6182,2.8237,2.8386,2.8511,2.816,2.7657,2.7394,2.7745,2.7241,2.6977,2.7419,2.7102,2.6851,2.6989,2.67,0.0,2.5176,2.3477,2.2012,2.0973,1.9383,1.8899,1.9868,2.1016,2.1989,2.2793,2.3791,0.0,2.3735,2.4273,2.4571,2.4559,2.3935,2.3446,2.3108,2.3108,2.3108,2.3108,2.3108,2.3108,2.3108,2.3108,2.3233,2.3496,2.4092,2.4431,2.4669,2.5234,2.5813,2.6332,2.6778,2.7211,2.7626,2.7795,2.6952,2.5697,2.473,2.4621,2.475,2.4537,2.4637,2.4662,2.4142,2.4004,2.3841,2.3233,2.3108,2.3108,2.3108,2.3108,2.3108,2.3108,2.3108,2.3221,2.3584,2.3346,2.3434,2.4381,0.0,2.1469,0.0,0.0,0.0,0.0,2.1403,2.0908,0.0,0.0,0.0,0.0,0.0,0.0,1.9515,2.1928,0.0,2.2883,2.3278,2.3373,2.3091,2.3091,2.3091,2.3091,2.3091,2.3091,2.3091,2.3091,2.3188,2.3418,2.3848,2.4277,2.4707,2.5146,2.5488,2.5693,2.5693,2.6016,2.6387,2.8109,2.8021,2.8034,0.0,2.757,0.0,2.7218,2.7291,2.7115,2.6562,2.7002,2.7153,2.6562,2.6524,2.5918,2.4378,0.0,0.0,0.0,1.9631,1.9497,1.9982,2.1332,2.2469,2.3337,2.4345,2.4813,2.4725,2.4255,2.3979,2.3929,2.3358,2.3108,2.3108,2.3108,2.3108,2.3108,2.3108,2.3108,2.3108,2.3108,2.3446,2.4054,2.4607,2.5146,2.5674,2.6285,2.6681,2.691,2.7014,2.7588,2.8191,2.7753,2.7738,2.7523,2.5809,2.5135,2.482,2.4305,2.4544,2.4808,2.4255,2.4054,2.3841,2.3233,2.3108,2.3108,2.3108,2.3108,2.3108,2.3108,2.3108,2.3108,2.3108,2.3108,2.3283,2.3785,0.0,2.1032,0.0,0.0,0.0,0.0,2.2488,2.2895,0.0,0.0,0.0,0.0,0.0,2.0033,2.0479,2.2611,2.3667,2.346,2.346,2.3373,2.3091,2.3091,2.3091,2.3091,2.312,2.312,2.3101,2.3159,2.3437,2.3828,2.4277,2.4717,2.5156,2.5528,2.5703,2.5732,2.5732,2.6055,2.6435,0.0,0.0,2.7344,2.6952,2.6776,2.6688,2.6688,2.7052,2.7115,2.6562,2.7306,2.7544,2.66,2.6876,2.6191,2.39,2.3213,2.2337,2.104,1.9905,1.9803,2.0984,2.2103,2.3085,2.3973,2.4932,2.5008,2.4192,2.4067,2.3766,2.3308,2.317,2.3108,2.3108,2.3108,2.3108,2.3108,2.3108,2.3108,2.3108,2.3108,2.3446,2.4054,2.4607,2.5146,2.5674,2.6285,2.6588,2.6937,2.8125,2.8725,2.9199,3.0207,3.0114,2.926,2.7135,2.631,2.6084,2.5946,2.6009,2.5971,2.536,2.4607,2.3841,2.3233,2.3108,2.3108,2.3108,2.3108,2.3108,2.3108,2.3108,2.3108,2.3108,2.3108,2.2887,2.2344,2.1378,0.0,0.0,2.1885,2.2199,2.4039,2.3623,2.373,0.0,0.0,0.0,0.0,2.2472,2.1424,2.1522,2.2673,2.3222,2.3188,2.3188,2.3144,2.3091,2.3091,2.3091,2.311,2.3486,2.3457,2.313,2.3783,2.3994,2.3848,2.46,2.5176,2.5586,2.5645,2.5937,2.623,2.623,2.6504,2.6914,2.777,2.762,2.7557,2.7268,2.704,2.6876,2.6876,2.7306,2.7457,2.6939,2.7795,2.8059,2.6989,2.714,2.6529,2.463,2.3491,2.2243,2.0704,1.9946,2.0102,2.1345,2.2542,2.36,2.4553,2.5534,2.5573,2.4732,2.4494,2.4079,2.3496,2.3233,2.3108,2.3108,2.3108,2.3108,2.3108,2.3108,2.3108,2.3108,2.3108,2.3609,2.4406,2.4675,2.531,2.6059,2.6386,2.6801,2.7287,2.8126,2.9,2.9911,3.069,3.0644,2.997,2.8333,2.7485,2.6909,2.6261,2.6298,2.6361,2.5737,2.4983,2.423,2.3622,2.3496,2.3421,2.3158,2.3108,2.3108,2.3108,2.3108,2.3108,2.3108,2.2745,2.2275,2.1773,2.1062,0.0,2.2341,2.2255,2.2908,2.4968,2.4509,2.4384,2.5107,2.4272,0.0,2.4069,2.3769,2.332,2.2773,2.2965,2.3091,2.3091,2.3091,2.3091,2.3091,2.3091,2.3091,2.311,2.3594,2.3662,2.3477,2.4131,2.4394,2.4414,2.492,2.5449,2.6035,2.6035,2.6299,2.667,2.667,2.6943,2.7344,2.8787,2.8423,2.8109,2.8109,2.7657,2.7281,2.7281,2.7758,2.7908,2.7356,2.8247,2.8511,2.7406,2.7281,2.6829,2.5699,2.4141,2.2377,2.044,2.0275,2.0666,2.167,2.2853,2.4036,2.5194,2.606,2.6172,2.5473,2.5034,2.4462,2.3853,2.3333,2.3108,2.3108,2.3108,2.3108,2.3108,2.3108,2.3158,2.3233,2.3233,2.391,2.4913,2.4913,2.5573,2.6499,2.6499,2.6939,2.7537,2.767,2.8684,2.995,3.0238,3.0208,2.995,2.9223,2.8363,2.7399,2.6071,2.6122,2.6361,2.5737,2.5259,2.4795,2.4243,2.4117,2.3991,2.3459,2.3358,2.3333,2.3246,2.3233,2.3258,2.3376,2.2533,2.1883,2.1956,0.0,2.1294,2.2469,2.2926,2.3839,2.5557,2.5322,2.5103,2.524,2.5947,2.5553,2.3568,2.4675,2.4987,2.4179,2.3491,2.3091,2.3091,2.3091,2.3091,2.3091,2.3091,2.313,2.3208,2.3682,2.3887,2.3906,2.4404,2.4785,2.5116,2.5184,2.5684,2.6475,2.6406,2.6689,2.7119,2.7119,2.7344,2.7728,2.8323,2.816,2.8109,2.8109,2.7657,2.7281,2.7281,2.7758,2.7908,2.7356,2.8247,2.8511,2.7406,2.7281,2.6829,2.5699,2.5042,2.3977,2.2384,2.1887,2.211,2.3146,2.336,2.4361,2.6245,2.6418,2.5996,2.4913,2.4825,2.4261,2.3233,2.3145,2.3108,2.3108,2.3108,2.3108,2.3108,2.3108,2.3384,2.3866,2.3866,2.4506,2.5473,2.5473,2.5921,2.6499,2.6499,2.6589,2.6782,2.7484,2.7887,2.8363,2.9858,2.9797,2.9192,2.9034,2.8363,2.7491,2.6599,2.6424,2.6361,2.5737,2.5536,2.5335,2.4808,2.4695,2.4637,2.455,2.4525,2.4387,2.3954,2.3866,2.4066,2.4691,2.3536,2.2733,2.3213,0.0,2.3067,2.3172,2.4332,2.5465,2.6298,2.6285,2.623,2.6267,2.6054,2.6239,2.6966,2.534,2.4821,2.5697,2.4008,2.3091,2.3091,2.3091,2.3091,2.3091,2.3091,2.3286,2.3701,2.4121,2.4316,2.4365,2.5128,2.5352,2.5145,2.5478,2.6143,2.6885,2.6523,2.6875,2.7568,2.7568,2.766,2.7767,2.9063,2.9013,2.9013,2.9013,2.8549,2.8172,2.8172,2.8386,2.8461,2.8197,2.8888,2.9089,2.826,2.7896,2.7394,2.6578,2.6072,2.5262,2.4036,2.2731,2.2702,2.4228,2.3781,2.4433,2.6452,2.6499,2.6097,2.5234,2.4926,2.4374,2.359,2.3246,2.3108,2.312,2.3434,2.3396,2.312,2.3446,2.3753,2.4004,2.4004,2.4632,2.5598,2.5598,2.595,2.6499,2.6499,2.6499,2.6555,2.6939,2.7351,2.7835,2.8652,2.8939,2.8907,2.8427,2.7703,2.6973,2.6589,2.6499,2.6436,2.616,2.6097,2.5912,2.536,2.5234,2.5159,2.485,2.4788,2.4713,2.4494,2.4192,2.4331,2.5369,2.3879,0.0,0.0,2.368,2.3479,2.3761,2.4847,2.5937,2.6851,2.6939,2.7065,2.7318,2.7149,2.7176,2.75,2.5876,2.509,2.5399,2.3887,2.3091,2.3091,2.3091,2.3091,2.3091,2.3379,2.3594,2.3809,2.4473,2.4766,2.4805,2.5449,2.5567,2.5449,2.5606,2.6191,2.6992,2.6807,2.7246,2.7998,2.7998,2.7998,2.8027,2.9792,2.9792,2.9792,2.9792,2.9315,2.8888,2.8888,2.8888,2.8888,2.8888,2.9315,2.9415,2.8938,2.8436,2.7883,2.7331,2.6927,2.6313,2.5418,2.3478,2.3036,2.4564,2.4156,2.4696,2.6452,2.6499,2.621,2.5598,2.5039,2.4575,2.4167,2.3434,2.3246,2.3509,2.3853,2.3816,2.3534,2.4004,2.4255,2.4368,2.4368,2.4946,2.5799,2.5799,2.6109,2.6499,2.6499,2.6499,2.6499,2.6499,2.6905,2.7451,2.7637,2.8019,2.833,2.7835,2.7129,2.6499,2.6499,2.6499,2.6499,2.6499,2.6499,2.6386,2.59,2.5799,2.5686,2.5285,2.5209,2.5159,2.4988,2.4657,2.4746,2.5927,0.0,0.0,0.0,2.4275,2.3916,2.4464,2.5407,2.6327,2.7241,2.7394,2.7657,2.8072,2.8222,2.8127,2.7698,2.67,2.5772,2.4819,2.3671,2.3091,2.3091,2.3091,2.3149,2.3247,2.3633,2.3896,2.4111,2.4812,2.5174,2.5244,2.5586,2.5693,2.5693,2.5801,2.6328,2.7021,2.7129,2.7627,2.8291,2.8291,2.8291,2.8291,2.9792,2.9792,2.9792,2.9792,2.9315,2.8888,2.8888,2.8888,2.8888,2.8888,2.8925,2.8938,2.89,2.8436,2.7883,2.7331,2.7278,2.7005,2.6421,2.4505,2.3441,2.3588,2.4409,2.5406,2.6499,2.6499,2.621,2.5598,2.5039,2.4763,2.4713,2.3609,2.3659,2.465,2.4205,2.4255,2.4675,2.4713,2.5046,2.5473,2.5473,2.585,2.6436,2.6436,2.6461,2.6499,2.6499,2.6499,2.6499,2.6499,2.6521,2.6714,2.7484,2.7229,2.6816,2.7517,2.7129,2.6499,2.6499,2.6499,2.6499,2.6499,2.6499,2.6487,2.6436,2.6436,2.6411,2.6386,2.6373,2.621,2.5636,2.5498,2.5753,2.6587,0.0,0.0,2.6405,2.5681,2.5086,2.5457,2.649,2.7228,2.7268,2.7745,2.8059,2.8109,2.8549,2.88,2.8762,2.8219,2.6977,2.4872,2.3671,2.3091,2.3091,2.3091,2.334,2.374,2.3769,2.4209,2.5028,2.5086,2.5293,2.5635,2.5674,2.5693,2.5713,2.6172,2.6611,2.7051,2.7461,2.7891,2.8291,2.8291,2.8291,2.8291,2.9792,2.9792,2.9792,2.9792,2.9616,2.9465,2.9465,2.9465,2.9465,2.9465,2.9465,2.9465,2.9465,2.895,2.8499,2.8323,2.767,2.7228,2.7014,2.5397,2.3854,2.2627,2.3514,2.4552,2.5558,2.5581,2.5775,2.6172,2.5573,2.531,2.5285,2.4499,2.4374,2.48,2.4933,2.4921,2.4813,2.5159,2.541,2.5598,2.5598,2.5971,2.6499,2.6499,2.6499,2.6499,2.6499,2.6499,2.6499,2.6499,2.6499,2.6555,2.685,2.6748,2.6555,2.6871,2.6967,2.6927,2.6587,2.6499,2.6499,2.6499,2.6499,2.6499,2.6499,2.6499,2.6499,2.6499,2.6499,2.6424,2.621,2.5837,2.5967,2.7094,0.0,2.5607,2.7081,2.6512,2.6149,2.6603,2.7017,2.7557,2.8235,2.8499,2.8762,2.9126,2.9352,2.9465,2.9465,2.8606,2.74,2.588,2.5431,2.452,2.3091,2.4038,2.4259,2.3799,2.4326,2.4803,2.5125,2.5361,2.5576,2.5693,2.5693,2.5889,2.6152,2.6318,2.6797,2.7432,2.765,2.792,2.8291,2.8291,2.8291,2.8291,2.9792,2.9792,2.9792,2.9792,2.9792,2.9792,2.9792,2.9792,2.9792,2.9792,2.9792,2.9792,2.9792,2.944,2.9126,2.8913,2.8084,2.7469,2.7329,2.585,2.4373,2.2999,2.3588,2.4445,2.5441,2.5476,2.5804,2.6499,2.5921,2.5686,2.585,2.5146,2.5008,2.5347,2.5523,2.5498,2.536,2.5724,2.5862,2.5862,2.5862,2.6135,2.6499,2.6499,2.6499,2.6499,2.6499,2.6499,2.6499,2.6499,2.6612,2.6751,2.6751,2.6876,2.7014,2.7014,2.7278,2.7457,2.7115,2.7014,2.6927,2.6587,2.6499,2.6537,2.6713,2.6612,2.6549,2.6713,2.6612,2.6499,2.6499,2.6172,2.6181,2.7088,2.6467,2.6206,2.7148,2.6829,2.67,2.7253,2.7444,2.7908,2.88,2.9051,2.9365,2.9767,2.9792,2.9792,2.9792,2.9067,2.8148,2.7046,2.7342,2.6539,2.4436,2.5473,2.5384,2.4199,2.5195,2.5506,2.5293,2.5547,2.5693,2.5693,2.5693,2.5986,2.6396,2.6533,2.7012,2.7728,2.7865,2.8037,2.8291,2.8291,2.8291,2.8291,2.9792,2.9792,2.9792,2.9792,2.9792,2.9792,2.9792,2.9792,2.9792,2.9792,2.9792,2.9792,2.9792,2.9792,2.9566,2.895,2.8436,2.7871,2.7354,2.585,2.5004,2.5004,2.5004,2.5441,2.6452,2.6499,2.6499,2.6499,2.5921,2.59,2.6474,2.5347,2.5423,2.6461,2.585,2.5925,2.6499,2.6499,2.6499,2.6499,2.6499,2.6499,2.6499,2.6499,2.6499,2.6499,2.6499,2.6499,2.6499,2.6499,2.6864,2.7329,2.7329,2.767,2.8109,2.8109,2.8109,2.8109,2.8109,2.8109,2.7846,2.6788,2.6512,2.665,2.7168,2.6901,2.6663,2.7216,2.6889,2.6512,2.6512,2.6512,2.6512,2.6512,2.6499,2.6499,2.6499,2.6499,2.6713,2.7231,2.777,2.8335,2.8838,2.9453,2.9792,2.9792,2.9792,2.9792,2.9792,2.9792,2.9287,2.8136,2.9197,2.9007,2.7338,2.7307,2.6571,2.5116,2.6352,2.6505,2.5693,2.5693,2.5693,2.5693,2.5693,2.5986,2.6426,2.6846,2.7275,2.7767,2.8125,2.8291,2.8291,2.8291,2.8291,2.8291,2.9792,2.9792,2.9792,2.9792,2.9792,2.9792,2.9792,2.9792,2.9792,2.9792,2.9792,2.9792,2.9792,2.9792,2.9729,2.9553,2.9013,2.8285,2.7379,2.6509,2.606,2.606,2.4696,2.4409,2.5441,2.5441,2.5804,2.6499,2.6323,2.6323,2.6487,2.616,2.6185,2.6487,2.6311,2.6336,2.6499,2.6499,2.6499,2.6499,2.6499,2.6499,2.6499,2.6499,2.6499,2.6499,2.6499,2.6738,2.7014,2.6625,2.7115,2.7858,2.7858,2.8235,2.8574,2.8222,2.8386,2.8562,2.821,2.8109,2.8021,2.7695,2.7607,2.7657,2.7821,2.7733,2.7657,2.7821,2.772,2.7607,2.7607,2.7607,2.7607,2.7607,2.7329,2.7168,2.7557,2.7281,2.7394,2.8323,2.8549,2.8875,2.9478,2.9691,2.9792,2.9792,2.9792,2.9792,2.9792,2.9792,2.9624,2.9314,2.9624,2.9521,2.8911,2.8923,2.8084,2.6388,2.7035,2.6812,2.5693,2.5693,2.5908,2.6191,2.6191,2.6611,2.7346,2.7422,2.7725,2.8115,2.8242,2.8291,2.8291,2.8291,2.8291,2.8291,2.9792,2.9792,2.9792,2.9792,2.9792,2.9792,2.9792,2.9792,2.9792,2.9792,2.9792,2.9792,2.9792,2.9792,2.9792,2.9792,2.9264,2.8461,2.7356,2.7002,2.6725,2.6499,2.5358,2.4957,2.5581,2.5581,2.5873,2.6499,2.6499,2.6499,2.6499,2.6499,2.6499,2.6499,2.6499,2.6499,2.6499,2.6499,2.6499,2.6499,2.6499,2.6499,2.6499,2.6499,2.6499,2.6499,2.6499,2.6851,2.7231,2.6939,2.7519,2.8473,2.8699,2.9001,2.9202,2.8875,2.9013,2.9202,2.8863,2.8775,2.8775,2.8775,2.8436,2.816,2.8386,2.826,2.8172,2.8386,2.826,2.8109,2.8109,2.8109,2.8109,2.8109,2.7821,2.772,2.8059,2.7821,2.7934,2.8787,2.8888,2.9151,2.9729,2.9792,2.9792,2.9792,2.9792,2.9792,2.9792,2.9792,2.9792,2.9792,3.0005,3.0189,3.0306,3.0512,2.9488,2.7169,2.7957,2.7389,2.5693,2.5869,2.6143,2.6396,2.6562,2.7031,2.7718,2.7718,2.7963,2.8291,2.8291,2.8291,2.8291,2.8291,2.8291,2.8291,2.9792,2.9792,2.9792,2.9792,2.9792,2.9792,2.9792,2.9792,2.9792,2.9792,2.9792,2.9792,2.9792,2.9792,2.9792,2.9792,2.9264,2.8486,2.7419,2.7341,2.7065,2.6512,2.6499,2.6499,2.6499,2.6499,2.6499,2.6499,2.6499,2.6499,2.6499,2.6499,2.6499,2.6499,2.6499,2.6499,2.6499,2.6499,2.6499,2.6499,2.6499,2.6524,2.6562,2.6512,2.6549,2.6637,2.6587,2.6952,2.7444,2.7494,2.8147,2.9001,2.9616,2.9792,2.9792,2.9792,2.9869,2.9895,2.983,2.9856,2.9895,2.983,2.9013,2.8386,2.885,2.8612,2.8398,2.8863,2.8599,2.826,2.826,2.826,2.826,2.826,2.821,2.8197,2.8247,2.821,2.8386,2.89,2.8963,2.9214,2.9741,2.9792,2.9792,2.9792,2.9792,2.9792,2.9792,2.9792,2.9817,2.9867,3.0357,3.0884,3.1461,3.1964,3.0743,2.7908,2.8958,2.8168,2.5888,2.6241,2.6406,2.6465,2.6894,2.7324,2.7777,2.7777,2.7949,2.8291,2.8291,2.8291,2.8291,2.8291,2.8291,2.8301,2.9792,2.9792,2.9792,2.9792,2.9792,2.9792,2.9792,2.9792,2.9792,2.9792,2.9792,2.9792,2.9792,2.9792,2.9792,2.9792,2.9264,2.8599,2.7971,2.7519,2.7065,2.6512,2.6499,2.6499,2.6499,2.6499,2.6499,2.6499,2.6499,2.6499,2.6499,2.6499,2.6499,2.6499,2.6499,2.6499,2.6499,2.6499,2.6499,2.6499,2.6499,2.6751,2.709,2.6663,2.7027,2.7695,2.7291,2.7733,2.8649,2.9101,2.9101,2.9001,2.9616,2.9792,2.9792,2.9792,3.0317,3.0733,2.9998,3.0355,3.0733,2.996,2.9603,2.9453,2.9578,2.9515,2.9465,2.9578,2.9515,2.9428,2.9428,2.9428,2.9428,2.9428,2.9051,2.8875,2.9365,2.9038,2.8963,2.9528,2.9603,2.9654,2.9779,2.9792,2.9792,2.9792,2.9792,2.9792,2.9792,2.9792,2.9993,3.0419,3.0557,3.1072,3.2026,3.2152,3.159,3.0406,2.9727,2.8634,2.7194,2.6665,2.6572,2.6904,2.7334,2.7764,2.8154,2.8154,2.8213,2.8291,2.8291,2.8291,2.8291,2.8291,2.8291,2.834,2.9792,2.9792,2.9792,2.9792,2.9792,2.9792,2.9792,2.9792,2.9792,2.9792,2.9792,2.9792,2.9792,2.9792,2.9792,2.9792,2.9515,2.9101,2.8536,2.7984,2.7431,2.6914,2.6637,2.6612,2.6889,2.6889,2.6763,2.6499,2.6499,2.6499,2.6499,2.6499,2.6499,2.6499,2.6499,2.6637,2.6889,2.6889,2.704,2.7278,2.7278,2.7419,2.7645,2.7356,2.7607,2.8059,2.777,2.821,2.8976,2.9591,2.9591,2.939,2.9691,2.9792,2.9908,3.0355,3.0833,3.1106,3.0582,3.0833,3.097,3.0037,2.9792,2.9792,2.9792,2.9792,2.9792,2.9792,2.9792,2.9792,2.9792,2.9792,2.9792,2.9792,2.9541,2.9453,2.9754,2.9528,2.9453,2.9754,2.9792,2.9792,2.9792,2.9792,2.9792,2.9792,2.9792,2.9905,3.0168,3.0181,3.0432,3.0972,3.1235,3.165,3.2202,3.2491,3.2455,3.2096,3.0855,2.9438,2.7877,2.7674,2.7332,2.7051,2.7685,2.7978,2.8008,2.8203,2.8291,2.8291,2.8291,2.8291,2.8291,2.8291,2.8291,2.833,2.9792,2.9792,2.9792,2.9792,2.9792,2.9792,2.9792,2.9792,2.9792,2.9792,2.9792,2.9792,2.9792,2.9792,2.9792,2.9792,2.9792,2.9553,2.8925,2.8411,2.7896,2.7444,2.6927,2.6889,2.7419,2.7419,2.7241,2.6776,2.6776,2.6776,2.6776,2.6776,2.6776,2.6776,2.6776,2.7027,2.7419,2.7419,2.7682,2.8109,2.8109,2.816,2.8235,2.8134,2.8222,2.8386,2.8285,2.8599,2.9113,2.9628,2.9792,2.9792,2.9792,2.9895,3.0177,3.097,3.1426,3.1646,3.1499,3.1426,3.1217,3.0279,2.9934,2.9792,2.9792,2.9792,2.9792,2.9792,2.9792,2.9792,2.9792,2.9792,2.9792,2.9792,2.9792,2.9792,2.9792,2.9792,2.9792,2.9792,2.9792,2.9792,2.9792,2.9792,2.9792,2.9792,2.988,3.0131,3.0595,3.0708,3.0984,3.1512,3.1976,3.2303,3.2503,3.298,3.3269,3.3357,3.232,3.0652,2.8513,2.8806,2.8278,2.7168,2.7949,2.8096,2.7855,2.8144,2.8291,2.8291,2.8291,2.8291,2.8291,2.8291,2.8291,2.8291,2.9792,2.9792,2.9792,2.9792,2.9792,2.9792,2.9792,2.9792,2.9792,2.9792,2.9792,2.9792,2.9792,2.9792,2.9792,2.9792,2.9792,2.9553,2.8925,2.8411,2.8072,2.7996,2.7469,2.7431,2.7984,2.7996,2.7959,2.7883,2.7883,2.7883,2.7883,2.7883,2.7883,2.7883,2.7883,2.7921,2.7996,2.7996,2.8034,2.8109,2.8109,2.8398,2.8725,2.8285,2.8712,2.9503,2.9001,2.9189,2.9691,2.9767,2.9792,2.9792,2.9792,3.0343,3.1044,3.118,3.2357,3.3449,3.2629,3.2429,3.2177,3.1254,3.0381,2.9792,2.9792,2.9792,2.9792,2.9792,2.9792,2.9792,2.9792,2.9792,2.9792,2.9792,2.9792,2.9792,2.9792,2.9792,2.9792,2.9792,2.9792,2.9792,2.9792,2.9792,2.9792,2.9792,3.0231,3.0532,3.062,3.1035,3.1537,3.2077,3.2177,3.2679,3.3658,3.3746,3.4022,3.45,3.4307,3.2663,2.9733,2.9639,2.886,2.7607,2.8086,2.8262,2.8213,2.8271,2.8291,2.8291,2.8291,2.8291,2.8291,2.8291,2.8291,2.8291,2.9792,2.9792,2.9792,2.9792,2.9792,2.9792,2.9792,2.9792,2.9792,2.9792,2.9792,2.9792,2.9792,2.9792,2.9792,2.9792,2.9792,2.9679,2.9428,2.8888,2.8561,2.8561,2.8034,2.7996,2.8549,2.8561,2.8725,2.9051,2.8411,2.8109,2.8109,2.8109,2.8109,2.8109,2.8109,2.8285,2.8561,2.8561,2.875,2.9051,2.9051,2.9189,2.939,2.9139,2.9352,2.9767,2.9503,2.9578,2.9792,2.9792,2.9792,2.9792,2.9792,3.0457,3.1278,3.1815,3.2961,3.391,3.3484,3.2996,3.2393,3.1426,3.0482,2.9792,2.9792,2.9792,2.9792,2.9792,2.9792,2.9792,2.9792,2.9792,2.9792,2.9792,2.9792,2.9792,2.9792,2.9792,2.9792,2.9792,2.9792,2.9917,3.0218,3.0256,3.0369,3.067,3.0909,3.1185,3.1486,3.1725,3.2114,3.2679,3.2993,3.3395,3.3897,3.4211,3.4487,3.468,3.4994,3.4037,3.1921,3.1069,2.999,2.8788,2.8466,2.8164,2.7959,2.8193,2.8291,2.8291,2.8291,2.8291,2.8291,2.8291,2.8291,2.8291]}]]